[[{"header":{"parameterUnit":"m.s-1","parameterCategory":1,"la1":31.0,"la2":29.5877,"lo1":-88.7671,"lo2":-86.6584,"dy":0.0162,"dx":0.0185,"nx":115,"ny":88,"refTime":"2024-08-30T12:00:00:Z","depth":0,"parameterNumber":2,"parameterNumberName":"U-component_of_WINDS"},"data":[0.0,0.0,0.0,0.0,0.0,0.0,0.0,0.0,0.0,0.0,0.0,0.0,0.0,0.0,0.0,0.0,0.0,0.0,0.0,0.0,0.0,0.0,0.0,0.0,0.0,0.0,0.0,0.0,0.0,0.0,0.0,0.0,0.0,0.0,0.0,0.0,0.0,0.0,0.0,0.0,0.0,0.0,0.0,0.0,0.0,0.0,0.0,0.0,0.0,0.0,0.0,0.0,0.0,0.0,0.0,0.0,0.0,0.0,0.0,0.0,0.0,0.0,0.0,0.0,0.0,0.0,0.0,0.0,0.0,0.0,0.0,0.0,0.0,0.0,0.0,0.0,0.0,0.0,0.0,0.0,0.0,0.0,0.0,0.0,0.0,0.0,0.0,0.0,0.0,0.0,0.0,0.0,0.0,0.0,0.0,0.0,0.0,0.0,0.0,0.0,0.0,0.0,0.0,0.0,0.0,0.0,0.0,0.0,0.0,0.0,0.0,0.0,0.0,0.0,0.0,0.0,0.0,0.0,0.0,0.0,0.0,0.0,0.0,0.0,0.0,0.0,0.0,0.0,0.0,0.0,0.0,0.0,0.0,0.0,0.0,0.0,0.0,0.0,0.0,0.0,0.0,0.0,0.0,0.0,0.0,0.0,0.0,0.0,0.0,0.0,0.0,0.0,0.0,0.0,0.0,0.0,0.0,0.0,0.0,0.0,0.0,0.0,0.0,0.0,0.0,0.0,0.0,0.0,0.0,0.0,0.0,0.0,0.0,0.0,0.0,0.0,0.0,0.0,0.0,0.0,0.0,0.0,0.0,0.0,0.0,0.0,0.0,0.0,0.0,0.0,0.0,0.0,0.0,0.0,0.0,0.0,0.0,0.0,0.0,0.0,0.0,0.0,0.0,0.0,0.0,0.0,0.0,0.0,0.0,0.0,0.0,0.0,0.0,0.0,0.0,0.0,0.0,0.0,0.0,0.0,0.0,0.0,0.0,0.0,0.0,0.0,0.0,0.0,0.0,0.0,0.0,0.0,0.0,0.0,0.0,0.0,0.0,0.0,0.0,0.0,0.0,0.0,0.0,0.0,0.0,0.0,0.0,0.0,0.0,0.0,0.0,0.0,0.0,0.0,0.0,0.0,0.0,0.0,0.0,0.0,0.0,0.0,0.0,0.0,0.0,0.0,0.0,0.0,0.0,0.0,0.0,0.0,0.0,0.0,0.0,0.0,0.0,0.0,0.0,0.0,0.0,0.0,0.0,0.0,0.0,0.0,0.0,0.0,0.0,0.0,0.0,0.0,0.0,0.0,0.0,0.0,0.0,0.0,0.0,0.0,0.0,0.0,0.0,0.0,0.0,0.0,0.0,0.0,0.0,0.0,0.0,0.0,0.0,0.0,0.0,0.0,0.0,0.0,0.0,0.0,0.0,0.0,0.0,0.0,0.0,0.0,0.0,0.0,0.0,0.0,0.0,0.0,0.0,0.0,0.0,0.0,0.0,0.0,0.0,0.0,0.0,0.0,0.0,0.0,0.0,0.0,0.0,0.0,0.0,0.0,0.0,0.0,0.0,0.0,0.0,0.0,0.0,0.0,0.0,0.0,0.0,0.0,0.0,0.0,0.0,0.0,0.0,0.0,0.0,0.0,0.0,0.0,0.0,0.0,0.0,0.0,0.0,0.0,0.0,0.0,0.0,0.0,0.0,0.0,0.0,0.0,0.0,0.0,0.0,0.0,0.0,0.0,0.0,0.0,0.0,0.0,0.0,0.0,0.0,0.0,0.0,0.0,0.0,0.0,0.0,0.0,0.0,0.0,0.0,0.0,0.0,0.0,0.0,0.0,0.0,0.0,0.0,0.0,0.0,0.0,0.0,0.0,0.0,0.0,0.0,0.0,0.0,0.0,0.0,0.0,0.0,0.0,0.0,0.0,0.0,0.0,0.0,0.0,0.0,0.0,0.0,0.0,0.0,0.0,0.0,0.0,0.0,0.0,0.0,0.0,0.0,0.0,0.0,0.0,0.0,0.0,0.0,0.0,0.0,0.0,0.0,0.0,0.0,0.0,0.0,0.0,0.0,0.0,0.0,0.0,0.0,0.0,0.0,0.0,0.0,0.0,0.0,0.0,0.0,0.0,0.0,0.0,0.0,0.0,0.0,0.0,0.0,0.0,0.0,0.0,0.0,0.0,0.0,0.0,0.0,0.0,0.0,0.0,0.0,0.0,0.0,0.0,0.0,0.0,0.0,0.0,0.0,0.0,0.0,0.0,0.0,0.0,0.0,0.0,0.0,0.0,0.0,0.0,0.0,0.0,0.0,0.0,0.0,0.0,0.0,0.0,0.0,0.0,0.0,0.0,0.0,0.0,0.0,0.0,0.0,0.0,0.0,0.0,0.0,0.0,0.0,0.0,0.0,0.0,0.0,0.0,0.0,0.0,0.0,0.0,0.0,0.0,0.0,0.0,0.0,0.0,0.0,0.0,0.0,0.0,0.0,0.0,0.0,0.0,0.0,0.0,0.0,0.0,0.0,0.0,0.0,0.0,0.0,0.0,0.0,0.0,0.0,0.0,0.0,0.0,0.0,0.0,0.0,0.0,0.0,0.0,0.0,0.0,0.0,0.0,0.0,0.0,0.0,0.0,0.0,0.0,0.0,0.0,0.0,0.0,0.0,0.0,0.0,0.0,0.0,0.0,0.0,0.0,0.0,0.0,0.0,0.0,0.0,0.0,0.0,0.0,0.0,0.0,0.0,0.0,0.0,0.0,0.0,0.0,0.0,0.0,0.0,0.0,0.0,0.0,0.0,0.0,0.0,0.0,0.0,0.0,0.0,0.0,0.0,0.0,0.0,0.0,0.0,0.0,0.0,0.0,0.0,0.0,0.0,0.0,0.0,0.0,0.0,0.0,0.0,0.0,0.0,0.0,0.0,0.0,0.0,0.0,0.0,0.0,0.0,0.0,0.0,0.0,0.0,0.0,0.0,0.0,0.0,0.0,0.0,0.0,0.0,0.0,0.0,0.0,0.0,0.0,0.0,0.0,0.0,0.0,0.0,0.0,0.0,0.0,0.0,0.0,0.0,0.0,0.0,0.0,0.0,0.0,0.0,0.0,0.0,0.0,0.0,0.0,0.0,0.0,0.0,0.0,0.0,0.0,0.0,0.0,0.0,0.0,0.0,0.0,0.0,0.0,0.0,0.0,0.0,0.0,0.0,0.0,0.0,0.0,0.0,0.0,0.0,0.0,0.0,0.0,0.0,0.0,0.0,0.0,0.0,0.0,0.0,0.0,0.0,0.0,0.0,0.0,0.0,0.0,0.0,0.0,0.0,0.0,0.0,0.0,0.0,0.0,0.0,0.0,0.0,0.0,0.0,0.0,0.0,0.0,0.0,0.0,0.0,0.0,0.0,0.0,0.0,0.0,0.0,0.0,0.0,0.0,0.0,0.0,0.0,0.0,0.0,0.0,0.0,0.0,0.0,0.0,0.0,0.0,0.0,0.0,0.0,0.0,0.0,0.0,0.0,0.0,0.0,0.0,0.0,0.0,0.0,0.0,0.0,0.0,0.0,0.0,0.0,0.0,0.0,0.0,0.0,0.0,0.0,0.0,0.0,0.0,0.0,0.0,0.0,0.0,0.0,0.0,0.0,0.0,0.0,0.0,0.0,0.0,0.0,0.0,0.0,0.0,0.0,0.0,0.0,0.0,0.0,0.0,0.0,0.0,0.0,0.0,0.0,0.0,0.0,0.0,0.0,0.0,0.0,0.0,0.0,0.0,0.0,0.0,0.0,0.0,0.0,0.0,0.0,0.0,0.0,0.0,0.0,0.0,0.0,0.0,0.0,0.0,0.0,0.0,0.0,0.0,0.0,0.0,0.0,0.0,0.0,0.0,0.0,0.0,0.0,0.0,0.0,0.0,0.0,0.0,0.0,0.0,0.0,0.0,0.0,0.0,0.0,0.0,0.0,0.0,0.0,0.0,0.0,0.0,0.0,0.0,0.0,0.0,0.0,0.0,0.0,0.0,0.0,0.0,0.0,0.0,0.0,0.0,0.0,0.0,0.0,0.0,0.0,0.0,0.0,0.0,0.0,0.0,0.0,0.0,0.0,0.0,0.0,0.0,0.0,0.0,0.0,0.0,0.0,0.0,0.0,0.0,0.0,0.0,0.0,0.0,0.0,0.0,0.0,0.0,0.0,0.0,0.0,0.0,0.0,0.0,0.0,0.0,0.0,0.0,0.0,0.0,0.0,0.0,0.0,0.0,0.0,0.0,0.0,0.0,0.0,0.0,-1.6225,0.0,0.0,0.0,0.0,0.0,0.0,0.0,0.0,0.0,0.0,0.0,0.0,0.0,0.0,0.0,0.0,0.0,0.0,0.0,0.0,0.0,0.0,0.0,0.0,0.0,0.0,0.0,0.0,0.0,0.0,0.0,0.0,0.0,0.0,0.0,0.0,0.0,0.0,0.0,0.0,0.0,0.0,0.0,0.0,0.0,0.0,0.0,0.0,0.0,0.0,0.0,0.0,0.0,0.0,0.0,0.0,0.0,0.0,0.0,0.0,0.0,0.0,0.0,0.0,0.0,0.0,0.0,0.0,0.0,0.0,0.0,0.0,0.0,0.0,0.0,0.0,0.0,0.0,0.0,0.0,0.0,0.0,0.0,0.0,0.0,0.0,0.0,0.0,0.0,0.0,0.0,0.0,0.0,0.0,0.0,0.0,0.0,0.0,0.0,0.0,0.0,0.0,0.0,0.0,0.0,0.0,0.0,0.0,0.0,0.0,-1.6603,-1.6556,-1.6854,-1.6793,-1.634,0.0,0.0,0.0,0.0,0.0,0.0,0.0,0.0,0.0,0.0,0.0,0.0,0.0,0.0,0.0,0.0,0.0,0.0,0.0,0.0,0.0,0.0,0.0,0.0,0.0,0.0,0.0,0.0,0.0,0.0,0.0,0.0,0.0,0.0,0.0,0.0,0.0,0.0,0.0,0.0,0.0,0.0,0.0,0.0,0.0,0.0,0.0,0.0,0.0,0.0,0.0,0.0,0.0,0.0,0.0,0.0,0.0,0.0,0.0,0.0,0.0,0.0,0.0,0.0,0.0,0.0,0.0,0.0,0.0,0.0,0.0,0.0,0.0,0.0,0.0,0.0,0.0,0.0,0.0,0.0,0.0,0.0,0.0,0.0,0.0,0.0,0.0,0.0,0.0,0.0,0.0,0.0,0.0,0.0,0.0,0.0,0.0,0.0,0.0,0.0,0.0,0.0,0.0,0.0,0.0,0.0,0.0,0.0,0.0,0.0,0.0,0.0,-1.8227,-1.7987,-1.7053,0.0,0.0,0.0,0.0,0.0,0.0,0.0,0.0,0.0,0.0,0.0,0.0,0.0,0.0,0.0,0.0,0.0,0.0,0.0,0.0,0.0,0.0,0.0,0.0,0.0,0.0,0.0,0.0,0.0,0.0,0.0,0.0,0.0,0.0,0.0,0.0,0.0,0.0,0.0,0.0,0.0,0.0,0.0,0.0,0.0,0.0,0.0,0.0,0.0,0.0,0.0,0.0,0.0,0.0,0.0,0.0,0.0,0.0,0.0,0.0,0.0,0.0,0.0,0.0,0.0,0.0,0.0,0.0,0.0,0.0,0.0,0.0,0.0,0.0,0.0,0.0,0.0,0.0,0.0,0.0,0.0,0.0,0.0,0.0,0.0,0.0,0.0,0.0,0.0,0.0,0.0,0.0,0.0,0.0,0.0,0.0,0.0,0.0,0.0,0.0,0.0,0.0,0.0,0.0,0.0,0.0,0.0,0.0,0.0,0.0,-1.7992,-1.9585,-1.9687,0.0,-1.9398,0.0,0.0,0.0,0.0,0.0,0.0,0.0,0.0,0.0,0.0,0.0,0.0,0.0,0.0,0.0,0.0,0.0,0.0,0.0,0.0,0.0,0.0,0.0,0.0,0.0,0.0,0.0,0.0,0.0,0.0,0.0,0.0,0.0,0.0,0.0,0.0,0.0,0.0,0.0,0.0,0.0,0.0,0.0,0.0,0.0,0.0,0.0,0.0,0.0,0.0,0.0,0.0,0.0,0.0,0.0,0.0,0.0,0.0,0.0,0.0,0.0,0.0,0.0,0.0,0.0,0.0,0.0,0.0,0.0,0.0,0.0,0.0,0.0,0.0,0.0,0.0,0.0,0.0,0.0,0.0,0.0,0.0,0.0,0.0,0.0,0.0,0.0,0.0,0.0,0.0,0.0,0.0,0.0,0.0,0.0,0.0,0.0,0.0,0.0,0.0,0.0,0.0,0.0,0.0,0.0,0.0,0.0,0.0,0.0,0.0,-1.9525,-2.0165,-1.9467,-1.9051,0.0,0.0,0.0,0.0,0.0,0.0,0.0,0.0,0.0,0.0,0.0,0.0,0.0,0.0,0.0,0.0,0.0,0.0,0.0,0.0,0.0,0.0,0.0,0.0,0.0,0.0,0.0,0.0,0.0,0.0,0.0,0.0,0.0,0.0,0.0,0.0,0.0,0.0,0.0,0.0,0.0,0.0,0.0,0.0,0.0,0.0,0.0,0.0,0.0,0.0,0.0,0.0,0.0,0.0,0.0,0.0,0.0,0.0,0.0,0.0,0.0,0.0,0.0,0.0,0.0,0.0,0.0,0.0,0.0,0.0,0.0,0.0,0.0,0.0,0.0,0.0,0.0,0.0,0.0,0.0,0.0,0.0,0.0,0.0,0.0,0.0,0.0,0.0,0.0,0.0,0.0,0.0,0.0,0.0,0.0,0.0,0.0,0.0,0.0,0.0,0.0,0.0,0.0,0.0,0.0,0.0,0.0,0.0,0.0,0.0,-2.0042,-2.0742,-2.1066,-2.0259,-1.9438,-1.8779,0.0,0.0,0.0,0.0,0.0,0.0,0.0,0.0,0.0,0.0,0.0,0.0,0.0,0.0,0.0,0.0,0.0,0.0,0.0,0.0,0.0,0.0,0.0,0.0,0.0,0.0,0.0,0.0,0.0,0.0,0.0,0.0,0.0,0.0,0.0,0.0,0.0,0.0,0.0,0.0,0.0,0.0,0.0,0.0,0.0,0.0,0.0,0.0,0.0,0.0,0.0,0.0,0.0,0.0,0.0,0.0,0.0,0.0,0.0,0.0,0.0,0.0,0.0,0.0,0.0,0.0,0.0,0.0,0.0,0.0,0.0,0.0,0.0,0.0,0.0,0.0,0.0,0.0,0.0,0.0,0.0,0.0,0.0,0.0,0.0,0.0,0.0,0.0,0.0,0.0,0.0,0.0,0.0,0.0,0.0,0.0,0.0,0.0,0.0,0.0,0.0,0.0,0.0,0.0,0.0,0.0,0.0,0.0,0.0,-2.1018,-2.1235,-2.2901,-2.2901,-2.1777,0.0,0.0,0.0,0.0,0.0,0.0,0.0,0.0,0.0,0.0,0.0,0.0,0.0,0.0,0.0,0.0,0.0,0.0,0.0,0.0,0.0,0.0,0.0,0.0,0.0,0.0,0.0,0.0,0.0,0.0,0.0,0.0,0.0,0.0,0.0,0.0,0.0,0.0,0.0,0.0,0.0,0.0,0.0,0.0,0.0,0.0,0.0,0.0,0.0,0.0,0.0,0.0,0.0,0.0,0.0,0.0,0.0,0.0,0.0,0.0,0.0,0.0,0.0,0.0,0.0,0.0,0.0,0.0,0.0,0.0,0.0,0.0,0.0,0.0,0.0,0.0,0.0,0.0,0.0,0.0,0.0,0.0,0.0,0.0,0.0,0.0,0.0,0.0,0.0,0.0,0.0,0.0,0.0,0.0,0.0,0.0,0.0,0.0,0.0,0.0,0.0,0.0,0.0,0.0,0.0,0.0,0.0,0.0,0.0,-1.9384,-2.0273,-2.1894,-2.4132,-2.1804,-2.028,0.0,0.0,0.0,0.0,0.0,0.0,0.0,0.0,0.0,0.0,0.0,0.0,0.0,0.0,0.0,0.0,0.0,0.0,0.0,0.0,0.0,0.0,0.0,0.0,0.0,0.0,0.0,0.0,0.0,0.0,0.0,0.0,0.0,0.0,0.0,0.0,0.0,0.0,0.0,0.0,0.0,0.0,0.0,0.0,0.0,0.0,0.0,0.0,0.0,0.0,0.0,0.0,0.0,0.0,0.0,0.0,0.0,0.0,0.0,0.0,0.0,0.0,0.0,0.0,0.0,0.0,0.0,0.0,0.0,0.0,0.0,0.0,0.0,0.0,0.0,0.0,0.0,0.0,0.0,0.0,0.0,0.0,0.0,0.0,0.0,0.0,0.0,0.0,0.0,0.0,0.0,0.0,0.0,0.0,0.0,0.0,0.0,0.0,0.0,0.0,0.0,0.0,0.0,0.0,0.0,0.0,0.0,0.0,0.0,-1.8914,0.0,-2.268,0.0,-2.1274,-1.9561,0.0,0.0,0.0,0.0,0.0,0.0,0.0,0.0,0.0,0.0,0.0,0.0,0.0,0.0,0.0,0.0,0.0,0.0,0.0,0.0,0.0,0.0,0.0,0.0,0.0,0.0,0.0,0.0,0.0,0.0,0.0,0.0,0.0,0.0,0.0,0.0,0.0,0.0,0.0,0.0,0.0,0.0,0.0,0.0,0.0,0.0,0.0,0.0,0.0,0.0,0.0,0.0,0.0,0.0,0.0,0.0,0.0,0.0,0.0,0.0,0.0,0.0,0.0,0.0,0.0,0.0,0.0,0.0,0.0,0.0,0.0,0.0,0.0,0.0,0.0,0.0,0.0,0.0,0.0,0.0,0.0,0.0,0.0,0.0,0.0,0.0,0.0,0.0,0.0,0.0,0.0,0.0,0.0,0.0,0.0,0.0,0.0,0.0,0.0,0.0,0.0,0.0,0.0,0.0,0.0,0.0,0.0,0.0,-1.7748,-2.1243,-2.3068,-2.3571,-2.2718,-2.1749,-1.9983,0.0,0.0,0.0,0.0,0.0,0.0,0.0,0.0,0.0,0.0,0.0,0.0,0.0,0.0,0.0,0.0,0.0,0.0,0.0,0.0,0.0,0.0,0.0,0.0,0.0,0.0,0.0,0.0,0.0,0.0,0.0,0.0,0.0,0.0,0.0,0.0,0.0,0.0,0.0,0.0,0.0,0.0,0.0,0.0,0.0,0.0,0.0,0.0,0.0,0.0,0.0,0.0,0.0,0.0,0.0,0.0,0.0,0.0,0.0,0.0,0.0,0.0,0.0,0.0,0.0,0.0,0.0,0.0,0.0,0.0,0.0,0.0,0.0,0.0,0.0,0.0,0.0,0.0,0.0,0.0,0.0,0.0,0.0,0.0,0.0,0.0,0.0,0.0,0.0,0.0,0.0,0.0,0.0,0.0,0.0,0.0,0.0,0.0,0.0,0.0,0.0,0.0,0.0,0.0,0.0,0.0,0.0,0.0,0.0,-2.1318,-2.255,-2.3925,-2.5245,-2.2285,-2.0582,0.0,0.0,0.0,0.0,0.0,0.0,0.0,0.0,0.0,0.0,0.0,0.0,0.0,0.0,0.0,0.0,0.0,0.0,0.0,0.0,0.0,0.0,0.0,0.0,0.0,0.0,0.0,0.0,0.0,0.0,0.0,0.0,0.0,0.0,0.0,0.0,0.0,0.0,0.0,0.0,0.0,0.0,0.0,0.0,0.0,0.0,0.0,0.0,0.0,0.0,0.0,0.0,0.0,0.0,0.0,0.0,0.0,0.0,0.0,0.0,0.0,0.0,0.0,0.0,0.0,0.0,0.0,0.0,0.0,0.0,0.0,0.0,0.0,0.0,0.0,0.0,0.0,0.0,0.0,0.0,0.0,0.0,0.0,0.0,0.0,0.0,0.0,0.0,0.0,0.0,0.0,0.0,0.0,0.0,0.0,0.0,0.0,0.0,0.0,0.0,0.0,0.0,0.0,0.0,0.0,0.0,0.0,0.0,0.0,-2.3316,-2.4125,-2.5188,-2.6514,-2.3482,-2.163,-2.1185,0.0,0.0,0.0,0.0,0.0,0.0,0.0,0.0,0.0,0.0,0.0,0.0,0.0,0.0,0.0,0.0,0.0,0.0,0.0,0.0,0.0,0.0,0.0,0.0,0.0,0.0,0.0,0.0,0.0,0.0,0.0,0.0,0.0,0.0,0.0,0.0,0.0,0.0,0.0,0.0,0.0,0.0,0.0,0.0,0.0,0.0,0.0,0.0,0.0,0.0,0.0,0.0,0.0,0.0,0.0,0.0,0.0,0.0,0.0,0.0,0.0,0.0,0.0,0.0,0.0,0.0,0.0,0.0,0.0,0.0,0.0,0.0,0.0,0.0,0.0,0.0,0.0,0.0,0.0,0.0,0.0,0.0,0.0,0.0,0.0,0.0,0.0,0.0,0.0,0.0,0.0,0.0,0.0,0.0,0.0,0.0,0.0,0.0,0.0,0.0,0.0,0.0,0.0,0.0,0.0,0.0,0.0,0.0,-2.6733,-2.7293,-2.7229,-2.6642,-2.5204,-2.3106,0.0,0.0,0.0,0.0,0.0,0.0,0.0,0.0,0.0,0.0,0.0,0.0,0.0,0.0,0.0,0.0,0.0,0.0,0.0,0.0,0.0,0.0,0.0,0.0,0.0,0.0,0.0,0.0,0.0,0.0,0.0,0.0,0.0,0.0,0.0,0.0,0.0,0.0,0.0,0.0,0.0,0.0,0.0,0.0,0.0,0.0,0.0,0.0,0.0,0.0,0.0,0.0,0.0,0.0,0.0,0.0,0.0,0.0,0.0,0.0,0.0,0.0,0.0,0.0,0.0,0.0,0.0,0.0,0.0,0.0,0.0,0.0,0.0,0.0,0.0,0.0,0.0,0.0,0.0,0.0,0.0,0.0,0.0,0.0,0.0,0.0,0.0,0.0,0.0,0.0,0.0,0.0,0.0,0.0,0.0,0.0,0.0,0.0,0.0,0.0,0.0,0.0,0.0,0.0,0.0,0.0,0.0,0.0,0.0,-2.6557,-2.7683,-2.8786,-2.9813,-2.6954,-2.4334,0.0,0.0,0.0,0.0,0.0,0.0,0.0,0.0,0.0,0.0,0.0,0.0,0.0,0.0,0.0,0.0,0.0,0.0,0.0,0.0,0.0,0.0,0.0,0.0,0.0,0.0,0.0,0.0,0.0,0.0,0.0,0.0,0.0,0.0,0.0,0.0,0.0,0.0,0.0,0.0,0.0,0.0,0.0,0.0,0.0,0.0,0.0,0.0,0.0,0.0,0.0,0.0,0.0,0.0,0.0,0.0,0.0,0.0,0.0,0.0,0.0,0.0,0.0,0.0,0.0,0.0,0.0,0.0,0.0,0.0,0.0,0.0,0.0,0.0,0.0,0.0,0.0,0.0,0.0,0.0,0.0,0.0,0.0,0.0,0.0,0.0,0.0,0.0,0.0,0.0,0.0,0.0,0.0,0.0,0.0,0.0,0.0,0.0,0.0,0.0,0.0,0.0,0.0,0.0,0.0,0.0,0.0,0.0,-2.5018,-2.8046,-2.8821,-2.9701,-3.0769,-2.8154,-2.5499,0.0,0.0,0.0,0.0,0.0,0.0,0.0,0.0,0.0,0.0,0.0,0.0,0.0,0.0,0.0,0.0,0.0,0.0,0.0,0.0,0.0,0.0,0.0,0.0,0.0,0.0,0.0,0.0,0.0,0.0,0.0,0.0,0.0,0.0,0.0,0.0,0.0,0.0,0.0,0.0,0.0,0.0,0.0,0.0,0.0,0.0,0.0,0.0,0.0,0.0,0.0,0.0,0.0,0.0,0.0,0.0,0.0,0.0,0.0,0.0,0.0,0.0,0.0,0.0,0.0,0.0,0.0,0.0,0.0,0.0,0.0,0.0,0.0,0.0,0.0,0.0,0.0,0.0,0.0,0.0,0.0,0.0,0.0,0.0,0.0,0.0,0.0,0.0,0.0,0.0,0.0,0.0,0.0,0.0,0.0,0.0,0.0,0.0,0.0,0.0,0.0,0.0,0.0,0.0,0.0,0.0,0.0,0.0,-2.606,-2.9799,-2.9922,-2.9996,-3.0107,-2.8929,-2.6568,0.0,0.0,0.0,0.0,0.0,0.0,0.0,0.0,0.0,0.0,0.0,0.0,0.0,0.0,0.0,0.0,0.0,0.0,0.0,0.0,0.0,0.0,0.0,0.0,0.0,0.0,0.0,0.0,0.0,0.0,0.0,0.0,0.0,0.0,0.0,0.0,0.0,0.0,0.0,0.0,0.0,0.0,0.0,0.0,0.0,0.0,0.0,0.0,0.0,0.0,0.0,0.0,0.0,0.0,0.0,0.0,0.0,0.0,0.0,0.0,0.0,0.0,0.0,0.0,0.0,0.0,0.0,0.0,0.0,0.0,0.0,0.0,0.0,0.0,0.0,0.0,0.0,0.0,0.0,0.0,0.0,0.0,0.0,0.0,0.0,0.0,0.0,0.0,0.0,0.0,0.0,0.0,0.0,0.0,0.0,0.0,0.0,0.0,0.0,0.0,0.0,0.0,0.0,0.0,0.0,0.0,0.0,0.0,-2.5819,-2.7858,-2.8471,-2.9109,-2.9868,-2.9529,-2.7528,0.0,0.0,0.0,0.0,0.0,0.0,0.0,0.0,0.0,0.0,0.0,0.0,0.0,0.0,0.0,0.0,0.0,0.0,0.0,0.0,0.0,0.0,0.0,0.0,0.0,0.0,0.0,0.0,0.0,0.0,0.0,0.0,0.0,0.0,0.0,0.0,0.0,0.0,0.0,0.0,0.0,0.0,0.0,0.0,0.0,0.0,0.0,0.0,-2.5539,0.0,0.0,0.0,0.0,0.0,0.0,0.0,0.0,0.0,0.0,0.0,0.0,0.0,0.0,0.0,0.0,0.0,0.0,0.0,0.0,0.0,0.0,0.0,0.0,0.0,0.0,0.0,0.0,0.0,0.0,0.0,0.0,0.0,0.0,0.0,0.0,0.0,0.0,0.0,0.0,0.0,0.0,0.0,0.0,0.0,0.0,0.0,0.0,0.0,0.0,0.0,0.0,0.0,0.0,0.0,0.0,0.0,0.0,0.0,-2.6322,-2.8089,-2.8525,-2.907,-2.978,-2.9834,-2.8006,0.0,0.0,0.0,0.0,0.0,0.0,0.0,0.0,0.0,0.0,0.0,0.0,0.0,0.0,0.0,0.0,0.0,0.0,0.0,0.0,0.0,0.0,0.0,0.0,0.0,0.0,0.0,0.0,0.0,0.0,0.0,0.0,0.0,0.0,0.0,0.0,0.0,0.0,0.0,0.0,0.0,0.0,0.0,0.0,0.0,0.0,0.0,0.0,0.0,0.0,0.0,0.0,0.0,0.0,0.0,0.0,0.0,0.0,0.0,0.0,0.0,0.0,0.0,0.0,0.0,0.0,0.0,0.0,0.0,0.0,0.0,0.0,0.0,0.0,0.0,0.0,0.0,0.0,0.0,0.0,0.0,0.0,0.0,0.0,0.0,0.0,0.0,0.0,0.0,0.0,0.0,0.0,0.0,0.0,0.0,0.0,0.0,0.0,0.0,0.0,0.0,0.0,0.0,0.0,0.0,0.0,0.0,-2.4902,-2.6818,-2.8849,-2.9005,-2.9223,-2.9614,-2.9676,-2.8036,-2.4525,0.0,0.0,0.0,0.0,0.0,0.0,0.0,0.0,0.0,0.0,0.0,0.0,0.0,0.0,0.0,0.0,0.0,0.0,0.0,0.0,0.0,0.0,0.0,0.0,0.0,0.0,0.0,0.0,0.0,0.0,0.0,0.0,0.0,0.0,0.0,0.0,0.0,0.0,-2.2932,-2.5256,0.0,0.0,0.0,0.0,0.0,0.0,0.0,0.0,-2.7628,0.0,0.0,0.0,0.0,0.0,0.0,0.0,0.0,0.0,0.0,0.0,0.0,0.0,0.0,0.0,0.0,0.0,0.0,0.0,0.0,0.0,0.0,0.0,0.0,0.0,0.0,0.0,0.0,0.0,0.0,0.0,0.0,0.0,0.0,0.0,0.0,0.0,0.0,0.0,0.0,0.0,0.0,0.0,0.0,0.0,0.0,0.0,0.0,0.0,0.0,0.0,0.0,0.0,0.0,0.0,0.0,-2.3892,-2.4793,-2.6253,-2.8296,-2.8606,-2.8832,-2.8951,-2.8604,-2.7225,-2.4792,0.0,0.0,0.0,0.0,0.0,0.0,0.0,0.0,0.0,0.0,0.0,0.0,0.0,0.0,0.0,0.0,0.0,0.0,0.0,0.0,0.0,0.0,0.0,0.0,0.0,0.0,0.0,0.0,0.0,0.0,0.0,0.0,0.0,0.0,0.0,0.0,0.0,0.0,0.0,-2.7934,-2.9277,0.0,0.0,0.0,0.0,0.0,0.0,0.0,0.0,-2.9763,0.0,0.0,0.0,0.0,0.0,0.0,0.0,0.0,0.0,0.0,0.0,0.0,0.0,0.0,0.0,0.0,0.0,0.0,0.0,0.0,0.0,0.0,0.0,0.0,0.0,0.0,0.0,0.0,0.0,0.0,0.0,0.0,0.0,0.0,0.0,0.0,0.0,0.0,0.0,0.0,0.0,0.0,0.0,0.0,0.0,0.0,0.0,0.0,0.0,0.0,0.0,0.0,0.0,0.0,0.0,-2.3019,-2.4563,-2.6061,-2.7579,-2.8106,-2.8371,-2.8268,-2.7214,-2.5877,0.0,0.0,0.0,0.0,0.0,0.0,0.0,0.0,0.0,0.0,0.0,0.0,0.0,0.0,0.0,0.0,0.0,0.0,0.0,0.0,0.0,0.0,0.0,0.0,0.0,0.0,0.0,0.0,0.0,0.0,0.0,0.0,0.0,0.0,0.0,0.0,0.0,0.0,0.0,0.0,-2.8258,-2.9416,-3.0894,0.0,0.0,0.0,0.0,0.0,0.0,-3.002,-3.0178,0.0,0.0,0.0,0.0,0.0,0.0,0.0,0.0,0.0,0.0,0.0,0.0,0.0,0.0,0.0,0.0,0.0,0.0,0.0,0.0,0.0,0.0,0.0,0.0,0.0,0.0,0.0,0.0,0.0,0.0,0.0,0.0,0.0,0.0,0.0,0.0,0.0,0.0,0.0,0.0,0.0,0.0,0.0,0.0,0.0,0.0,0.0,0.0,0.0,0.0,0.0,0.0,0.0,0.0,0.0,-2.1988,-2.3914,-2.5418,-2.651,-2.7125,-2.7362,-2.7101,-2.581,-2.4539,0.0,0.0,0.0,0.0,0.0,0.0,0.0,0.0,0.0,0.0,0.0,0.0,0.0,0.0,0.0,0.0,0.0,0.0,0.0,0.0,0.0,0.0,0.0,0.0,0.0,0.0,0.0,0.0,0.0,0.0,0.0,0.0,0.0,0.0,0.0,0.0,0.0,0.0,0.0,0.0,0.0,-2.9685,-3.0974,-3.0973,0.0,0.0,0.0,0.0,-3.002,-3.0413,0.0,0.0,0.0,0.0,0.0,0.0,0.0,0.0,0.0,0.0,0.0,0.0,0.0,0.0,0.0,0.0,0.0,0.0,0.0,0.0,0.0,0.0,0.0,0.0,0.0,0.0,0.0,0.0,0.0,0.0,0.0,0.0,0.0,0.0,0.0,0.0,0.0,0.0,0.0,0.0,0.0,0.0,0.0,0.0,0.0,0.0,0.0,0.0,0.0,0.0,0.0,0.0,0.0,0.0,0.0,0.0,-2.133,-2.2328,-2.344,-2.4569,-2.5046,-2.5155,-2.4896,-2.4583,-2.3542,0.0,0.0,0.0,0.0,0.0,0.0,0.0,0.0,0.0,0.0,0.0,0.0,0.0,0.0,0.0,0.0,0.0,0.0,0.0,0.0,0.0,0.0,0.0,0.0,0.0,0.0,0.0,0.0,0.0,0.0,0.0,0.0,0.0,0.0,0.0,0.0,0.0,0.0,0.0,0.0,0.0,-3.1794,-3.1427,-3.1314,-3.1472,0.0,0.0,-3.1399,-3.1738,-3.1836,0.0,0.0,0.0,0.0,0.0,0.0,0.0,0.0,0.0,0.0,0.0,0.0,0.0,0.0,0.0,0.0,0.0,0.0,0.0,0.0,0.0,0.0,0.0,0.0,0.0,0.0,0.0,0.0,0.0,0.0,0.0,0.0,0.0,0.0,0.0,0.0,0.0,0.0,0.0,0.0,0.0,0.0,0.0,0.0,0.0,0.0,0.0,0.0,0.0,0.0,0.0,0.0,0.0,0.0,0.0,-1.8721,-2.0854,-2.2107,-2.3167,-2.4061,-2.4578,-2.4458,-2.3663,-2.2898,-2.1851,0.0,0.0,0.0,0.0,0.0,0.0,0.0,0.0,0.0,0.0,0.0,0.0,0.0,0.0,0.0,0.0,0.0,0.0,0.0,0.0,0.0,0.0,0.0,0.0,0.0,0.0,0.0,0.0,0.0,0.0,0.0,0.0,0.0,0.0,0.0,0.0,0.0,0.0,0.0,0.0,0.0,0.0,-3.1828,-3.2128,0.0,0.0,0.0,-3.218,-3.1948,0.0,0.0,0.0,0.0,0.0,0.0,0.0,0.0,0.0,0.0,0.0,0.0,0.0,0.0,0.0,0.0,0.0,0.0,0.0,0.0,0.0,0.0,0.0,0.0,0.0,0.0,0.0,0.0,0.0,0.0,0.0,0.0,0.0,0.0,0.0,0.0,0.0,0.0,0.0,0.0,0.0,0.0,0.0,0.0,0.0,0.0,0.0,0.0,0.0,0.0,0.0,0.0,0.0,0.0,0.0,0.0,0.0,-2.0343,-2.1664,-2.2625,-2.3174,-2.3614,-2.3381,-2.2448,-2.1549,0.0,0.0,0.0,0.0,0.0,0.0,0.0,0.0,0.0,0.0,0.0,0.0,0.0,0.0,0.0,0.0,0.0,0.0,0.0,0.0,0.0,0.0,0.0,0.0,0.0,0.0,0.0,-1.6948,0.0,0.0,0.0,0.0,0.0,0.0,0.0,0.0,0.0,0.0,0.0,0.0,0.0,0.0,-3.0828,-3.2009,-3.2646,-3.2819,0.0,0.0,-3.2579,-3.2044,-3.1665,-3.1293,0.0,0.0,0.0,0.0,0.0,0.0,0.0,0.0,0.0,0.0,0.0,0.0,0.0,0.0,0.0,0.0,0.0,0.0,0.0,0.0,0.0,0.0,0.0,0.0,0.0,0.0,0.0,0.0,0.0,0.0,0.0,0.0,0.0,0.0,0.0,0.0,0.0,0.0,0.0,0.0,0.0,0.0,0.0,0.0,0.0,0.0,0.0,0.0,0.0,0.0,0.0,0.0,0.0,0.0,0.0,-1.9615,-2.0444,-2.0993,-2.1215,-2.1255,-2.113,-2.0864,-2.097,-2.004,0.0,0.0,0.0,0.0,0.0,0.0,0.0,0.0,0.0,0.0,0.0,0.0,0.0,0.0,0.0,0.0,0.0,0.0,0.0,0.0,0.0,0.0,0.0,0.0,0.0,0.0,0.0,0.0,0.0,0.0,0.0,0.0,0.0,0.0,0.0,0.0,0.0,0.0,0.0,0.0,0.0,-3.2721,-3.1597,-3.253,-3.3113,0.0,0.0,-3.2415,-3.2369,-3.2311,-3.1955,-3.0892,0.0,0.0,0.0,0.0,0.0,0.0,0.0,0.0,0.0,0.0,0.0,0.0,0.0,0.0,0.0,0.0,0.0,0.0,0.0,0.0,0.0,0.0,0.0,0.0,0.0,0.0,0.0,0.0,0.0,0.0,0.0,0.0,0.0,0.0,0.0,0.0,0.0,0.0,0.0,0.0,0.0,0.0,0.0,0.0,0.0,0.0,0.0,0.0,0.0,0.0,0.0,0.0,0.0,-1.8065,-1.9158,-2.0182,-2.0724,-2.0812,-2.0823,-2.0787,-2.0699,-2.0787,-2.0189,0.0,0.0,0.0,0.0,0.0,0.0,0.0,0.0,0.0,0.0,0.0,0.0,0.0,0.0,0.0,0.0,0.0,0.0,0.0,0.0,0.0,0.0,0.0,0.0,0.0,0.0,0.0,0.0,-2.0421,-2.0995,-2.1571,0.0,0.0,0.0,0.0,0.0,0.0,0.0,0.0,0.0,0.0,-3.2582,-3.2074,-3.3072,0.0,0.0,-3.2668,-3.2761,-3.2437,-3.1942,-3.1454,-3.1006,-3.0537,0.0,0.0,0.0,0.0,0.0,0.0,0.0,0.0,0.0,0.0,0.0,0.0,0.0,0.0,0.0,0.0,0.0,0.0,0.0,0.0,0.0,0.0,0.0,0.0,0.0,0.0,0.0,0.0,0.0,0.0,0.0,0.0,0.0,0.0,0.0,0.0,0.0,0.0,0.0,0.0,0.0,0.0,0.0,0.0,0.0,0.0,0.0,0.0,0.0,0.0,0.0,0.0,-1.7973,-1.9159,-2.0347,-2.0936,-2.0936,-2.0949,-2.0857,-2.0712,-2.0699,-2.027,0.0,0.0,0.0,0.0,0.0,0.0,0.0,0.0,0.0,0.0,0.0,0.0,0.0,0.0,0.0,0.0,0.0,0.0,0.0,0.0,0.0,0.0,0.0,0.0,0.0,0.0,0.0,0.0,-2.1954,-2.2287,-2.2526,0.0,0.0,0.0,0.0,0.0,0.0,0.0,0.0,0.0,0.0,-3.2719,-3.2444,-3.3298,-3.3595,-3.253,-3.2722,-3.2857,-3.2465,-3.2031,-3.1695,-3.1423,0.0,0.0,0.0,0.0,0.0,0.0,0.0,0.0,0.0,0.0,0.0,0.0,0.0,0.0,0.0,0.0,0.0,0.0,0.0,0.0,0.0,0.0,0.0,0.0,0.0,0.0,0.0,0.0,0.0,0.0,-1.1318,0.0,0.0,0.0,0.0,0.0,0.0,0.0,0.0,0.0,0.0,0.0,0.0,0.0,0.0,0.0,0.0,0.0,0.0,0.0,0.0,0.0,0.0,-1.8074,-1.976,-2.0897,-2.1472,-2.1472,-2.1459,-2.1224,-2.0725,-2.0699,-2.0124,-1.896,0.0,0.0,0.0,0.0,0.0,0.0,0.0,0.0,0.0,0.0,0.0,0.0,0.0,0.0,0.0,0.0,0.0,0.0,0.0,0.0,0.0,0.0,0.0,0.0,0.0,0.0,-2.2114,-2.2194,-2.2222,0.0,0.0,0.0,0.0,0.0,0.0,0.0,0.0,0.0,0.0,-3.201,-3.3349,-3.2542,-3.2982,-3.3226,-3.2536,-3.2456,-3.2441,-3.2444,-3.2934,-3.307,0.0,0.0,0.0,0.0,0.0,0.0,0.0,0.0,0.0,0.0,0.0,0.0,0.0,0.0,0.0,0.0,0.0,0.0,0.0,0.0,0.0,0.0,0.0,0.0,0.0,0.0,0.0,-1.4231,-1.3879,0.0,0.0,0.0,0.0,0.0,0.0,0.0,0.0,0.0,0.0,0.0,-1.6895,-1.7325,0.0,0.0,0.0,0.0,0.0,0.0,0.0,0.0,0.0,0.0,0.0,0.0,-1.8672,-2.0334,-2.1119,-2.1472,-2.1472,-2.1472,-2.1237,-2.0725,-2.0699,-2.0137,-1.895,0.0,0.0,0.0,0.0,0.0,0.0,0.0,0.0,0.0,0.0,0.0,0.0,0.0,0.0,0.0,0.0,0.0,0.0,0.0,0.0,0.0,0.0,0.0,0.0,0.0,-2.2444,0.0,0.0,0.0,0.0,0.0,0.0,0.0,0.0,0.0,0.0,0.0,-3.0264,-3.058,-3.2406,-3.3531,-3.3126,-3.366,-3.4058,0.0,0.0,0.0,0.0,0.0,0.0,0.0,0.0,0.0,0.0,0.0,0.0,0.0,0.0,-3.2263,-2.9853,-2.9639,-2.9794,-2.9529,0.0,0.0,0.0,0.0,0.0,0.0,0.0,0.0,0.0,0.0,0.0,0.0,0.0,0.0,-1.5192,0.0,-1.4601,0.0,0.0,0.0,0.0,0.0,0.0,0.0,0.0,-1.7499,-1.791,-1.7818,-1.8248,-1.8329,0.0,-1.8375,-1.7929,0.0,0.0,0.0,0.0,0.0,0.0,0.0,0.0,-1.9154,-2.0706,-2.1264,-2.1603,-2.1786,-2.1616,-2.1237,-2.0725,-2.0699,-2.0321,-1.9538,-1.9316,-1.878,0.0,0.0,0.0,0.0,0.0,0.0,0.0,0.0,0.0,0.0,0.0,0.0,0.0,0.0,0.0,0.0,0.0,0.0,0.0,0.0,0.0,0.0,0.0,-2.3306,0.0,0.0,0.0,0.0,0.0,0.0,0.0,0.0,0.0,-2.903,-2.9923,-3.0686,-3.1209,-3.2729,-3.3712,-3.3525,0.0,0.0,0.0,0.0,0.0,0.0,0.0,-3.3985,-3.4204,-3.438,-3.4584,-3.4883,-3.4928,-3.4919,-3.4948,0.0,0.0,-3.1567,-3.1362,-3.1484,-3.1484,-3.2201,-3.2822,-3.2787,-3.2956,-3.3272,0.0,0.0,0.0,0.0,0.0,0.0,0.0,0.0,-1.5878,-1.562,0.0,-1.5356,0.0,0.0,0.0,0.0,0.0,-1.6355,0.0,0.0,-1.8621,-1.9088,-1.9067,-1.9077,-1.9088,-1.9131,-1.9694,-1.954,-1.8622,-1.7881,0.0,0.0,0.0,0.0,0.0,0.0,-1.9558,-2.0855,-2.1301,-2.1772,-2.2308,-2.1785,-2.1212,-2.07,-2.0687,-2.0674,-2.0648,-2.0113,-1.9527,-1.8914,-1.787,0.0,0.0,0.0,0.0,0.0,0.0,0.0,0.0,0.0,0.0,0.0,0.0,0.0,0.0,0.0,0.0,0.0,0.0,0.0,0.0,-2.3423,0.0,0.0,0.0,0.0,0.0,0.0,0.0,0.0,0.0,0.0,-2.9561,-3.0228,-3.0884,-3.1561,0.0,0.0,0.0,0.0,-3.4506,-3.4582,-3.4566,-3.4582,-3.4582,-3.509,-3.526,-3.4674,0.0,0.0,-3.512,-3.4651,-3.4448,-3.4754,-3.4434,-3.403,-3.4179,-3.4459,-3.4726,-3.4786,-3.4742,-3.4917,-3.4792,-3.4364,-3.4147,-1.6695,0.0,0.0,0.0,0.0,-1.7005,-1.6792,-1.6614,-1.7158,-1.686,-1.5983,-1.631,0.0,0.0,0.0,0.0,0.0,0.0,-1.743,-1.8185,-1.8464,-1.8787,-1.9098,-1.9098,-1.9098,-1.9098,-1.9297,-1.9347,-1.9265,-1.8528,-1.8113,-1.7978,0.0,0.0,0.0,0.0,-1.9779,-2.0903,-2.1462,-2.1793,-2.1943,-2.1434,-2.0832,-2.0207,-2.0511,-2.0549,-2.0232,-2.0368,-2.0041,-1.9158,-1.9061,0.0,0.0,0.0,0.0,0.0,0.0,0.0,0.0,0.0,0.0,0.0,0.0,0.0,0.0,0.0,0.0,0.0,0.0,0.0,-2.3041,-2.307,-2.3461,0.0,0.0,0.0,0.0,0.0,0.0,0.0,0.0,0.0,-3.0206,-3.0781,-3.1527,0.0,0.0,-3.3409,-3.4805,-3.4561,-3.4619,-3.5738,-3.5907,0.0,0.0,-3.5676,-3.5614,-3.5861,-3.6076,-3.6199,-3.609,-3.5815,-3.563,-3.5661,-3.5506,-3.5413,-3.5429,-3.4744,-3.4268,-3.4237,-3.4634,-3.5002,-3.5108,-3.5596,-3.6341,-1.6511,-1.6965,-1.6536,-1.6722,-1.731,-1.7092,-1.6855,-1.6643,-1.7084,-1.6821,-1.6088,-1.6405,-1.619,-1.5621,-1.5765,0.0,0.0,0.0,-1.7747,-1.8683,-1.8683,-1.8828,-1.9098,-1.9098,-1.9098,-1.9098,-1.9241,-1.9341,-1.9396,-1.9057,-1.8674,-1.8272,0.0,0.0,-1.88,-1.942,-2.0093,-2.081,-2.1233,-2.155,-2.1788,-2.1064,-2.0501,-2.011,-2.004,-1.9952,-1.9773,-1.9914,-1.9839,-1.9472,-1.933,-1.8984,0.0,0.0,0.0,0.0,0.0,0.0,0.0,0.0,0.0,0.0,0.0,-1.9133,-1.8806,0.0,0.0,0.0,-2.2036,-2.3133,-2.4068,-2.4161,0.0,0.0,0.0,0.0,0.0,0.0,0.0,-2.9941,-2.9869,-2.9958,-3.0565,-3.1092,-3.1714,-3.2513,-3.2803,-3.3346,-3.4545,0.0,-3.5078,-3.6024,-3.6367,-3.6492,-3.6492,-3.6153,-3.603,-3.643,-3.6492,-3.646,-3.6383,-3.6274,-3.6148,-3.6037,-3.5926,-3.5863,-3.5878,-3.5134,-3.459,-3.4713,-3.5124,-3.5476,-3.5413,-3.6091,-3.6845,-1.5865,-1.6586,-1.6209,-1.6309,-1.6704,-1.6345,-1.6176,-1.617,-1.6243,-1.6031,-1.5691,-1.5877,-1.5765,-1.5341,-1.5465,0.0,-1.7053,-1.7435,-1.8137,-1.9098,-1.9098,-1.9098,-1.9098,-1.9098,-1.9098,-1.9098,-1.9407,-1.9386,-1.9079,-1.9344,-1.9263,-1.8776,-1.8763,-1.8906,-1.9171,-1.9925,-2.0382,-2.0488,-2.0723,-2.109,-2.1569,-2.0702,-2.0181,-2.0083,-1.9392,-1.9115,-1.9263,-1.9054,-1.916,-1.9605,-1.893,-1.8508,-1.8385,0.0,0.0,0.0,0.0,0.0,0.0,0.0,0.0,0.0,0.0,0.0,0.0,0.0,0.0,0.0,-2.3459,0.0,-2.5754,-2.6056,0.0,0.0,0.0,-2.8077,-2.9383,-2.9667,-2.9764,-2.9887,0.0,0.0,-3.0764,-3.1186,-3.1556,-3.1556,-3.2605,-3.3402,-3.3526,-3.4633,-3.5527,-3.5623,-3.61,-3.6429,-3.6383,-3.6414,-3.6445,-3.6492,-3.6492,-3.646,-3.6274,-3.6242,-3.6163,-3.6053,-3.5863,-3.5752,-3.5752,-3.564,-3.5683,-3.5913,-3.6023,-3.6023,-3.5785,-3.5959,-3.6258,-1.5506,-1.5684,-1.5616,-1.6206,-1.7235,-1.7141,-1.6593,-1.5805,-1.6438,-1.6191,-1.5284,-1.5616,-1.5782,-1.5826,-1.5877,-1.6478,-1.7552,-1.762,-1.8194,-1.9065,-1.9098,-1.9098,-1.9098,-1.9098,-1.9098,-1.9098,-1.9164,-1.8988,-1.859,-1.8644,-1.8614,-1.8499,-1.848,-1.8603,-1.8769,-1.9324,-1.966,-1.9689,-2.0068,-2.0205,-1.9989,-2.0287,-1.9966,-1.901,-1.9088,-1.8869,-1.8302,-1.8483,-1.8536,-1.8375,-1.8445,-1.828,-1.784,-1.7158,0.0,0.0,0.0,0.0,0.0,0.0,0.0,0.0,0.0,-2.1655,-1.9906,0.0,-2.3326,0.0,-2.3694,-2.4766,-2.6353,-2.6136,0.0,0.0,-2.8491,-2.8802,-3.0444,-3.0256,-3.0207,-3.0677,-3.0891,-3.0972,-3.0926,-3.1044,-3.1123,-3.1161,-3.1666,-3.2519,-3.3856,-3.3719,-3.3939,-3.4894,-3.5544,-3.5879,-3.5926,-3.6258,-3.6492,-3.6492,-3.6492,-3.6492,-3.646,-3.6274,-3.6196,-3.6133,-3.6101,-3.6101,-3.6085,-3.6195,-3.621,-3.6148,-3.591,-3.5748,-3.591,-3.6321,-3.6769,-1.5389,-1.5389,-1.5389,-1.5842,-1.6509,-1.6517,-1.6031,-1.5333,-1.5787,-1.5559,-1.4835,-1.4904,-1.5081,-1.5304,-1.5212,-1.5787,-1.6908,-1.7418,-1.8017,-1.8751,-1.9225,-1.9305,-1.9098,-1.8891,-1.8797,-1.8787,-1.8568,-1.834,-1.8102,-1.8081,-1.8081,-1.8102,-1.8288,-1.8448,-1.8541,-1.9136,-1.9576,-1.9725,-1.9965,-1.9976,-1.9725,-1.9903,-1.9636,-1.8875,-1.8576,-1.8256,-1.7822,-1.776,-1.7804,-1.7968,-1.8088,-1.8081,-1.7935,-1.7524,-1.7182,0.0,0.0,0.0,0.0,0.0,0.0,0.0,0.0,0.0,0.0,0.0,-2.4059,-2.4696,-2.5275,-2.6317,-2.8038,-2.7894,-2.8338,-2.9876,-2.9745,-2.9951,-3.0882,-3.0699,-3.0634,-3.0947,-3.1024,-3.1024,-3.1024,-3.1024,-3.1024,-3.1024,-3.1198,-3.18,-3.3052,-3.3318,-3.3713,-3.4442,-3.5008,-3.5447,-3.5655,-3.6163,-3.6492,-3.6492,-3.6492,-3.6492,-3.6492,-3.6414,-3.6336,-3.6352,-3.6274,-3.6211,-3.6211,-3.6148,-3.6116,-3.61,-3.5797,-3.5683,-3.6005,-3.6414,-3.6784,-1.5455,-1.5447,-1.5403,-1.5389,-1.5389,-1.5389,-1.5206,-1.49,-1.49,-1.4765,-1.4489,-1.4203,-1.4201,-1.4467,-1.4276,-1.4817,-1.5995,-1.6954,-1.7713,-1.8365,-1.918,-1.9339,-1.8844,-1.8501,-1.8276,-1.8214,-1.7884,-1.7678,-1.7585,-1.7616,-1.7616,-1.7637,-1.8071,-1.8362,-1.8499,-1.9175,-1.9693,-1.9966,-1.9998,-2.0042,-2.0031,-1.9618,-1.9275,-1.8969,-1.8056,-1.7535,-1.7512,-1.708,-1.7164,-1.7894,-1.779,-1.7883,-1.8271,-1.7867,-1.7551,0.0,-1.7484,0.0,0.0,0.0,0.0,0.0,0.0,0.0,0.0,-2.3729,-2.4696,-2.6641,-2.7254,-2.8262,-2.985,-3.0064,-3.0372,-3.0908,-3.1024,-3.1024,-3.1024,-3.1024,-3.1024,-3.1024,-3.1024,-3.1024,-3.1024,-3.1024,-3.1024,-3.1024,-3.1099,-3.1421,-3.2005,-3.303,-3.3728,-3.3914,-3.4423,-3.4975,-3.5591,-3.61,-3.6383,-3.646,-3.6492,-3.6492,-3.6492,-3.6492,-3.6492,-3.6492,-3.6336,-3.6242,-3.6242,-3.6022,-3.5849,-3.5916,-3.5695,-3.5676,-3.6054,-3.6242,-3.6429,-1.5776,-1.5796,-1.5491,-1.5389,-1.5389,-1.5389,-1.5206,-1.49,-1.49,-1.4765,-1.4511,-1.4445,-1.4445,-1.4496,-1.4456,-1.5141,-1.6388,-1.6585,-1.7372,-1.8537,-1.8395,-1.811,-1.774,-1.7747,-1.7578,-1.7291,-1.7574,-1.7502,-1.7111,-1.7111,-1.7141,-1.7151,-1.7595,-1.8155,-1.8765,0.0,0.0,0.0,-1.9539,-1.9693,-1.9704,-1.9618,-1.919,-1.8416,-1.7913,0.0,-1.6704,-1.6842,-1.7019,-1.7206,-1.7545,0.0,0.0,0.0,0.0,0.0,0.0,0.0,0.0,0.0,0.0,0.0,-2.1338,-2.1888,-2.332,-2.5383,-2.6805,-2.7258,-2.7808,-2.8489,-2.9285,-2.9818,-3.0322,-3.0908,-3.0986,-3.1024,-3.1024,-3.1024,-3.1024,-3.1024,-3.1024,-3.1024,-3.1024,-3.1024,-3.1024,-3.1024,-3.1259,-3.1519,-3.1666,-3.22,-3.2618,-3.2938,-3.3776,-3.461,-3.5544,-3.5784,-3.6053,-3.6352,-3.6492,-3.6476,-3.6492,-3.6461,-3.6492,-3.6492,-3.646,-3.6414,-3.6399,-3.6398,-3.6106,-3.5677,-3.5508,-3.5646,-3.6089,-3.6006,-3.5975,-1.6052,0.0,-1.5738,-1.5535,0.0,-1.5389,-1.5294,-1.5148,-1.5141,-1.5053,-1.4933,-1.4772,-1.4787,-1.4926,-1.4604,-1.5047,-1.6006,-1.6348,-1.6979,-1.7859,-1.7944,-1.778,-1.7389,-1.7071,-1.6702,-1.6325,-1.6541,-1.6547,-1.6384,-1.6507,-1.6645,-1.6726,-1.7368,-1.7906,-1.8291,-1.8831,-1.9098,-1.9098,-1.9274,-1.933,-1.9341,-1.933,-1.907,-1.8531,0.0,0.0,0.0,0.0,0.0,0.0,0.0,0.0,0.0,0.0,0.0,-1.9158,-1.9673,-2.0172,-2.0729,-2.0945,-2.1252,-2.1605,-2.2237,-2.2958,-2.3839,-2.6043,-2.7462,-2.7776,-2.8085,-2.8647,-2.9505,-2.9618,-2.9972,-3.0859,-3.071,-3.0634,-3.0949,-3.1024,-3.1024,-3.1024,-3.1024,-3.1024,-3.1024,-3.1024,-3.1024,-3.1024,-3.1161,-3.131,-3.1384,-3.1946,-3.2525,-3.2931,-3.3604,-3.4274,-3.481,-3.5415,-3.5737,-3.6038,-3.6044,-3.6153,-3.6445,-3.6137,-3.5968,-3.6353,-3.6414,-3.6306,-3.6061,-3.5922,-3.5692,-3.5138,-3.4848,-3.4865,-3.5263,-3.5233,-3.5125,-1.6272,-1.5994,-1.5943,-1.5688,-1.5389,-1.5389,-1.5389,-1.5389,0.0,0.0,0.0,-1.5104,-1.5133,-1.5345,-1.4874,-1.5018,-1.5612,-1.6166,-1.6669,-1.7157,-1.7539,-1.7506,-1.7172,-1.6463,-1.5952,-1.5585,-1.5588,-1.5662,-1.5782,-1.6147,-1.6347,-1.6417,-1.7265,-1.774,-1.7895,-1.8578,-1.9015,-1.9098,-1.9098,-1.9142,-1.9164,-1.9142,-1.9012,-1.8818,-1.8531,-1.8301,-1.8131,-1.7936,-1.7978,-1.8353,-1.8427,-1.867,-1.906,-1.945,-1.9771,-2.0056,-2.07,-2.1145,-2.1238,-2.16,-2.1838,-2.1921,-2.3071,-2.3983,-2.4379,-2.61,-2.7423,-2.7968,-2.8143,-2.8605,-2.9574,-2.9367,-2.9523,-3.0558,-3.0279,-3.0241,-3.0735,-3.0949,-3.1024,-3.1024,-3.1024,-3.1024,-3.1024,-3.1024,-3.1024,-3.1024,-3.1024,-3.1024,-3.1198,-3.1886,-3.2525,-3.2945,-3.3213,-3.3542,-3.3815,-3.4196,-3.4942,-3.5063,-3.5047,-3.5294,-3.5753,-3.5477,-3.534,-3.5799,-3.5921,-3.563,-3.5309,-3.5095,-3.4789,-3.4341,-3.3995,-3.3801,-3.3991,-3.4121,-3.4169,-1.6639,-1.6287,-1.6023,-1.5731,-1.5389,-1.5389,-1.5389,-1.5389,-1.5389,-1.5389,-1.5389,-1.5338,-1.5345,-1.5382,-1.5287,-1.5527,-1.6018,-1.6101,-1.6594,0.0,-1.6793,-1.6529,-1.6442,-1.61,-1.5761,-1.5482,-1.5839,-1.6024,-1.6113,-1.6551,-1.6603,-1.6407,-1.7226,-1.7895,-1.8268,-1.8413,-1.8704,-1.9088,-1.9098,-1.9231,-1.9506,-1.9231,-1.9044,-1.8892,-1.8584,-1.8217,-1.7792,-1.8123,-1.8507,-1.8934,-1.9362,-1.9744,-2.0135,-2.0218,-2.0466,-2.0876,-2.1041,-2.1253,-2.1673,-2.1766,-2.1973,-2.2416,-2.3261,-2.4,-2.4475,-2.5822,-2.6796,-2.7319,-2.7851,-2.8259,-2.8486,-2.8819,-2.9121,-2.9406,-2.9755,-3.0037,-3.0152,-3.0583,-3.0911,-3.0898,-3.1024,-3.0973,-3.0949,-3.0986,-3.1024,-3.1024,-3.1024,-3.1136,-3.1384,-3.1629,-3.1873,-3.2096,-3.193,-3.1923,-3.2296,-3.1996,-3.2475,-3.3243,-3.3385,-3.3619,-3.438,-3.4243,-3.4197,-3.4379,-3.4501,-3.4394,-3.4227,-3.4182,-3.3923,-3.3404,-3.3221,-3.3142,-3.2686,-3.2691,-3.3077,-1.6821,-1.6374,-1.6221,-1.5877,-1.5389,-1.5389,-1.5389,-1.5389,-1.5389,-1.5389,-1.5389,-1.5389,-1.5389,-1.5389,-1.5389,-1.5506,-1.5714,-1.5722,-1.6162,-1.6927,-1.625,-1.6037,-1.6248,-1.5774,-1.5353,-1.5061,-1.5435,-1.5647,-1.5767,-1.6151,-1.6283,-1.6215,-1.7163,-1.7859,-1.8329,-1.8623,-1.8766,-1.8735,-1.8973,-1.9175,-1.9308,-1.9164,-1.9071,-1.9026,-1.8852,-1.8704,-1.8475,-1.8651,-1.9005,-1.9461,-1.9679,-2.0,-2.0354,-2.0622,-2.0897,-2.1104,-2.1315,-2.158,-2.1787,-2.2035,-2.2273,-2.249,-2.3344,-2.4027,-2.4463,-2.5705,-2.6569,-2.6787,-2.733,-2.7829,-2.8139,-2.8115,-2.8343,-2.9042,-2.9055,-2.9133,-2.9471,-2.9755,-2.9947,-2.9986,-3.0266,-3.0432,-3.0482,-3.0785,-3.1024,-3.1024,-3.1024,-3.1099,-3.1209,-3.0995,-3.1017,-3.1505,-3.12,-3.0951,-3.1144,-3.1229,-3.1434,-3.1979,-3.198,-3.2359,-3.3122,-3.3124,-3.3111,-3.3804,-3.3925,-3.3773,-3.353,-3.3454,-3.315,-3.2663,-3.2509,-3.2327,-3.2085,-3.2094,-3.2448,-1.6952,-1.6411,-1.6411,-1.6001,-1.5445,-1.5389,-1.5389,-1.5389,-1.5389,-1.5389,-1.5389,-1.5389,-1.5389,-1.5389,-1.5389,-1.5389,-1.5389,-1.5389,-1.5839,-1.6462,-1.5819,-1.5721,-1.6065,-1.5483,-1.5061,-1.4874,-1.5146,-1.5367,-1.5517,-1.5865,-1.6112,-1.6313,-1.6938,-1.752,-1.7986,-1.8488,-1.8621,-1.8405,-1.8856,-1.9005,-1.8775,-1.8775,-1.8816,-1.8942,-1.8932,-1.8994,-1.9088,-1.9098,-1.9357,-1.9896,-1.9948,-2.0162,-2.07,-2.1073,-2.1269,-2.1311,-2.16,-2.1807,-2.1828,-2.2232,-2.2542,-2.2656,-2.3412,-2.4075,-2.4513,-2.552,-2.6238,-2.6415,-2.6798,-2.7249,-2.7644,-2.7493,-2.7615,-2.8542,-2.8447,-2.8435,-2.8831,-2.9003,-2.9121,-2.916,-2.9535,-2.9793,-2.9883,-3.0241,-3.0558,-3.071,-3.0911,-3.0947,-3.0777,-3.0307,-3.023,-3.0343,-3.0225,-2.9935,-2.9976,-3.0058,-3.0331,-3.0538,-3.0493,-3.0905,-3.1654,-3.1575,-3.1716,-3.2721,-3.3006,-3.2871,-3.2658,-3.2654,-3.2443,-3.2034,-3.1987,-3.1999,-3.2012,-3.1996,-3.2094,-1.6952,-1.6455,-1.6411,-1.6001,-1.5411,-1.5389,-1.5389,-1.5389,-1.5389,-1.5389,-1.5389,-1.5389,-1.5389,-1.5389,-1.5389,-1.5389,-1.5389,-1.5389,-1.568,-1.6052,-1.5417,-1.5312,-1.5707,-1.5384,-1.5174,-1.5195,-1.5518,-1.5685,-1.5739,-1.6235,-1.659,-1.668,-1.6406,-1.6514,-1.6964,-1.7474,-1.7952,-1.8291,-1.8811,-1.8682,-1.7874,-1.7823,-1.805,-1.8465,-1.8486,-1.8673,-1.9129,-1.9098,-1.9502,-2.0265,-2.0369,-2.0762,-2.1538,-2.1676,-2.1735,-2.1735,-2.1776,-2.1807,-2.1849,-2.2242,-2.2687,-2.3111,-2.3639,-2.4064,-2.449,-2.4999,-2.5496,-2.5884,-2.629,-2.6663,-2.6693,-2.7003,-2.726,-2.7505,-2.7898,-2.8207,-2.8287,-2.8779,-2.9121,-2.9121,-2.9094,-2.9211,-2.9199,-2.9355,-2.9561,-3.0075,-3.0481,-3.0639,-3.0223,-2.9709,-2.9196,-2.8891,-2.8615,-2.8636,-2.8618,-2.8142,-2.8399,-2.8752,-2.8774,-2.9219,-2.9796,-3.0004,-3.0,-3.099,-3.1039,-3.1174,-3.1545,-3.1658,-3.1659,-3.1686,-3.1712,-3.1841,-3.1983,-3.1968,-3.2053,-1.6952,-1.6419,-1.6411,-1.6009,-1.5433,-1.5389,-1.5389,-1.5389,-1.5389,-1.5389,-1.5389,-1.5389,-1.5389,-1.5389,-1.5389,-1.5389,-1.5389,-1.5389,-1.5639,-1.6049,-1.5543,-1.5451,-1.5634,-1.5301,-1.5029,-1.49,-1.5248,-1.5417,-1.5532,-1.5885,-1.6166,-1.6224,-1.6308,-1.6486,-1.6735,-1.722,-1.747,-1.7417,-1.7949,-1.79,-1.7395,-1.7821,-1.8464,-1.9119,-1.8963,-1.9181,-1.9779,-1.9872,-2.0137,-2.0772,-2.0824,-2.1087,-2.1766,-2.1807,-2.1807,-2.1807,-2.1807,-2.1932,-2.2201,-2.2646,-2.3111,-2.3567,-2.4012,-2.4364,-2.4476,-2.4658,-2.4871,-2.5137,-2.5946,-2.661,-2.6828,-2.7108,-2.719,-2.7231,-2.7452,-2.7615,-2.7626,-2.7846,-2.7966,-2.8007,-2.8315,-2.8554,-2.8633,-2.8885,-2.916,-2.946,-2.9783,-2.9803,-2.9571,-2.9126,-2.8712,-2.8412,-2.8111,-2.7902,-2.7876,-2.7686,-2.7669,-2.7809,-2.7908,-2.8157,-2.8725,-2.8903,-2.9111,-2.9782,-2.9889,-3.0178,-3.0821,-3.094,-3.0999,-3.1278,-3.1539,-3.167,-3.1712,-3.1712,-3.1769,-1.6536,-1.6238,-1.6228,-1.5928,-1.5396,-1.5389,-1.5389,-1.5389,-1.5389,-1.5389,-1.5389,-1.5389,-1.5389,-1.5389,-1.5389,-1.5389,-1.5389,-1.5389,-1.559,-1.5842,-1.5486,-1.5406,-1.5459,-1.5201,-1.495,-1.4788,-1.5049,-1.5196,-1.5256,-1.5611,-1.5848,-1.5996,-1.6351,-1.6581,-1.6715,-1.722,-1.7318,-1.7145,-1.761,-1.7725,-1.7533,-1.8127,-1.8857,-1.9499,-1.9409,-1.9634,-2.0333,-2.0374,-2.0638,-2.1083,-2.1077,-2.1331,-2.1766,-2.1807,-2.1807,-2.1807,-2.1807,-2.2014,-2.247,-2.2925,-2.3391,-2.3846,-2.4249,-2.4507,-2.4507,-2.4507,-2.4583,-2.4786,-2.558,-2.629,-2.6592,-2.6891,-2.7015,-2.7015,-2.7097,-2.719,-2.7231,-2.719,-2.7231,-2.7219,-2.7655,-2.7938,-2.8018,-2.8435,-2.8819,-2.8861,-2.8908,-2.8949,-2.8908,-2.853,-2.8187,-2.8129,-2.7771,-2.7555,-2.7503,-2.7516,-2.7503,-2.7503,-2.757,-2.7723,-2.8137,-2.8189,-2.8436,-2.9048,-2.9142,-2.9487,-3.0117,-3.0343,-3.0688,-3.1248,-3.1467,-3.1482,-3.1524,-3.1496,-3.1568,-1.5397,-1.5741,-1.5871,-1.5717,-1.5396,-1.5389,-1.5389,-1.5389,-1.5389,-1.5389,-1.5389,-1.5389,-1.5389,-1.5389,-1.5389,-1.5389,-1.5389,-1.5389,-1.5431,-1.5443,-1.5149,-1.494,-1.4937,-1.4975,-1.498,-1.4904,-1.5036,-1.5174,-1.527,-1.5618,-1.5977,-1.6257,-1.6392,-1.6581,-1.6897,-1.7362,-1.7666,-1.7586,-1.81,-1.8458,-1.8483,-1.8634,-1.8913,-1.9188,-1.9544,-1.9965,-2.0374,-2.0405,-2.0659,-2.1104,-2.1108,-2.1352,-2.1745,-2.1807,-2.1807,-2.1807,-2.1828,-2.2025,-2.249,-2.2967,-2.3422,-2.3867,-2.4259,-2.4507,-2.4507,-2.4507,-2.4668,-2.5126,-2.52,-2.5327,-2.5454,-2.6124,-2.6528,-2.6622,-2.6921,-2.7149,-2.719,-2.719,-2.719,-2.719,-2.7272,-2.7342,-2.7301,-2.7817,-2.8167,-2.8231,-2.8278,-2.8287,-2.8173,-2.7883,-2.7661,-2.7569,-2.7509,-2.7503,-2.7503,-2.7503,-2.7503,-2.7503,-2.7503,-2.7536,-2.7523,-2.761,-2.7993,-2.8306,-2.8436,-2.8839,-2.9456,-3.0042,-3.0614,-3.1058,-3.1292,-3.1351,-3.1467,-3.1496,-3.1539,-1.5074,-1.4996,-1.514,-1.5126,-1.5056,-1.5259,-1.5389,-1.5389,-1.5389,-1.5389,-1.5389,-1.5389,-1.5389,-1.5389,-1.5389,-1.5389,-1.5389,-1.5389,-1.5389,-1.5374,-1.5265,-1.5097,-1.49,-1.4928,-1.4838,-1.473,-1.495,-1.536,-1.5864,-1.6034,-1.6324,-1.6641,-1.6713,-1.679,-1.693,-1.7099,-1.7212,-1.7249,-1.7756,-1.8017,-1.8128,-1.8685,-1.9081,-1.9182,-1.9854,-2.0534,-2.1253,-2.1311,-2.1393,-2.1549,-2.1559,-2.1621,-2.1787,-2.1807,-2.1807,-2.1838,-2.2087,-2.2449,-2.2915,-2.337,-2.3815,-2.425,-2.4394,-2.4507,-2.4507,-2.4497,-2.4583,-2.4711,-2.4743,-2.4743,-2.4903,-2.558,-2.6218,-2.6487,-2.6663,-2.688,-2.7108,-2.719,-2.719,-2.719,-2.719,-2.719,-2.7231,-2.7435,-2.7545,-2.7545,-2.7313,-2.7202,-2.7151,-2.7046,-2.6976,-2.7062,-2.7255,-2.7503,-2.7503,-2.7503,-2.7503,-2.7503,-2.7503,-2.7503,-2.749,-2.749,-2.7809,-2.7875,-2.7941,-2.8241,-2.8903,-2.9425,-3.0086,-3.0614,-3.0866,-3.119,-3.1424,-3.1438,-3.1467,-1.4508,-1.4269,-1.4578,-1.4612,-1.4476,-1.4723,-1.4923,-1.5055,-1.5082,-1.5173,-1.5389,-1.5389,-1.5389,-1.5389,-1.5389,-1.5389,-1.5389,-1.5389,-1.5389,-1.5389,-1.5389,-1.5272,-1.509,-1.5053,-1.4944,-1.4859,-1.5042,-1.5459,-1.5859,-1.6005,-1.63,-1.6668,-1.6668,-1.682,-1.702,-1.7046,-1.7132,-1.7317,-1.7607,-1.779,-1.7902,-1.8665,-1.913,-1.9238,-1.9862,-2.0643,-2.1471,-2.129,-2.1405,-2.1721,-2.1606,-2.1578,-2.1759,-2.1807,-2.1807,-2.1859,-2.2242,-2.2708,-2.3153,-2.3619,-2.4064,-2.4445,-2.4507,-2.4507,-2.4507,-2.4507,-2.4507,-2.4507,-2.4507,-2.4507,-2.4625,-2.5084,-2.5633,-2.603,-2.6238,-2.6498,-2.6921,-2.6962,-2.7015,-2.7149,-2.719,-2.719,-2.719,-2.719,-2.7139,-2.7013,-2.6562,-2.6256,-2.6265,-2.6178,-2.6255,-2.6427,-2.6871,-2.7121,-2.7222,-2.7289,-2.7469,-2.7503,-2.7503,-2.7503,-2.7503,-2.7503,-2.7503,-2.7503,-2.7623,-2.7908,-2.8306,-2.8839,-2.9393,-3.0011,-3.048,-3.0807,-3.1087,-3.1336,-3.1365,-1.3707,-1.3543,-1.4248,-1.4243,-1.3774,-1.3823,-1.4008,-1.4383,-1.4398,-1.4699,-1.509,-1.5305,-1.5305,-1.5347,-1.5389,-1.5389,-1.5389,-1.5389,-1.5389,-1.5389,-1.5389,-1.5389,-1.5345,-1.5338,-1.533,-1.5321,-1.5438,-1.5329,-1.5242,-1.5584,-1.5905,-1.6198,-1.6333,-1.6669,-1.7359,-1.7284,-1.7528,-1.7785,-1.7871,-1.7963,-1.8063,-1.8621,-1.8948,-1.8997,-1.9476,-2.011,-2.0789,-2.0304,-2.0527,-2.1443,-2.1175,-2.1185,-2.1645,-2.1769,-2.1818,-2.1921,-2.2273,-2.2729,-2.3194,-2.367,-2.4136,-2.4414,-2.4507,-2.4507,-2.4507,-2.4507,-2.4507,-2.4507,-2.4507,-2.4507,-2.4507,-2.4583,-2.4828,-2.5158,-2.5675,-2.6052,-2.6373,-2.6528,-2.6663,-2.7097,-2.719,-2.719,-2.719,-2.719,-2.707,-2.6639,-2.615,-2.5799,-2.5744,-2.5481,-2.5383,-2.5779,-2.6311,-2.6701,-2.6884,-2.7087,-2.7323,-2.7503,-2.7503,-2.7503,-2.7503,-2.7503,-2.7503,-2.7503,-2.7503,-2.7743,-2.796,-2.8454,-2.8776,-2.9331,-2.9827,-3.0269,-3.051,-3.0748,-3.1117,-1.3097,-1.3056,-1.3538,-1.3603,-1.3324,-1.3573,-1.3726,-1.3701,-1.3682,-1.3815,-1.4068,-1.4489,-1.4699,-1.4824,-1.5173,-1.5389,-1.5389,-1.5389,-1.5389,-1.5389,-1.5389,-1.5389,-1.5389,-1.5389,-1.5389,-1.5423,-1.5411,-1.5546,-1.5734,-1.588,-1.6168,-1.6474,-1.6523,-1.666,-1.6886,-1.6943,-1.7147,-1.7514,-1.7595,-1.7716,-1.7951,-1.8201,-1.8322,-1.8362,-1.8505,-1.8904,-1.9548,-1.9795,-2.0099,-2.0537,-2.0333,-2.0498,-2.1098,-2.1568,-2.1963,-2.2283,-2.2718,-2.3174,-2.3629,-2.4064,-2.4332,-2.4476,-2.4507,-2.4507,-2.4507,-2.4507,-2.4507,-2.4507,-2.4507,-2.4507,-2.4507,-2.4507,-2.4711,-2.5158,-2.5338,-2.5591,-2.6052,-2.6321,-2.6704,-2.7097,-2.719,-2.719,-2.719,-2.719,-2.7013,-2.6536,-2.6003,-2.5635,-2.5243,-2.5084,-2.5028,-2.5288,-2.5779,-2.6242,-2.6461,-2.6714,-2.6985,-2.7289,-2.7436,-2.7503,-2.7503,-2.7503,-2.7503,-2.7503,-2.7503,-2.7556,-2.7776,-2.7993,-2.8306,-2.8551,-2.8998,-2.9362,-2.9735,-3.0117,-3.048,-1.2807,-1.2845,-1.307,-1.2995,-1.278,-1.2995,-1.308,-1.304,-1.3009,-1.3179,-1.3483,-1.3851,-1.4019,-1.4153,-1.4748,-1.4999,-1.5041,-1.5257,-1.5389,-1.5389,-1.5389,-1.5389,-1.5389,-1.5389,-1.5389,-1.5389,-1.5389,-1.5555,-1.5805,-1.5846,-1.5963,-1.6162,-1.6203,-1.6319,-1.6451,-1.6492,-1.6779,-1.731,-1.7392,-1.7595,-1.7919,-1.7991,-1.7991,-1.7991,-1.7991,-1.8193,-1.8643,-1.9015,-1.9432,-1.9777,-1.9894,-2.0099,-2.0547,-2.1015,-2.1557,-2.2117,-2.2696,-2.3278,-2.3846,-2.426,-2.4507,-2.4507,-2.4507,-2.4507,-2.4507,-2.4507,-2.4507,-2.4507,-2.4507,-2.4507,-2.4507,-2.4507,-2.4668,-2.4903,-2.4956,-2.5253,-2.5759,-2.6249,-2.6704,-2.7056,-2.719,-2.719,-2.719,-2.7179,-2.6909,-2.6335,-2.5922,-2.5394,-2.4929,-2.4664,-2.4693,-2.4838,-2.5229,-2.5616,-2.5965,-2.6289,-2.6611,-2.6985,-2.7323,-2.7436,-2.7503,-2.7503,-2.7503,-2.7503,-2.7503,-2.7503,-2.7656,-2.761,-2.7796,-2.8026,-2.8306,-2.8757,-2.9188,-2.9504,-2.9844,-1.2807,-1.2807,-1.2807,-1.2569,-1.2167,-1.2164,-1.2249,-1.2324,-1.232,-1.2619,-1.3094,-1.3264,-1.3349,-1.3476,-1.4068,-1.4356,-1.444,-1.4831,-1.5173,-1.5215,-1.5257,-1.5298,-1.5389,-1.5389,-1.5389,-1.5389,-1.5389,-1.5431,-1.5472,-1.5472,-1.5389,-1.5514,-1.5555,-1.5639,-1.6004,-1.6053,-1.6451,-1.7115,-1.727,-1.7514,-1.791,-1.7991,-1.7991,-1.7991,-1.7991,-1.8031,-1.8112,-1.8244,-1.8709,-1.9599,-1.9745,-1.988,-1.9997,-2.0309,-2.0968,-2.1579,-2.232,-2.298,-2.3655,-2.3961,-2.4239,-2.4325,-2.4325,-2.4497,-2.4497,-2.4507,-2.4507,-2.4507,-2.4507,-2.4507,-2.4507,-2.4507,-2.454,-2.4507,-2.4583,-2.4967,-2.5728,-2.6166,-2.658,-2.6974,-2.7149,-2.719,-2.719,-2.719,-2.6709,-2.6071,-2.5739,-2.5279,-2.4579,-2.4344,-2.4248,-2.4467,-2.4778,-2.5087,-2.5476,-2.5687,-2.6035,-2.6543,-2.6985,-2.7255,-2.7469,-2.7503,-2.7503,-2.7503,-2.7503,-2.7503,-2.7503,-2.749,-2.749,-2.7689,-2.8006,-2.832,-2.8597,-2.8826,-2.9129,-1.2807,-1.2807,-1.2807,-1.2537,-1.2121,-1.2089,-1.1914,-1.1635,-1.1607,-1.1774,-1.1952,-1.2412,-1.2662,-1.2747,-1.3343,-1.3639,-1.373,-1.3899,-1.4237,-1.4615,-1.465,-1.4999,-1.5305,-1.5389,-1.5389,-1.5389,-1.5389,-1.5389,-1.5389,-1.5389,-1.5389,-1.5389,-1.5431,-1.5431,-1.5597,-1.5597,-1.588,-1.6417,-1.6771,-1.7106,-1.7514,-1.7838,-1.7991,-1.7991,-1.8,-1.8,-1.8025,-1.8305,-1.837,-1.8509,-1.9223,-1.9593,-1.9679,-2.0415,-2.1042,-2.1507,-2.183,-2.2231,-2.2708,-2.295,-2.3202,-2.3711,-2.3764,-2.398,-2.4454,-2.4497,-2.4497,-2.4507,-2.4507,-2.4507,-2.4507,-2.4507,-2.4507,-2.4507,-2.4507,-2.4754,-2.5338,-2.5759,-2.6218,-2.6622,-2.6974,-2.7097,-2.7149,-2.7133,-2.68,-2.6037,-2.5658,-2.5356,-2.4613,-2.4189,-2.4189,-2.4189,-2.4431,-2.4671,-2.4909,-2.5111,-2.5464,-2.6013,-2.653,-2.7053,-2.7289,-2.7503,-2.7503,-2.7503,-2.7503,-2.7503,-2.7503,-2.749,-2.7503,-2.7503,-2.7623,-2.7941,-2.7822,-2.796,-2.8306,-1.2807,-1.2807,-1.2807,-1.2597,-1.2251,-1.2143,-1.1838,-1.1482,-1.1348,-1.1311,-1.1392,-1.1731,-1.194,-1.2026,-1.2662,-1.296,-1.3009,-1.327,-1.3815,-1.4398,-1.4734,-1.5082,-1.5347,-1.5389,-1.5389,-1.5389,-1.5389,-1.5389,-1.5389,-1.5389,-1.5389,-1.5389,-1.5389,-1.5389,-1.5431,-1.5431,-1.5631,-1.6046,-1.6327,-1.6656,-1.7106,-1.7505,-1.7716,-1.7797,-1.7887,-1.8042,-1.828,-1.8631,-1.8656,-1.8525,-1.8979,-1.9364,-1.9441,-2.0083,-2.0741,-2.1262,-2.1454,-2.1808,-2.2284,-2.2394,-2.258,-2.295,-2.3047,-2.3222,-2.357,-2.3884,-2.4067,-2.4067,-2.4335,-2.4464,-2.4507,-2.4507,-2.4507,-2.4507,-2.4507,-2.47,-2.5158,-2.5454,-2.5801,-2.6207,-2.6633,-2.6921,-2.6921,-2.7067,-2.6789,-2.6244,-2.583,-2.5325,-2.4705,-2.4418,-2.4189,-2.4189,-2.4189,-2.4431,-2.4527,-2.4671,-2.4969,-2.5546,-2.6,-2.6564,-2.7053,-2.7356,-2.7456,-2.7456,-2.7503,-2.7503,-2.7503,-2.7503,-2.7503,-2.7503,-2.7503,-2.7503,-2.7503,-2.7503,-2.7776,-1.2807,-1.2807,-1.2807,-1.263,-1.2388,-1.2224,-1.1946,-1.1682,-1.1445,-1.1343,-1.1316,-1.1311,-1.1397,-1.1348,-1.2026,-1.2283,-1.2326,-1.2753,-1.3434,-1.4026,-1.4622,-1.5006,-1.5173,-1.5347,-1.5389,-1.5389,-1.5389,-1.5389,-1.5389,-1.5389,-1.5389,-1.5389,-1.5389,-1.5389,-1.5389,-1.5396,-1.5653,-1.6005,-1.6194,-1.6464,-1.687,-1.73,-1.7606,-1.7763,-1.8133,-1.8367,-1.8682,-1.899,-1.9067,-1.8733,-1.905,-1.9299,-1.9368,-1.959,-2.0087,-2.0686,-2.1095,-2.1445,-2.1952,-2.1961,-2.2183,-2.2271,-2.2315,-2.235,-2.2624,-2.3081,-2.3406,-2.3353,-2.3927,-2.41,-2.4282,-2.4368,-2.4411,-2.4454,-2.4507,-2.4711,-2.4999,-2.5158,-2.5369,-2.577,-2.6177,-2.6415,-2.6528,-2.6753,-2.6943,-2.6143,-2.5812,-2.5417,-2.4855,-2.4453,-2.4269,-2.4189,-2.4189,-2.4189,-2.4225,-2.4261,-2.4635,-2.5052,-2.5476,-2.6,-2.6735,-2.7087,-2.7323,-2.7456,-2.7503,-2.7503,-2.7503,-2.7503,-2.7503,-2.7503,-2.7503,-2.7503,-2.7503,-2.7503,-2.7656,-1.2807,-1.2807,-1.2807,-1.263,-1.2425,-1.235,-1.2097,-1.1715,-1.165,-1.1537,-1.1348,-1.1321,-1.1332,-1.1321,-1.1548,-1.1521,-1.1624,-1.1871,-1.2155,-1.2833,-1.3512,-1.4153,-1.4622,-1.5104,-1.5396,-1.5396,-1.5389,-1.5389,-1.5389,-1.5389,-1.5389,-1.5389,-1.5389,-1.5396,-1.5445,-1.5482,-1.557,-1.5972,-1.6279,-1.6606,-1.6911,-1.7321,-1.7742,-1.8125,-1.8625,-1.8905,-1.9093,-1.9418,-1.952,-1.9486,-1.9555,-1.9624,-1.9684,-1.9949,-2.021,-2.0371,-2.0513,-2.0645,-2.0736,-2.0907,-2.1042,-2.157,-2.1606,-2.1828,-2.235,-2.2492,-2.2633,-2.2668,-2.2799,-2.3212,-2.3624,-2.3721,-2.3894,-2.4196,-2.4411,-2.4497,-2.4668,-2.4988,-2.52,-2.5411,-2.5717,-2.6021,-2.6063,-2.6373,-2.6386,-2.5988,-2.5735,-2.5444,-2.5001,-2.4542,-2.4349,-2.4246,-2.4189,-2.4189,-2.4189,-2.4225,-2.4394,-2.4671,-2.4981,-2.5406,-2.6139,-2.6633,-2.6803,-2.7121,-2.7503,-2.7503,-2.7503,-2.7503,-2.7503,-2.7503,-2.7503,-2.7503,-2.7503,-2.7503,-2.7503,-1.2565,-1.2807,-1.2807,-1.2737,-1.2571,-1.2457,-1.2269,-1.2043,-1.1908,-1.1795,-1.1698,-1.1677,-1.1677,-1.1666,-1.1564,-1.1515,-1.157,-1.1732,-1.2026,-1.2534,-1.3094,-1.3632,-1.4127,-1.4802,-1.5212,-1.5391,-1.5389,-1.5389,-1.5389,-1.5403,-1.5389,-1.5389,-1.5389,-1.554,-1.5593,-1.5608,-1.5833,-1.611,-1.6343,-1.6614,-1.6785,-1.7131,-1.7735,-1.8341,-1.8839,-1.9174,-1.9426,-1.9759,-1.9922,-1.9956,-1.9992,-1.9992,-2.0009,-2.0172,-2.0275,-2.0292,-2.0292,-2.0292,-2.0292,-2.0337,-2.051,-2.0871,-2.0871,-2.1087,-2.1436,-2.1695,-2.1926,-2.2006,-2.2227,-2.2633,-2.295,-2.2994,-2.3256,-2.3484,-2.3841,-2.4024,-2.41,-2.4529,-2.4871,-2.4956,-2.5285,-2.5506,-2.5706,-2.5957,-2.6133,-2.5905,-2.5829,-2.5531,-2.5149,-2.4683,-2.4462,-2.4326,-2.4235,-2.4189,-2.4189,-2.4225,-2.4261,-2.4394,-2.4539,-2.4921,-2.5441,-2.5826,-2.6151,-2.6667,-2.7255,-2.7469,-2.7503,-2.7503,-2.7503,-2.7503,-2.7503,-2.7503,-2.7503,-2.7503,-2.7503,-1.2175,-1.2667,-1.2662,-1.271,-1.278,-1.2554,-1.2441,-1.2366,-1.224,-1.211,-1.2083,-1.2089,-1.2019,-1.2029,-1.1833,-1.1758,-1.1832,-1.2075,-1.2264,-1.2394,-1.2786,-1.3231,-1.3699,-1.4368,-1.4995,-1.5331,-1.5558,-1.5586,-1.5513,-1.5462,-1.5469,-1.5411,-1.5389,-1.5542,-1.5783,-1.5885,-1.6074,-1.6433,-1.6536,-1.6603,-1.6669,-1.6996,-1.7575,-1.8382,-1.9076,-1.9457,-1.9783,-2.0086,-2.0266,-2.0292,-2.0292,-2.0292,-2.0292,-2.0292,-2.0292,-2.0292,-2.0292,-2.0292,-2.0292,-2.0292,-2.0337,-2.0292,-2.0337,-2.0337,-2.051,-2.0862,-2.1132,-2.1347,-2.1615,-2.2006,-2.2227,-2.2227,-2.2315,-2.2536,-2.3038,-2.3319,-2.359,-2.4013,-2.4272,-2.4583,-2.4828,-2.5041,-2.5253,-2.5454,-2.5633,-2.5788,-2.5724,-2.5552,-2.5128,-2.475,-2.4367,-2.4155,-2.4004,-2.4116,-2.4152,-2.4189,-2.4261,-2.4261,-2.4298,-2.4539,-2.4874,-2.5264,-2.5721,-2.6508,-2.6985,-2.7222,-2.7436,-2.7503,-2.7503,-2.7503,-2.7503,-2.7503,-2.7503,-2.7503,-2.7503,-1.1634,-1.2122,-1.2127,-1.237,-1.2759,-1.2764,-1.2592,-1.2425,-1.2377,-1.2237,-1.2127,-1.21,-1.2132,-1.21,-1.2073,-1.2035,-1.2037,-1.213,-1.2181,-1.2141,-1.2406,-1.2648,-1.3276,-1.3969,-1.4601,-1.529,-1.5797,-1.6009,-1.5834,-1.5826,-1.5731,-1.5511,-1.5447,-1.5615,-1.5906,-1.5957,-1.6279,-1.6749,-1.6822,-1.6872,-1.7026,-1.7208,-1.7629,-1.8579,-1.9319,-1.9859,-2.0082,-2.024,-2.0292,-2.0292,-2.0292,-2.0292,-2.0292,-2.0292,-2.0292,-2.0292,-2.0292,-2.0292,-2.0292,-2.0292,-2.0292,-2.0292,-2.0292,-2.0292,-2.0337,-2.0428,-2.06,-2.06,-2.069,-2.0961,-2.149,-2.1579,-2.1828,-2.2173,-2.2492,-2.2765,-2.3266,-2.3624,-2.3927,-2.4282,-2.4487,-2.47,-2.4871,-2.5041,-2.5211,-2.5358,-2.5391,-2.5084,-2.4616,-2.4282,-2.3944,-2.3798,-2.3689,-2.3897,-2.4116,-2.4152,-2.4225,-2.4225,-2.4225,-2.4225,-2.4575,-2.4838,-2.537,-2.6035,-2.6598,-2.6918,-2.7121,-2.7356,-2.7469,-2.7469,-2.7469,-2.7503,-2.7503,-2.7503,-2.7503,-1.1096,-1.159,-1.1878,-1.2122,-1.2419,-1.2716,-1.2748,-1.2603,-1.2592,-1.2533,-1.2494,-1.2462,-1.2462,-1.2435,-1.2321,-1.2224,-1.2127,-1.2089,-1.2089,-1.2089,-1.214,-1.2314,-1.2864,-1.3522,-1.4352,-1.5153,-1.5876,-1.631,-1.6191,-1.6155,-1.6045,-1.5979,-1.5913,-1.6082,-1.633,-1.644,-1.6652,-1.7057,-1.7106,-1.7165,-1.7264,-1.7286,-1.7753,-1.8411,-1.915,-1.9608,-1.9965,-2.0192,-2.0283,-2.0292,-2.0292,-2.0292,-2.0292,-2.0292,-2.0292,-2.0292,-2.0292,-2.0292,-2.0292,-2.0292,-2.0292,-2.0292,-2.0292,-2.0292,-2.0292,-2.0292,-2.0292,-2.0292,-2.0292,-2.0428,-2.0826,-2.0862,-2.0988,-2.1248,-2.1606,-2.2059,-2.2467,-2.3047,-2.3527,-2.397,-2.4315,-2.4497,-2.4583,-2.47,-2.4786,-2.4893,-2.5008,-2.4662,-2.4215,-2.3946,-2.3721,-2.3462,-2.3409,-2.3751,-2.4007,-2.4116,-2.4116,-2.4116,-2.4189,-2.4189,-2.4261,-2.4539,-2.4909,-2.5476,-2.5965,-2.6358,-2.6782,-2.6985,-2.7188,-2.7436,-2.7469,-2.7503,-2.7503,-2.7503,-2.7503,-1.056,-1.1047,-1.1487,-1.1736,-1.1932,-1.2424,-1.2613,-1.2662,-1.2754,-1.2791,-1.2807,-1.2797,-1.2786,-1.2711,-1.2565,-1.2377,-1.224,-1.2256,-1.2272,-1.2283,-1.2289,-1.237,-1.2667,-1.3443,-1.4393,-1.5113,-1.6148,-1.6419,-1.6482,-1.6514,-1.647,-1.6353,-1.6382,-1.6573,-1.6793,-1.6793,-1.7055,-1.7238,-1.7286,-1.7286,-1.7286,-1.7419,-1.7652,-1.8087,-1.8542,-1.9104,-1.9646,-1.992,-2.0201,-2.0246,-2.0292,-2.0292,-2.0292,-2.0292,-2.0292,-2.0292,-2.0292,-2.0292,-2.0292,-2.0292,-2.0292,-2.0292,-2.0292,-2.0292,-2.0292,-2.0292,-2.0292,-2.0292,-2.0292,-2.0292,-2.0419,-2.0337,-2.0329,-2.0464,-2.0862,-2.1311,-2.1713,-2.2246,-2.2828,-2.3353,-2.3927,-2.4282,-2.4368,-2.454,-2.4668,-2.4658,-2.4777,-2.4524,-2.412,-2.3911,-2.362,-2.3275,-2.3224,-2.3567,-2.3824,-2.4043,-2.4007,-2.3934,-2.408,-2.4189,-2.4189,-2.4261,-2.4647,-2.4993,-2.5135,-2.5523,-2.6082,-2.6645,-2.6918,-2.7167,-2.7369,-2.7503,-2.7503,-2.7503,-2.7503,-1.0019,-1.0511,-1.056,-1.085,-1.1345,-1.1883,-1.2078,-1.2127,-1.2521,-1.2807,-1.271,-1.2759,-1.2759,-1.2791,-1.278,-1.2732,-1.2705,-1.2662,-1.2635,-1.2629,-1.2645,-1.2667,-1.2941,-1.4298,-1.4553,-1.5099,-1.6285,-1.6943,-1.6819,-1.6746,-1.6705,-1.6499,-1.6506,-1.6595,-1.6939,-1.6976,-1.7071,-1.7274,-1.7286,-1.7286,-1.738,-1.7707,-1.7893,-1.8133,-1.8504,-1.8958,-1.9363,-1.9592,-1.9783,-2.0155,-2.0246,-2.0292,-2.0292,-2.0292,-2.0292,-2.0292,-2.0292,-2.0292,-2.0292,-2.0292,-2.0292,-2.0292,-2.0292,-2.0292,-2.0292,-2.0292,-2.0292,-2.0292,-2.0292,-2.0292,-2.0292,-2.0292,-2.0292,-2.0292,-2.0464,-2.0862,-2.1266,-2.1668,-2.2246,-2.2643,-2.3169,-2.3787,-2.4143,-2.4325,-2.4507,-2.454,-2.4478,-2.4272,-2.396,-2.3675,-2.3377,-2.2977,-2.2889,-2.3235,-2.3567,-2.3813,-2.3897,-2.3751,-2.397,-2.42,-2.4189,-2.4189,-2.4189,-2.4467,-2.4575,-2.4862,-2.5488,-2.6047,-2.6543,-2.6884,-2.7121,-2.7323,-2.7503,-2.7503,-2.7503,-0.9723,-0.9969,-1.0265,-1.0511,-1.0806,-1.134,-1.1541,-1.159,-1.178,-1.2078,-1.2322,-1.2322,-1.2521,-1.2716,-1.2807,-1.2807,-1.2807,-1.2807,-1.2807,-1.2807,-1.2807,-1.2807,-1.2899,-1.348,-1.3908,-1.4717,-1.5466,-1.6156,-1.6432,-1.6914,-1.7026,-1.6923,-1.6901,-1.6982,-1.7084,-1.7121,-1.7194,-1.725,-1.7286,-1.7286,-1.738,-1.752,-1.766,-1.766,-1.8125,-1.8496,-1.8773,-1.905,-1.9188,-1.9517,-1.9691,-1.9874,-1.9965,-2.0102,-2.0292,-2.0292,-2.0292,-2.0292,-2.0292,-2.0292,-2.0292,-2.0292,-2.0292,-2.0292,-2.0292,-2.0292,-2.0292,-2.0292,-2.0292,-2.0292,-2.0292,-2.0292,-2.0292,-2.0292,-2.0292,-2.0419,-2.0817,-2.1266,-2.1713,-2.2059,-2.2413,-2.2984,-2.356,-2.396,-2.4186,-2.4368,-2.4349,-2.4228,-2.3743,-2.3264,-2.2927,-2.2562,-2.2639,-2.2863,-2.3187,-2.3482,-2.3666,-2.3666,-2.397,-2.4127,-2.4189,-2.4189,-2.4189,-2.4189,-2.4334,-2.4647,-2.5028,-2.5418,-2.5873,-2.6393,-2.6884,-2.7087,-2.7255,-2.7503,-2.7503,-0.9624,-0.9628,-1.0068,-1.0216,-1.0265,-1.0752,-1.1002,-1.0998,-1.1198,-1.1438,-1.1785,-1.198,-1.2273,-1.2565,-1.271,-1.2807,-1.2807,-1.2807,-1.2807,-1.2807,-1.2807,-1.2807,-1.2905,-1.305,-1.3474,-1.3902,-1.4908,-1.5602,-1.6224,-1.6687,-1.7008,-1.7286,-1.7184,-1.7282,-1.7311,-1.7257,-1.7264,-1.7271,-1.7286,-1.7286,-1.7333,-1.7333,-1.7333,-1.7426,-1.7652,-1.7939,-1.8133,-1.8411,-1.8643,-1.9188,-1.9463,-1.9691,-1.9874,-2.0155,-2.0292,-2.0292,-2.0292,-2.0292,-2.0292,-2.0292,-2.0292,-2.0292,-2.0292,-2.0292,-2.0292,-2.0292,-2.0292,-2.0292,-2.0292,-2.0292,-2.0292,-2.0292,-2.0292,-2.0292,-2.0292,-2.0292,-2.0382,-2.0781,-2.1042,-2.1266,-2.1615,-2.2006,-2.2624,-2.3377,-2.382,-2.4143,-2.418,-2.4142,-2.3732,-2.3184,-2.2837,-2.2608,-2.269,-2.2767,-2.2649,-2.2975,-2.3198,-2.3519,-2.3824,-2.4007,-2.4007,-2.4116,-2.4189,-2.4189,-2.4189,-2.4334,-2.4611,-2.4921,-2.5229,-2.5721,-2.6208,-2.6714,-2.7019,-2.7255,-2.7469,-0.9624,-0.9624,-0.9677,-0.9673,-0.9723,-1.022,-1.0462,-1.0507,-1.0953,-1.1145,-1.1292,-1.1731,-1.1975,-1.2175,-1.2516,-1.271,-1.2807,-1.2807,-1.2807,-1.2807,-1.2807,-1.2807,-1.2905,-1.3286,-1.3667,-1.3908,-1.4526,-1.5337,-1.6048,-1.6237,-1.6709,-1.7185,-1.7232,-1.7286,-1.7286,-1.7286,-1.7286,-1.7286,-1.7286,-1.7286,-1.7286,-1.7286,-1.7286,-1.7286,-1.738,-1.7567,-1.804,-1.8125,-1.8404,-1.9134,-1.9271,-1.96,-1.9783,-2.0065,-2.0155,-2.0292,-2.0292,-2.0292,-2.0292,-2.0292,-2.0292,-2.0292,-2.0292,-2.0292,-2.0292,-2.0292,-2.0292,-2.0292,-2.0292,-2.0292,-2.0292,-2.0292,-2.0292,-2.0292,-2.0292,-2.0292,-2.0292,-2.0337,-2.0555,-2.0555,-2.0862,-2.1302,-2.1516,-2.2183,-2.3028,-2.3387,-2.3854,-2.3819,-2.3958,-2.3536,-2.3143,-2.2947,-2.2952,-2.2759,-2.214,-2.2401,-2.2956,-2.3141,-2.3298,-2.3556,-2.3703,-2.3861,-2.4043,-2.4189,-2.4189,-2.4189,-2.4225,-2.4575,-2.4874,-2.5123,-2.5511,-2.607,-2.6633,-2.6985,-2.7222,-0.9624,-0.9624,-0.9624,-0.9624,-0.9628,-0.9821,-0.992,-0.992,-1.0117,-1.0408,-1.0752,-1.1247,-1.1683,-1.198,-1.2175,-1.2516,-1.2764,-1.2807,-1.2807,-1.2807,-1.2807,-1.2807,-1.2953,-1.305,-1.319,-1.3431,-1.4004,-1.443,-1.4717,-1.5568,-1.6237,-1.6662,-1.7044,-1.7286,-1.7286,-1.7286,-1.7286,-1.7286,-1.7286,-1.7286,-1.7286,-1.7286,-1.7286,-1.7286,-1.7286,-1.738,-1.7567,-1.7613,-1.7839,-1.8218,-1.8542,-1.9004,-1.9463,-1.9737,-2.0011,-2.0246,-2.0246,-2.0292,-2.0292,-2.0292,-2.0292,-2.0292,-2.0292,-2.0292,-2.0292,-2.0292,-2.0292,-2.0292,-2.0292,-2.0292,-2.0292,-2.0292,-2.0292,-2.0292,-2.0292,-2.0292,-2.0292,-2.0292,-2.0292,-2.0419,-2.0464,-2.0682,-2.0772,-2.0952,-2.1837,-2.2589,-2.3096,-2.3557,-2.3724,-2.3825,-2.3443,-2.3215,-2.3228,-2.3014,-2.2442,-2.2587,-2.2885,-2.2929,-2.2961,-2.3233,-2.3538,-2.3604,-2.3787,-2.4007,-2.4164,-2.4127,-2.4189,-2.4358,-2.4599,-2.4874,-2.5158,-2.5499,-2.607,-2.6633,-2.6837,-0.9624,-0.9624,-0.9624,-0.9624,-0.9624,-0.9624,-0.9624,-0.9624,-0.9624,-0.9776,-1.0216,-1.0703,-1.1145,-1.1541,-1.1932,-1.2175,-1.2516,-1.2662,-1.2759,-1.2807,-1.2807,-1.2807,-1.2807,-1.2807,-1.2905,-1.2905,-1.3238,-1.3667,-1.4094,-1.5045,-1.5717,-1.6237,-1.6662,-1.6951,-1.7286,-1.7286,-1.7286,-1.7286,-1.7286,-1.7286,-1.7286,-1.7286,-1.7286,-1.7286,-1.7286,-1.7333,-1.738,-1.738,-1.752,-1.7753,-1.8032,-1.8365,-1.8819,-1.9271,-1.9737,-2.0019,-2.0201,-2.0292,-2.0292,-2.0292,-2.0292,-2.0292,-2.0292,-2.0292,-2.0292,-2.0292,-2.0292,-2.0292,-2.0292,-2.0292,-2.0292,-2.0292,-2.0292,-2.0292,-2.0292,-2.0292,-2.0292,-2.0292,-2.0292,-2.0337,-2.0374,-2.0374,-2.0419,-2.06,-2.1132,-2.1971,-2.257,-2.312,-2.3617,-2.3703,-2.3668,-2.3526,-2.3504,-2.3192,-2.283,-2.2985,-2.3068,-2.3115,-2.3161,-2.3243,-2.3454,-2.3526,-2.3523,-2.3556,-2.3714,-2.3945,-2.4102,-2.4187,-2.4418,-2.4671,-2.4992,-2.5337,-2.5499,-2.6035,-2.6311,-0.9624,-0.9624,-0.9624,-0.9624,-0.9624,-0.9624,-0.9624,-0.9624,-0.9624,-0.9628,-0.9772,-1.0216,-1.0458,-1.0752,-1.1443,-1.1883,-1.2175,-1.2521,-1.2764,-1.2759,-1.2807,-1.2807,-1.2807,-1.2807,-1.2807,-1.2807,-1.3001,-1.3335,-1.3806,-1.4184,-1.4902,-1.5717,-1.6183,-1.6709,-1.7239,-1.7286,-1.7286,-1.7286,-1.7286,-1.7286,-1.7286,-1.7286,-1.7286,-1.7286,-1.7286,-1.7286,-1.7286,-1.7286,-1.7473,-1.7753,-1.7854,-1.8179,-1.8689,-1.9188,-1.9554,-1.9691,-2.011,-2.0292,-2.0292,-2.0292,-2.0292,-2.0292,-2.0292,-2.0292,-2.0292,-2.0292,-2.0292,-2.0292,-2.0292,-2.0292,-2.0292,-2.0292,-2.0292,-2.0292,-2.0292,-2.0292,-2.0292,-2.0292,-2.0292,-2.0292,-2.0292,-2.0292,-2.0292,-2.0419,-2.0736,-2.1347,-2.2006,-2.2629,-2.3298,-2.3617,-2.3616,-2.3853,-2.3846,-2.3588,-2.3318,-2.3215,-2.3274,-2.3283,-2.3297,-2.3378,-2.3472,-2.3601,-2.3465,-2.3288,-2.3552,-2.4048,-2.4033,-2.3977,-2.4342,-2.4685,-2.4952,-2.5194,-2.5301,-2.5478,-2.5893,-0.9624,-0.9624,-0.9624,-0.9624,-0.9624,-0.9624,-0.9624,-0.9624,-0.9624,-0.9624,-0.9624,-0.9821,-1.0117,-1.0462,-1.0806,-1.1345,-1.1932,-1.2127,-1.237,-1.2759,-1.2759,-1.2807,-1.2807,-1.2807,-1.2807,-1.2807,-1.2807,-1.2905,-1.3141,-1.3522,-1.3998,-1.4717,-1.5805,-1.6567,-1.7091,-1.7286,-1.7286,-1.7286,-1.7286,-1.7286,-1.7286,-1.7286,-1.7286,-1.7286,-1.7286,-1.7286,-1.7286,-1.7286,-1.7426,-1.7613,-1.7667,-1.7846,-1.8311,-1.8819,-1.9234,-1.9554,-2.0019,-2.0292,-2.0292,-2.0292,-2.0292,-2.0292,-2.0292,-2.0292,-2.0292,-2.0292,-2.0292,-2.0292,-2.0292,-2.0292,-2.0292,-2.0292,-2.0292,-2.0292,-2.0292,-2.0292,-2.0292,-2.0292,-2.0292,-2.0292,-2.0292,-2.0292,-2.0292,-2.0292,-2.0555,-2.0781,-2.1347,-2.2325,-2.3052,-2.3454,-2.3634,-2.4106,-2.426,-2.4033,-2.3836,-2.3701,-2.3515,-2.3483,-2.3429,-2.3381,-2.3485,-2.3673,-2.3752,-2.366,-2.3908,-2.4156,-2.4166,-2.4241,-2.4446,-2.4743,-2.5092,-2.5338,-2.5466,-2.5595,-2.578,-0.9624,-0.9624,-0.9624,-0.9624,-0.9624,-0.9624,-0.9624,-0.9624,-0.9624,-0.9624,-0.9624,-0.9624,-0.9772,-1.0117,-1.0413,-1.0609,-1.1487,-1.1878,-1.2078,-1.2516,-1.2716,-1.2764,-1.2807,-1.2764,-1.2807,-1.2807,-1.2807,-1.2807,-1.2905,-1.3286,-1.3667,-1.4334,-1.5425,-1.6285,-1.6857,-1.7044,-1.7286,-1.7286,-1.7286,-1.7286,-1.7286,-1.7286,-1.7286,-1.7286,-1.7286,-1.7286,-1.7286,-1.7286,-1.7286,-1.7286,-1.738,-1.7466,-1.7893,-1.8311,-1.8773,-1.9279,-1.9928,-2.0201,-2.0292,-2.0292,-2.0292,-2.0292,-2.0292,-2.0292,-2.0292,-2.0292,-2.0292,-2.0292,-2.0292,-2.0292,-2.0292,-2.0292,-2.0292,-2.0292,-2.0292,-2.0292,-2.0292,-2.0292,-2.0292,-2.0292,-2.0292,-2.0292,-2.0292,-2.0292,-2.0382,-2.0555,-2.0727,-2.1713,-2.2652,-2.3047,-2.345,-2.397,-2.4391,-2.428,-2.4188,-2.4146,-2.3939,-2.3701,-2.367,-2.3679,-2.3636,-2.3829,-2.3947,-2.3991,-2.3971,-2.4064,-2.4342,-2.4515,-2.4711,-2.5024,-2.5395,-2.5588,-2.568,-2.5738,-2.5787,-0.9624,-0.9624,-0.9624,-0.9624,-0.9624,-0.9624,-0.9624,-0.9624,-0.9624,-0.9624,-0.9624,-0.9624,-0.9677,-0.9723,-1.0117,-1.0413,-1.0654,-1.1443,-1.1785,-1.2078,-1.2419,-1.2565,-1.2716,-1.2764,-1.2764,-1.2807,-1.2807,-1.2807,-1.2813,-1.2953,-1.3286,-1.3998,-1.5235,-1.5906,-1.6332,-1.6857,-1.7192,-1.7286,-1.7286,-1.7286,-1.7286,-1.7286,-1.7286,-1.7286,-1.7286,-1.7286,-1.7286,-1.7286,-1.7286,-1.7286,-1.7333,-1.7333,-1.7473,-1.78,-1.8319,-1.8966,-1.9837,-2.0155,-2.0292,-2.0292,-2.0292,-2.0292,-2.0292,-2.0292,-2.0292,-2.0292,-2.0292,-2.0292,-2.0292,-2.0292,-2.0292,-2.0292,-2.0292,-2.0292,-2.0292,-2.0292,-2.0292,-2.0292,-2.0292,-2.0292,-2.0292,-2.0292,-2.0292,-2.0292,-2.0292,-2.0374,-2.051,-2.0781,-2.1668,-2.2448,-2.294,-2.3677,-2.4067,-2.4454,-2.4425,-2.4342,-2.429,-2.4032,-2.4135,-2.4178,-2.4116,-2.3961,-2.4054,-2.4072,-2.3879,-2.3979,-2.4345,-2.4648,-2.4927,-2.5254,-2.5475,-2.5673,-2.5728,-2.5706,-2.5754,-0.9624,-0.9624,-0.9624,-0.9624,-0.9624,-0.9624,-0.9624,-0.9624,-0.9624,-0.9624,-0.9624,-0.9624,-0.9624,-0.9624,-0.9772,-1.0068,-1.0364,-1.0708,-1.1096,-1.1487,-1.198,-1.2127,-1.237,-1.257,-1.271,-1.2807,-1.2807,-1.2807,-1.2807,-1.2807,-1.2807,-1.3335,-1.4717,-1.5242,-1.5812,-1.6662,-1.6998,-1.7239,-1.7239,-1.7286,-1.7286,-1.7286,-1.7286,-1.7286,-1.7286,-1.7286,-1.7286,-1.7286,-1.7286,-1.7286,-1.7286,-1.7286,-1.7333,-1.78,-1.8404,-1.9325,-1.992,-2.0292,-2.0292,-2.0292,-2.0292,-2.0292,-2.0292,-2.0292,-2.0292,-2.0292,-2.0292,-2.0292,-2.0292,-2.0292,-2.0292,-2.0292,-2.0292,-2.0292,-2.0292,-2.0292,-2.0292,-2.0292,-2.0292,-2.0292,-2.0292,-2.0292,-2.0292,-2.0292,-2.0292,-2.0292,-2.0337,-2.0473,-2.0952,-2.1784,-2.2438,-2.3222,-2.398,-2.4464,-2.4507,-2.4435,-2.4466,-2.4466,-2.4487,-2.4476,-2.4374,-2.425,-2.424,-2.4168,-2.4117,-2.42,-2.4409,-2.4672,-2.4838,-2.5081,-2.5292,-2.553,-2.5741,-2.5724,-2.5797,-0.9624,-0.9624,-0.9624,-0.9624,-0.9624,-0.9624,-0.9624,-0.9624,-0.9624,-0.9624,-0.9624,-0.9624,-0.9624,-0.9624,-0.9624,-0.9772,-1.0068,-1.0364,-1.0659,-1.0953,-1.1443,-1.1785,-1.2073,-1.2322,-1.2565,-1.271,-1.2807,-1.2807,-1.2807,-1.2807,-1.2807,-1.2953,-1.41,-1.4484,-1.5051,-1.5947,-1.6709,-1.6943,-1.7091,-1.7239,-1.7286,-1.7286,-1.7286,-1.7286,-1.7286,-1.7286,-1.7286,-1.7286,-1.7286,-1.7286,-1.7286,-1.7286,-1.738,-1.78,-1.8365,-1.9188,-1.9691,-2.0056,-2.0238,-2.0292,-2.0292,-2.0292,-2.0292,-2.0292,-2.0292,-2.0292,-2.0292,-2.0292,-2.0292,-2.0292,-2.0292,-2.0292,-2.0292,-2.0292,-2.0292,-2.0292,-2.0292,-2.0292,-2.0292,-2.0292,-2.0292,-2.0292,-2.0292,-2.0292,-2.0292,-2.0292,-2.0292,-2.0337,-2.0862,-2.1695,-2.2217,-2.2809,-2.3744,-2.4507,-2.4507,-2.4507,-2.4507,-2.4507,-2.4497,-2.4497,-2.4507,-2.4476,-2.4373,-2.4394,-2.4467,-2.4488,-2.4479,-2.452,-2.4628,-2.4871,-2.4999,-2.5052,-2.5325,-2.5633,-2.5787,-0.9624,-0.9624,-0.9624,-0.9624,-0.9624,-0.9624,-0.9624,-0.9624,-0.9624,-0.9624,-0.9624,-0.9624,-0.9624,-0.9624,-0.9624,-0.9624,-0.9821,-1.0068,-1.0216,-1.0364,-1.0904,-1.1292,-1.1585,-1.1975,-1.2322,-1.2613,-1.2807,-1.2807,-1.2807,-1.2807,-1.2813,-1.2861,-1.3619,-1.4142,-1.4621,-1.5669,-1.6473,-1.6803,-1.7044,-1.7286,-1.7286,-1.7286,-1.7286,-1.7286,-1.7286,-1.7286,-1.7286,-1.7286,-1.7286,-1.7286,-1.7286,-1.7286,-1.7473,-1.7807,-1.8365,-1.8735,-1.9234,-1.96,-1.9828,-1.9928,-1.9965,-2.0056,-2.0201,-2.0155,-2.0102,-2.0246,-2.0292,-2.0292,-2.0292,-2.0292,-2.0292,-2.0292,-2.0292,-2.0292,-2.0292,-2.0292,-2.0292,-2.0292,-2.0292,-2.0292,-2.0292,-2.0292,-2.0292,-2.0292,-2.0292,-2.0292,-2.0292,-2.0292,-2.0682,-2.1472,-2.205,-2.2492,-2.3387,-2.4196,-2.4507,-2.4507,-2.4507,-2.4507,-2.4507,-2.4507,-2.4507,-2.4507,-2.4507,-2.4507,-2.4507,-2.4507,-2.4487,-2.4497,-2.4497,-2.4583,-2.4668,-2.4583,-2.4818,-2.5284,-2.5577,-0.9624,-0.9624,-0.9624,-0.9624,-0.9624,-0.9624,-0.9624,-0.9624,-0.9624,-0.9624,-0.9624,-0.9624,-0.9624,-0.9624,-0.9624,-0.9624,-0.9673,-0.9772,-0.9776,-0.9974,-1.0364,-1.0703,-1.0998,-1.1536,-1.198,-1.2273,-1.2516,-1.2759,-1.2807,-1.2807,-1.2807,-1.2861,-1.3474,-1.395,-1.4478,-1.5622,-1.6237,-1.6567,-1.7091,-1.7286,-1.7286,-1.7286,-1.7286,-1.7286,-1.7286,-1.7286,-1.7286,-1.7286,-1.7286,-1.7286,-1.7286,-1.7286,-1.7333,-1.7807,-1.8133,-1.8311,-1.8773,-1.905,-1.9242,-1.9333,-1.9325,-1.9417,-1.9509,-1.9691,-1.9874,-2.0147,-2.0292,-2.0292,-2.0292,-2.0292,-2.0292,-2.0292,-2.0292,-2.0292,-2.0292,-2.0292,-2.0292,-2.0292,-2.0292,-2.0292,-2.0292,-2.0292,-2.0292,-2.0292,-2.0292,-2.0292,-2.0292,-2.0337,-2.051,-2.1087,-2.1695,-2.2227,-2.3047,-2.3764,-2.4153,-2.4421,-2.4325,-2.4464,-2.4507,-2.4507,-2.4507,-2.4507,-2.4507,-2.4507,-2.4507,-2.4507,-2.4507,-2.4507,-2.4507,-2.4507,-2.4507,-2.4507,-2.4507,-2.4861,-2.5115,-0.9624,-0.9624,-0.9624,-0.9624,-0.9624,-0.9624,-0.9624,-0.9624,-0.9624,-0.9624,-0.9624,-0.9624,-0.9624,-0.9624,-0.9624,-0.9624,-0.9624,-0.9624,-0.9677,-0.9776,-0.9871,-1.0162,-1.0605,-1.1047,-1.134,-1.1683,-1.2175,-1.2467,-1.2759,-1.2807,-1.2807,-1.2861,-1.3335,-1.3715,-1.434,-1.5099,-1.5954,-1.6237,-1.6951,-1.7286,-1.7286,-1.7286,-1.7286,-1.7286,-1.7286,-1.7286,-1.7286,-1.7286,-1.7286,-1.7286,-1.7286,-1.7286,-1.7333,-1.752,-1.7854,-1.8079,-1.8357,-1.8596,-1.8689,-1.8735,-1.8735,-1.8866,-1.9012,-1.9242,-1.9646,-1.992,-2.0102,-2.0147,-2.0292,-2.0292,-2.0292,-2.0292,-2.0292,-2.0292,-2.0292,-2.0292,-2.0292,-2.0292,-2.0292,-2.0292,-2.0292,-2.0292,-2.0292,-2.0292,-2.0292,-2.0292,-2.0292,-2.0292,-2.0464,-2.0645,-2.1257,-2.1793,-2.2467,-2.3232,-2.3764,-2.398,-2.411,-2.4239,-2.4464,-2.4507,-2.4507,-2.4507,-2.4507,-2.4507,-2.4507,-2.4507,-2.4507,-2.4507,-2.4507,-2.4507,-2.4507,-2.4507,-2.4507,-2.4507,-2.4711,-0.9624,-0.9624,-0.9624,-0.9624,-0.9624,-0.9624,-0.9624,-0.9624,-0.9624,-0.9624,-0.9624,-0.9624,-0.9624,-0.9624,-0.9624,-0.9624,-0.9624,-0.9624,-0.9624,-0.9624,-0.9628,-0.9871,-1.0113,-1.0458,-1.0949,-1.1438,-1.1932,-1.237,-1.2759,-1.2807,-1.2807,-1.2807,-1.2856,-1.2958,-1.3437,-1.4292,-1.5384,-1.6096,-1.6716,-1.7239,-1.7286,-1.7286,-1.7286,-1.7286,-1.7286,-1.7286,-1.7286,-1.7286,-1.7286,-1.7286,-1.7286,-1.7286,-1.7286,-1.738,-1.7567,-1.78,-1.7893,-1.8172,-1.8357,-1.8411,-1.845,-1.8542,-1.8643,-1.892,-1.9279,-1.9554,-1.9737,-2.0011,-2.0155,-2.0292,-2.0292,-2.0292,-2.0292,-2.0292,-2.0292,-2.0292,-2.0292,-2.0292,-2.0292,-2.0292,-2.0292,-2.0292,-2.0292,-2.0292,-2.0292,-2.0292,-2.0292,-2.0292,-2.0337,-2.0428,-2.0781,-2.1132,-2.1526,-2.2334,-2.3188,-2.359,-2.3721,-2.4067,-2.4239,-2.4421,-2.4507,-2.4507,-2.4507,-2.4507,-2.4507,-2.4507,-2.4507,-2.4507,-2.4507,-2.4507,-2.4507,-2.4507,-2.4507,-2.4507,-2.4507,-0.9624,-0.9624,-0.9624,-0.9624,-0.9624,-0.9624,-0.9624,-0.9624,-0.9624,-0.9624,-0.9624,-0.9624,-0.9624,-0.9624,-0.9624,-0.9624,-0.9624,-0.9624,-0.9624,-0.9624,-0.9624,-0.9673,-0.9821,-1.0167,-1.0998,-1.1487,-1.1883,-1.2273,-1.271,-1.2807,-1.2807,-1.2807,-1.2807,-1.3335,-1.4573,-1.5194,-1.5575,-1.6285,-1.681,-1.7286,-1.7286,-1.7286,-1.7286,-1.7286,-1.7286,-1.7286,-1.7286,-1.7286,-1.7286,-1.7286,-1.7286,-1.7286,-1.7286,-1.7286,-1.7426,-1.752,-1.7567,-1.766,-1.78,-1.7846,-1.7846,-1.7839,-1.7986,-1.8319,-1.8635,-1.8866,-1.9188,-1.9646,-1.9874,-2.0155,-2.0201,-2.0292,-2.0292,-2.0292,-2.0292,-2.0292,-2.0292,-2.0292,-2.0292,-2.0292,-2.0292,-2.0292,-2.0292,-2.0292,-2.0292,-2.0292,-2.0292,-2.0292,-2.0292,-2.0337,-2.0382,-2.06,-2.0862,-2.1472,-2.2359,-2.3057,-2.3363,-2.3721,-2.4067,-2.4282,-2.4411,-2.4507,-2.4507,-2.4507,-2.4507,-2.4507,-2.4507,-2.4507,-2.4507,-2.4507,-2.4507,-2.4507,-2.4507,-2.4507,-2.4507]},{"header":{"parameterUnit":"m.s-1","parameterCategory":1,"la1":31.0,"la2":29.5877,"lo1":-88.7671,"lo2":-86.6584,"dy":0.0162,"dx":0.0185,"nx":115,"ny":88,"refTime":"2024-08-30T12:00:00:Z","depth":0,"parameterNumber":3,"parameterNumberName":"V-component_of_WINDS"},"data":[0.0,0.0,0.0,0.0,0.0,0.0,0.0,0.0,0.0,0.0,0.0,0.0,0.0,0.0,0.0,0.0,0.0,0.0,0.0,0.0,0.0,0.0,0.0,0.0,0.0,0.0,0.0,0.0,0.0,0.0,0.0,0.0,0.0,0.0,0.0,0.0,0.0,0.0,0.0,0.0,0.0,0.0,0.0,0.0,0.0,0.0,0.0,0.0,0.0,0.0,0.0,0.0,0.0,0.0,0.0,0.0,0.0,0.0,0.0,0.0,0.0,0.0,0.0,0.0,0.0,0.0,0.0,0.0,0.0,0.0,0.0,0.0,0.0,0.0,0.0,0.0,0.0,0.0,0.0,0.0,0.0,0.0,0.0,0.0,0.0,0.0,0.0,0.0,0.0,0.0,0.0,0.0,0.0,0.0,0.0,0.0,0.0,0.0,0.0,0.0,0.0,0.0,0.0,0.0,0.0,0.0,0.0,0.0,0.0,0.0,0.0,0.0,0.0,0.0,0.0,0.0,0.0,0.0,0.0,0.0,0.0,0.0,0.0,0.0,0.0,0.0,0.0,0.0,0.0,0.0,0.0,0.0,0.0,0.0,0.0,0.0,0.0,0.0,0.0,0.0,0.0,0.0,0.0,0.0,0.0,0.0,0.0,0.0,0.0,0.0,0.0,0.0,0.0,0.0,0.0,0.0,0.0,0.0,0.0,0.0,0.0,0.0,0.0,0.0,0.0,0.0,0.0,0.0,0.0,0.0,0.0,0.0,0.0,0.0,0.0,0.0,0.0,0.0,0.0,0.0,0.0,0.0,0.0,0.0,0.0,0.0,0.0,0.0,0.0,0.0,0.0,0.0,0.0,0.0,0.0,0.0,0.0,0.0,0.0,0.0,0.0,0.0,0.0,0.0,0.0,0.0,0.0,0.0,0.0,0.0,0.0,0.0,0.0,0.0,0.0,0.0,0.0,0.0,0.0,0.0,0.0,0.0,0.0,0.0,0.0,0.0,0.0,0.0,0.0,0.0,0.0,0.0,0.0,0.0,0.0,0.0,0.0,0.0,0.0,0.0,0.0,0.0,0.0,0.0,0.0,0.0,0.0,0.0,0.0,0.0,0.0,0.0,0.0,0.0,0.0,0.0,0.0,0.0,0.0,0.0,0.0,0.0,0.0,0.0,0.0,0.0,0.0,0.0,0.0,0.0,0.0,0.0,0.0,0.0,0.0,0.0,0.0,0.0,0.0,0.0,0.0,0.0,0.0,0.0,0.0,0.0,0.0,0.0,0.0,0.0,0.0,0.0,0.0,0.0,0.0,0.0,0.0,0.0,0.0,0.0,0.0,0.0,0.0,0.0,0.0,0.0,0.0,0.0,0.0,0.0,0.0,0.0,0.0,0.0,0.0,0.0,0.0,0.0,0.0,0.0,0.0,0.0,0.0,0.0,0.0,0.0,0.0,0.0,0.0,0.0,0.0,0.0,0.0,0.0,0.0,0.0,0.0,0.0,0.0,0.0,0.0,0.0,0.0,0.0,0.0,0.0,0.0,0.0,0.0,0.0,0.0,0.0,0.0,0.0,0.0,0.0,0.0,0.0,0.0,0.0,0.0,0.0,0.0,0.0,0.0,0.0,0.0,0.0,0.0,0.0,0.0,0.0,0.0,0.0,0.0,0.0,0.0,0.0,0.0,0.0,0.0,0.0,0.0,0.0,0.0,0.0,0.0,0.0,0.0,0.0,0.0,0.0,0.0,0.0,0.0,0.0,0.0,0.0,0.0,0.0,0.0,0.0,0.0,0.0,0.0,0.0,0.0,0.0,0.0,0.0,0.0,0.0,0.0,0.0,0.0,0.0,0.0,0.0,0.0,0.0,0.0,0.0,0.0,0.0,0.0,0.0,0.0,0.0,0.0,0.0,0.0,0.0,0.0,0.0,0.0,0.0,0.0,0.0,0.0,0.0,0.0,0.0,0.0,0.0,0.0,0.0,0.0,0.0,0.0,0.0,0.0,0.0,0.0,0.0,0.0,0.0,0.0,0.0,0.0,0.0,0.0,0.0,0.0,0.0,0.0,0.0,0.0,0.0,0.0,0.0,0.0,0.0,0.0,0.0,0.0,0.0,0.0,0.0,0.0,0.0,0.0,0.0,0.0,0.0,0.0,0.0,0.0,0.0,0.0,0.0,0.0,0.0,0.0,0.0,0.0,0.0,0.0,0.0,0.0,0.0,0.0,0.0,0.0,0.0,0.0,0.0,0.0,0.0,0.0,0.0,0.0,0.0,0.0,0.0,0.0,0.0,0.0,0.0,0.0,0.0,0.0,0.0,0.0,0.0,0.0,0.0,0.0,0.0,0.0,0.0,0.0,0.0,0.0,0.0,0.0,0.0,0.0,0.0,0.0,0.0,0.0,0.0,0.0,0.0,0.0,0.0,0.0,0.0,0.0,0.0,0.0,0.0,0.0,0.0,0.0,0.0,0.0,0.0,0.0,0.0,0.0,0.0,0.0,0.0,0.0,0.0,0.0,0.0,0.0,0.0,0.0,0.0,0.0,0.0,0.0,0.0,0.0,0.0,0.0,0.0,0.0,0.0,0.0,0.0,0.0,0.0,0.0,0.0,0.0,0.0,0.0,0.0,0.0,0.0,0.0,0.0,0.0,0.0,0.0,0.0,0.0,0.0,0.0,0.0,0.0,0.0,0.0,0.0,0.0,0.0,0.0,0.0,0.0,0.0,0.0,0.0,0.0,0.0,0.0,0.0,0.0,0.0,0.0,0.0,0.0,0.0,0.0,0.0,0.0,0.0,0.0,0.0,0.0,0.0,0.0,0.0,0.0,0.0,0.0,0.0,0.0,0.0,0.0,0.0,0.0,0.0,0.0,0.0,0.0,0.0,0.0,0.0,0.0,0.0,0.0,0.0,0.0,0.0,0.0,0.0,0.0,0.0,0.0,0.0,0.0,0.0,0.0,0.0,0.0,0.0,0.0,0.0,0.0,0.0,0.0,0.0,0.0,0.0,0.0,0.0,0.0,0.0,0.0,0.0,0.0,0.0,0.0,0.0,0.0,0.0,0.0,0.0,0.0,0.0,0.0,0.0,0.0,0.0,0.0,0.0,0.0,0.0,0.0,0.0,0.0,0.0,0.0,0.0,0.0,0.0,0.0,0.0,0.0,0.0,0.0,0.0,0.0,0.0,0.0,0.0,0.0,0.0,0.0,0.0,0.0,0.0,0.0,0.0,0.0,0.0,0.0,0.0,0.0,0.0,0.0,0.0,0.0,0.0,0.0,0.0,0.0,0.0,0.0,0.0,0.0,0.0,0.0,0.0,0.0,0.0,0.0,0.0,0.0,0.0,0.0,0.0,0.0,0.0,0.0,0.0,0.0,0.0,0.0,0.0,0.0,0.0,0.0,0.0,0.0,0.0,0.0,0.0,0.0,0.0,0.0,0.0,0.0,0.0,0.0,0.0,0.0,0.0,0.0,0.0,0.0,0.0,0.0,0.0,0.0,0.0,0.0,0.0,0.0,0.0,0.0,0.0,0.0,0.0,0.0,0.0,0.0,0.0,0.0,0.0,0.0,0.0,0.0,0.0,0.0,0.0,0.0,0.0,0.0,0.0,0.0,0.0,0.0,0.0,0.0,0.0,0.0,0.0,0.0,0.0,0.0,0.0,0.0,0.0,0.0,0.0,0.0,0.0,0.0,0.0,0.0,0.0,0.0,0.0,0.0,0.0,0.0,0.0,0.0,0.0,0.0,0.0,0.0,0.0,0.0,0.0,0.0,0.0,0.0,0.0,0.0,0.0,0.0,0.0,0.0,0.0,0.0,0.0,0.0,0.0,0.0,0.0,0.0,0.0,0.0,0.0,0.0,0.0,0.0,0.0,0.0,0.0,0.0,0.0,0.0,0.0,0.0,0.0,0.0,0.0,0.0,0.0,0.0,0.0,0.0,0.0,0.0,0.0,0.0,0.0,0.0,0.0,0.0,0.0,0.0,0.0,0.0,0.0,0.0,0.0,0.0,0.0,0.0,0.0,0.0,0.0,0.0,0.0,0.0,0.0,0.0,0.0,0.0,0.0,0.0,0.0,0.0,0.0,0.0,0.0,0.0,0.0,0.0,0.0,0.0,0.0,0.0,0.0,0.0,0.0,0.0,0.0,0.0,0.0,0.0,0.0,0.0,0.0,0.0,0.0,0.0,0.0,0.0,0.0,0.0,0.0,0.0,0.0,0.0,0.0,0.0,0.0,0.0,0.0,0.0,0.0,0.0,0.0,0.0,0.0,0.0,0.0,1.9682,0.0,0.0,0.0,0.0,0.0,0.0,0.0,0.0,0.0,0.0,0.0,0.0,0.0,0.0,0.0,0.0,0.0,0.0,0.0,0.0,0.0,0.0,0.0,0.0,0.0,0.0,0.0,0.0,0.0,0.0,0.0,0.0,0.0,0.0,0.0,0.0,0.0,0.0,0.0,0.0,0.0,0.0,0.0,0.0,0.0,0.0,0.0,0.0,0.0,0.0,0.0,0.0,0.0,0.0,0.0,0.0,0.0,0.0,0.0,0.0,0.0,0.0,0.0,0.0,0.0,0.0,0.0,0.0,0.0,0.0,0.0,0.0,0.0,0.0,0.0,0.0,0.0,0.0,0.0,0.0,0.0,0.0,0.0,0.0,0.0,0.0,0.0,0.0,0.0,0.0,0.0,0.0,0.0,0.0,0.0,0.0,0.0,0.0,0.0,0.0,0.0,0.0,0.0,0.0,0.0,0.0,0.0,0.0,0.0,0.0,2.0231,1.9687,1.9997,1.9793,1.8921,0.0,0.0,0.0,0.0,0.0,0.0,0.0,0.0,0.0,0.0,0.0,0.0,0.0,0.0,0.0,0.0,0.0,0.0,0.0,0.0,0.0,0.0,0.0,0.0,0.0,0.0,0.0,0.0,0.0,0.0,0.0,0.0,0.0,0.0,0.0,0.0,0.0,0.0,0.0,0.0,0.0,0.0,0.0,0.0,0.0,0.0,0.0,0.0,0.0,0.0,0.0,0.0,0.0,0.0,0.0,0.0,0.0,0.0,0.0,0.0,0.0,0.0,0.0,0.0,0.0,0.0,0.0,0.0,0.0,0.0,0.0,0.0,0.0,0.0,0.0,0.0,0.0,0.0,0.0,0.0,0.0,0.0,0.0,0.0,0.0,0.0,0.0,0.0,0.0,0.0,0.0,0.0,0.0,0.0,0.0,0.0,0.0,0.0,0.0,0.0,0.0,0.0,0.0,0.0,0.0,0.0,0.0,0.0,0.0,0.0,0.0,0.0,2.0199,1.9889,1.8733,0.0,0.0,0.0,0.0,0.0,0.0,0.0,0.0,0.0,0.0,0.0,0.0,0.0,0.0,0.0,0.0,0.0,0.0,0.0,0.0,0.0,0.0,0.0,0.0,0.0,0.0,0.0,0.0,0.0,0.0,0.0,0.0,0.0,0.0,0.0,0.0,0.0,0.0,0.0,0.0,0.0,0.0,0.0,0.0,0.0,0.0,0.0,0.0,0.0,0.0,0.0,0.0,0.0,0.0,0.0,0.0,0.0,0.0,0.0,0.0,0.0,0.0,0.0,0.0,0.0,0.0,0.0,0.0,0.0,0.0,0.0,0.0,0.0,0.0,0.0,0.0,0.0,0.0,0.0,0.0,0.0,0.0,0.0,0.0,0.0,0.0,0.0,0.0,0.0,0.0,0.0,0.0,0.0,0.0,0.0,0.0,0.0,0.0,0.0,0.0,0.0,0.0,0.0,0.0,0.0,0.0,0.0,0.0,0.0,0.0,1.9938,2.142,2.1485,0.0,2.0175,0.0,0.0,0.0,0.0,0.0,0.0,0.0,0.0,0.0,0.0,0.0,0.0,0.0,0.0,0.0,0.0,0.0,0.0,0.0,0.0,0.0,0.0,0.0,0.0,0.0,0.0,0.0,0.0,0.0,0.0,0.0,0.0,0.0,0.0,0.0,0.0,0.0,0.0,0.0,0.0,0.0,0.0,0.0,0.0,0.0,0.0,0.0,0.0,0.0,0.0,0.0,0.0,0.0,0.0,0.0,0.0,0.0,0.0,0.0,0.0,0.0,0.0,0.0,0.0,0.0,0.0,0.0,0.0,0.0,0.0,0.0,0.0,0.0,0.0,0.0,0.0,0.0,0.0,0.0,0.0,0.0,0.0,0.0,0.0,0.0,0.0,0.0,0.0,0.0,0.0,0.0,0.0,0.0,0.0,0.0,0.0,0.0,0.0,0.0,0.0,0.0,0.0,0.0,0.0,0.0,0.0,0.0,0.0,0.0,0.0,2.0352,2.052,1.9809,1.926,0.0,0.0,0.0,0.0,0.0,0.0,0.0,0.0,0.0,0.0,0.0,0.0,0.0,0.0,0.0,0.0,0.0,0.0,0.0,0.0,0.0,0.0,0.0,0.0,0.0,0.0,0.0,0.0,0.0,0.0,0.0,0.0,0.0,0.0,0.0,0.0,0.0,0.0,0.0,0.0,0.0,0.0,0.0,0.0,0.0,0.0,0.0,0.0,0.0,0.0,0.0,0.0,0.0,0.0,0.0,0.0,0.0,0.0,0.0,0.0,0.0,0.0,0.0,0.0,0.0,0.0,0.0,0.0,0.0,0.0,0.0,0.0,0.0,0.0,0.0,0.0,0.0,0.0,0.0,0.0,0.0,0.0,0.0,0.0,0.0,0.0,0.0,0.0,0.0,0.0,0.0,0.0,0.0,0.0,0.0,0.0,0.0,0.0,0.0,0.0,0.0,0.0,0.0,0.0,0.0,0.0,0.0,0.0,0.0,0.0,2.0394,2.0607,2.0388,1.9564,1.8812,1.8174,0.0,0.0,0.0,0.0,0.0,0.0,0.0,0.0,0.0,0.0,0.0,0.0,0.0,0.0,0.0,0.0,0.0,0.0,0.0,0.0,0.0,0.0,0.0,0.0,0.0,0.0,0.0,0.0,0.0,0.0,0.0,0.0,0.0,0.0,0.0,0.0,0.0,0.0,0.0,0.0,0.0,0.0,0.0,0.0,0.0,0.0,0.0,0.0,0.0,0.0,0.0,0.0,0.0,0.0,0.0,0.0,0.0,0.0,0.0,0.0,0.0,0.0,0.0,0.0,0.0,0.0,0.0,0.0,0.0,0.0,0.0,0.0,0.0,0.0,0.0,0.0,0.0,0.0,0.0,0.0,0.0,0.0,0.0,0.0,0.0,0.0,0.0,0.0,0.0,0.0,0.0,0.0,0.0,0.0,0.0,0.0,0.0,0.0,0.0,0.0,0.0,0.0,0.0,0.0,0.0,0.0,0.0,0.0,0.0,2.0745,2.0551,2.2115,2.2115,2.103,0.0,0.0,0.0,0.0,0.0,0.0,0.0,0.0,0.0,0.0,0.0,0.0,0.0,0.0,0.0,0.0,0.0,0.0,0.0,0.0,0.0,0.0,0.0,0.0,0.0,0.0,0.0,0.0,0.0,0.0,0.0,0.0,0.0,0.0,0.0,0.0,0.0,0.0,0.0,0.0,0.0,0.0,0.0,0.0,0.0,0.0,0.0,0.0,0.0,0.0,0.0,0.0,0.0,0.0,0.0,0.0,0.0,0.0,0.0,0.0,0.0,0.0,0.0,0.0,0.0,0.0,0.0,0.0,0.0,0.0,0.0,0.0,0.0,0.0,0.0,0.0,0.0,0.0,0.0,0.0,0.0,0.0,0.0,0.0,0.0,0.0,0.0,0.0,0.0,0.0,0.0,0.0,0.0,0.0,0.0,0.0,0.0,0.0,0.0,0.0,0.0,0.0,0.0,0.0,0.0,0.0,0.0,0.0,0.0,1.8924,1.9154,2.0596,2.3202,2.0691,1.9203,0.0,0.0,0.0,0.0,0.0,0.0,0.0,0.0,0.0,0.0,0.0,0.0,0.0,0.0,0.0,0.0,0.0,0.0,0.0,0.0,0.0,0.0,0.0,0.0,0.0,0.0,0.0,0.0,0.0,0.0,0.0,0.0,0.0,0.0,0.0,0.0,0.0,0.0,0.0,0.0,0.0,0.0,0.0,0.0,0.0,0.0,0.0,0.0,0.0,0.0,0.0,0.0,0.0,0.0,0.0,0.0,0.0,0.0,0.0,0.0,0.0,0.0,0.0,0.0,0.0,0.0,0.0,0.0,0.0,0.0,0.0,0.0,0.0,0.0,0.0,0.0,0.0,0.0,0.0,0.0,0.0,0.0,0.0,0.0,0.0,0.0,0.0,0.0,0.0,0.0,0.0,0.0,0.0,0.0,0.0,0.0,0.0,0.0,0.0,0.0,0.0,0.0,0.0,0.0,0.0,0.0,0.0,0.0,0.0,1.7948,0.0,2.1242,0.0,2.0057,1.8401,0.0,0.0,0.0,0.0,0.0,0.0,0.0,0.0,0.0,0.0,0.0,0.0,0.0,0.0,0.0,0.0,0.0,0.0,0.0,0.0,0.0,0.0,0.0,0.0,0.0,0.0,0.0,0.0,0.0,0.0,0.0,0.0,0.0,0.0,0.0,0.0,0.0,0.0,0.0,0.0,0.0,0.0,0.0,0.0,0.0,0.0,0.0,0.0,0.0,0.0,0.0,0.0,0.0,0.0,0.0,0.0,0.0,0.0,0.0,0.0,0.0,0.0,0.0,0.0,0.0,0.0,0.0,0.0,0.0,0.0,0.0,0.0,0.0,0.0,0.0,0.0,0.0,0.0,0.0,0.0,0.0,0.0,0.0,0.0,0.0,0.0,0.0,0.0,0.0,0.0,0.0,0.0,0.0,0.0,0.0,0.0,0.0,0.0,0.0,0.0,0.0,0.0,0.0,0.0,0.0,0.0,0.0,0.0,1.6879,2.0203,2.2082,2.2319,2.1,2.0549,1.8921,0.0,0.0,0.0,0.0,0.0,0.0,0.0,0.0,0.0,0.0,0.0,0.0,0.0,0.0,0.0,0.0,0.0,0.0,0.0,0.0,0.0,0.0,0.0,0.0,0.0,0.0,0.0,0.0,0.0,0.0,0.0,0.0,0.0,0.0,0.0,0.0,0.0,0.0,0.0,0.0,0.0,0.0,0.0,0.0,0.0,0.0,0.0,0.0,0.0,0.0,0.0,0.0,0.0,0.0,0.0,0.0,0.0,0.0,0.0,0.0,0.0,0.0,0.0,0.0,0.0,0.0,0.0,0.0,0.0,0.0,0.0,0.0,0.0,0.0,0.0,0.0,0.0,0.0,0.0,0.0,0.0,0.0,0.0,0.0,0.0,0.0,0.0,0.0,0.0,0.0,0.0,0.0,0.0,0.0,0.0,0.0,0.0,0.0,0.0,0.0,0.0,0.0,0.0,0.0,0.0,0.0,0.0,0.0,0.0,1.9027,2.0664,2.159,2.1657,1.9673,1.8532,0.0,0.0,0.0,0.0,0.0,0.0,0.0,0.0,0.0,0.0,0.0,0.0,0.0,0.0,0.0,0.0,0.0,0.0,0.0,0.0,0.0,0.0,0.0,0.0,0.0,0.0,0.0,0.0,0.0,0.0,0.0,0.0,0.0,0.0,0.0,0.0,0.0,0.0,0.0,0.0,0.0,0.0,0.0,0.0,0.0,0.0,0.0,0.0,0.0,0.0,0.0,0.0,0.0,0.0,0.0,0.0,0.0,0.0,0.0,0.0,0.0,0.0,0.0,0.0,0.0,0.0,0.0,0.0,0.0,0.0,0.0,0.0,0.0,0.0,0.0,0.0,0.0,0.0,0.0,0.0,0.0,0.0,0.0,0.0,0.0,0.0,0.0,0.0,0.0,0.0,0.0,0.0,0.0,0.0,0.0,0.0,0.0,0.0,0.0,0.0,0.0,0.0,0.0,0.0,0.0,0.0,0.0,0.0,0.0,1.9826,2.1485,2.258,2.2997,2.0322,1.8969,1.9117,0.0,0.0,0.0,0.0,0.0,0.0,0.0,0.0,0.0,0.0,0.0,0.0,0.0,0.0,0.0,0.0,0.0,0.0,0.0,0.0,0.0,0.0,0.0,0.0,0.0,0.0,0.0,0.0,0.0,0.0,0.0,0.0,0.0,0.0,0.0,0.0,0.0,0.0,0.0,0.0,0.0,0.0,0.0,0.0,0.0,0.0,0.0,0.0,0.0,0.0,0.0,0.0,0.0,0.0,0.0,0.0,0.0,0.0,0.0,0.0,0.0,0.0,0.0,0.0,0.0,0.0,0.0,0.0,0.0,0.0,0.0,0.0,0.0,0.0,0.0,0.0,0.0,0.0,0.0,0.0,0.0,0.0,0.0,0.0,0.0,0.0,0.0,0.0,0.0,0.0,0.0,0.0,0.0,0.0,0.0,0.0,0.0,0.0,0.0,0.0,0.0,0.0,0.0,0.0,0.0,0.0,0.0,0.0,2.2135,2.4094,2.4896,2.4466,2.2152,2.013,0.0,0.0,0.0,0.0,0.0,0.0,0.0,0.0,0.0,0.0,0.0,0.0,0.0,0.0,0.0,0.0,0.0,0.0,0.0,0.0,0.0,0.0,0.0,0.0,0.0,0.0,0.0,0.0,0.0,0.0,0.0,0.0,0.0,0.0,0.0,0.0,0.0,0.0,0.0,0.0,0.0,0.0,0.0,0.0,0.0,0.0,0.0,0.0,0.0,0.0,0.0,0.0,0.0,0.0,0.0,0.0,0.0,0.0,0.0,0.0,0.0,0.0,0.0,0.0,0.0,0.0,0.0,0.0,0.0,0.0,0.0,0.0,0.0,0.0,0.0,0.0,0.0,0.0,0.0,0.0,0.0,0.0,0.0,0.0,0.0,0.0,0.0,0.0,0.0,0.0,0.0,0.0,0.0,0.0,0.0,0.0,0.0,0.0,0.0,0.0,0.0,0.0,0.0,0.0,0.0,0.0,0.0,0.0,0.0,2.3599,2.5035,2.5412,2.4631,2.2418,2.0829,0.0,0.0,0.0,0.0,0.0,0.0,0.0,0.0,0.0,0.0,0.0,0.0,0.0,0.0,0.0,0.0,0.0,0.0,0.0,0.0,0.0,0.0,0.0,0.0,0.0,0.0,0.0,0.0,0.0,0.0,0.0,0.0,0.0,0.0,0.0,0.0,0.0,0.0,0.0,0.0,0.0,0.0,0.0,0.0,0.0,0.0,0.0,0.0,0.0,0.0,0.0,0.0,0.0,0.0,0.0,0.0,0.0,0.0,0.0,0.0,0.0,0.0,0.0,0.0,0.0,0.0,0.0,0.0,0.0,0.0,0.0,0.0,0.0,0.0,0.0,0.0,0.0,0.0,0.0,0.0,0.0,0.0,0.0,0.0,0.0,0.0,0.0,0.0,0.0,0.0,0.0,0.0,0.0,0.0,0.0,0.0,0.0,0.0,0.0,0.0,0.0,0.0,0.0,0.0,0.0,0.0,0.0,0.0,2.3432,2.4922,2.5667,2.5761,2.5252,2.3572,2.202,0.0,0.0,0.0,0.0,0.0,0.0,0.0,0.0,0.0,0.0,0.0,0.0,0.0,0.0,0.0,0.0,0.0,0.0,0.0,0.0,0.0,0.0,0.0,0.0,0.0,0.0,0.0,0.0,0.0,0.0,0.0,0.0,0.0,0.0,0.0,0.0,0.0,0.0,0.0,0.0,0.0,0.0,0.0,0.0,0.0,0.0,0.0,0.0,0.0,0.0,0.0,0.0,0.0,0.0,0.0,0.0,0.0,0.0,0.0,0.0,0.0,0.0,0.0,0.0,0.0,0.0,0.0,0.0,0.0,0.0,0.0,0.0,0.0,0.0,0.0,0.0,0.0,0.0,0.0,0.0,0.0,0.0,0.0,0.0,0.0,0.0,0.0,0.0,0.0,0.0,0.0,0.0,0.0,0.0,0.0,0.0,0.0,0.0,0.0,0.0,0.0,0.0,0.0,0.0,0.0,0.0,0.0,0.0,2.4089,2.5677,2.5953,2.6017,2.5828,2.4982,2.3351,0.0,0.0,0.0,0.0,0.0,0.0,0.0,0.0,0.0,0.0,0.0,0.0,0.0,0.0,0.0,0.0,0.0,0.0,0.0,0.0,0.0,0.0,0.0,0.0,0.0,0.0,0.0,0.0,0.0,0.0,0.0,0.0,0.0,0.0,0.0,0.0,0.0,0.0,0.0,0.0,0.0,0.0,0.0,0.0,0.0,0.0,0.0,0.0,0.0,0.0,0.0,0.0,0.0,0.0,0.0,0.0,0.0,0.0,0.0,0.0,0.0,0.0,0.0,0.0,0.0,0.0,0.0,0.0,0.0,0.0,0.0,0.0,0.0,0.0,0.0,0.0,0.0,0.0,0.0,0.0,0.0,0.0,0.0,0.0,0.0,0.0,0.0,0.0,0.0,0.0,0.0,0.0,0.0,0.0,0.0,0.0,0.0,0.0,0.0,0.0,0.0,0.0,0.0,0.0,0.0,0.0,0.0,0.0,2.3919,2.3951,2.5356,2.5696,2.4841,2.4668,2.3615,0.0,0.0,0.0,0.0,0.0,0.0,0.0,0.0,0.0,0.0,0.0,0.0,0.0,0.0,0.0,0.0,0.0,0.0,0.0,0.0,0.0,0.0,0.0,0.0,0.0,0.0,0.0,0.0,0.0,0.0,0.0,0.0,0.0,0.0,0.0,0.0,0.0,0.0,0.0,0.0,0.0,0.0,0.0,0.0,0.0,0.0,0.0,0.0,1.8513,0.0,0.0,0.0,0.0,0.0,0.0,0.0,0.0,0.0,0.0,0.0,0.0,0.0,0.0,0.0,0.0,0.0,0.0,0.0,0.0,0.0,0.0,0.0,0.0,0.0,0.0,0.0,0.0,0.0,0.0,0.0,0.0,0.0,0.0,0.0,0.0,0.0,0.0,0.0,0.0,0.0,0.0,0.0,0.0,0.0,0.0,0.0,0.0,0.0,0.0,0.0,0.0,0.0,0.0,0.0,0.0,0.0,0.0,0.0,2.4439,2.431,2.5236,2.5326,2.4549,2.5034,2.4078,0.0,0.0,0.0,0.0,0.0,0.0,0.0,0.0,0.0,0.0,0.0,0.0,0.0,0.0,0.0,0.0,0.0,0.0,0.0,0.0,0.0,0.0,0.0,0.0,0.0,0.0,0.0,0.0,0.0,0.0,0.0,0.0,0.0,0.0,0.0,0.0,0.0,0.0,0.0,0.0,0.0,0.0,0.0,0.0,0.0,0.0,0.0,0.0,0.0,0.0,0.0,0.0,0.0,0.0,0.0,0.0,0.0,0.0,0.0,0.0,0.0,0.0,0.0,0.0,0.0,0.0,0.0,0.0,0.0,0.0,0.0,0.0,0.0,0.0,0.0,0.0,0.0,0.0,0.0,0.0,0.0,0.0,0.0,0.0,0.0,0.0,0.0,0.0,0.0,0.0,0.0,0.0,0.0,0.0,0.0,0.0,0.0,0.0,0.0,0.0,0.0,0.0,0.0,0.0,0.0,0.0,0.0,2.3838,2.4736,2.5133,2.5103,2.4849,2.4412,2.5401,2.4372,2.1086,0.0,0.0,0.0,0.0,0.0,0.0,0.0,0.0,0.0,0.0,0.0,0.0,0.0,0.0,0.0,0.0,0.0,0.0,0.0,0.0,0.0,0.0,0.0,0.0,0.0,0.0,0.0,0.0,0.0,0.0,0.0,0.0,0.0,0.0,0.0,0.0,0.0,0.0,1.7917,1.9732,0.0,0.0,0.0,0.0,0.0,0.0,0.0,0.0,1.8591,0.0,0.0,0.0,0.0,0.0,0.0,0.0,0.0,0.0,0.0,0.0,0.0,0.0,0.0,0.0,0.0,0.0,0.0,0.0,0.0,0.0,0.0,0.0,0.0,0.0,0.0,0.0,0.0,0.0,0.0,0.0,0.0,0.0,0.0,0.0,0.0,0.0,0.0,0.0,0.0,0.0,0.0,0.0,0.0,0.0,0.0,0.0,0.0,0.0,0.0,0.0,0.0,0.0,0.0,0.0,0.0,2.2972,2.2669,2.3176,2.4489,2.4217,2.3979,2.3865,2.443,2.3458,2.0803,0.0,0.0,0.0,0.0,0.0,0.0,0.0,0.0,0.0,0.0,0.0,0.0,0.0,0.0,0.0,0.0,0.0,0.0,0.0,0.0,0.0,0.0,0.0,0.0,0.0,0.0,0.0,0.0,0.0,0.0,0.0,0.0,0.0,0.0,0.0,0.0,0.0,0.0,0.0,2.1825,2.2516,0.0,0.0,0.0,0.0,0.0,0.0,0.0,0.0,1.9328,0.0,0.0,0.0,0.0,0.0,0.0,0.0,0.0,0.0,0.0,0.0,0.0,0.0,0.0,0.0,0.0,0.0,0.0,0.0,0.0,0.0,0.0,0.0,0.0,0.0,0.0,0.0,0.0,0.0,0.0,0.0,0.0,0.0,0.0,0.0,0.0,0.0,0.0,0.0,0.0,0.0,0.0,0.0,0.0,0.0,0.0,0.0,0.0,0.0,0.0,0.0,0.0,0.0,0.0,0.0,2.2133,2.3259,2.3828,2.3974,2.4111,2.3859,2.3251,2.3141,2.215,0.0,0.0,0.0,0.0,0.0,0.0,0.0,0.0,0.0,0.0,0.0,0.0,0.0,0.0,0.0,0.0,0.0,0.0,0.0,0.0,0.0,0.0,0.0,0.0,0.0,0.0,0.0,0.0,0.0,0.0,0.0,0.0,0.0,0.0,0.0,0.0,0.0,0.0,0.0,0.0,2.2077,2.2623,2.2704,0.0,0.0,0.0,0.0,0.0,0.0,1.9217,1.9225,0.0,0.0,0.0,0.0,0.0,0.0,0.0,0.0,0.0,0.0,0.0,0.0,0.0,0.0,0.0,0.0,0.0,0.0,0.0,0.0,0.0,0.0,0.0,0.0,0.0,0.0,0.0,0.0,0.0,0.0,0.0,0.0,0.0,0.0,0.0,0.0,0.0,0.0,0.0,0.0,0.0,0.0,0.0,0.0,0.0,0.0,0.0,0.0,0.0,0.0,0.0,0.0,0.0,0.0,0.0,2.1233,2.3398,2.4174,2.3505,2.3841,2.3629,2.2791,2.2288,2.119,0.0,0.0,0.0,0.0,0.0,0.0,0.0,0.0,0.0,0.0,0.0,0.0,0.0,0.0,0.0,0.0,0.0,0.0,0.0,0.0,0.0,0.0,0.0,0.0,0.0,0.0,0.0,0.0,0.0,0.0,0.0,0.0,0.0,0.0,0.0,0.0,0.0,0.0,0.0,0.0,0.0,2.2881,2.3024,2.2297,0.0,0.0,0.0,0.0,1.9542,1.9798,0.0,0.0,0.0,0.0,0.0,0.0,0.0,0.0,0.0,0.0,0.0,0.0,0.0,0.0,0.0,0.0,0.0,0.0,0.0,0.0,0.0,0.0,0.0,0.0,0.0,0.0,0.0,0.0,0.0,0.0,0.0,0.0,0.0,0.0,0.0,0.0,0.0,0.0,0.0,0.0,0.0,0.0,0.0,0.0,0.0,0.0,0.0,0.0,0.0,0.0,0.0,0.0,0.0,0.0,0.0,0.0,2.0508,2.1188,2.2002,2.2911,2.2651,2.2501,2.2614,2.2724,2.1431,0.0,0.0,0.0,0.0,0.0,0.0,0.0,0.0,0.0,0.0,0.0,0.0,0.0,0.0,0.0,0.0,0.0,0.0,0.0,0.0,0.0,0.0,0.0,0.0,0.0,0.0,0.0,0.0,0.0,0.0,0.0,0.0,0.0,0.0,0.0,0.0,0.0,0.0,0.0,0.0,0.0,2.4784,2.4333,2.4191,2.3824,0.0,0.0,2.3661,2.3006,2.2971,0.0,0.0,0.0,0.0,0.0,0.0,0.0,0.0,0.0,0.0,0.0,0.0,0.0,0.0,0.0,0.0,0.0,0.0,0.0,0.0,0.0,0.0,0.0,0.0,0.0,0.0,0.0,0.0,0.0,0.0,0.0,0.0,0.0,0.0,0.0,0.0,0.0,0.0,0.0,0.0,0.0,0.0,0.0,0.0,0.0,0.0,0.0,0.0,0.0,0.0,0.0,0.0,0.0,0.0,0.0,1.8844,2.0854,2.2252,2.3016,2.3134,2.3272,2.3058,2.2505,2.192,2.0555,0.0,0.0,0.0,0.0,0.0,0.0,0.0,0.0,0.0,0.0,0.0,0.0,0.0,0.0,0.0,0.0,0.0,0.0,0.0,0.0,0.0,0.0,0.0,0.0,0.0,0.0,0.0,0.0,0.0,0.0,0.0,0.0,0.0,0.0,0.0,0.0,0.0,0.0,0.0,0.0,0.0,0.0,2.4867,2.3991,0.0,0.0,0.0,2.306,2.2579,0.0,0.0,0.0,0.0,0.0,0.0,0.0,0.0,0.0,0.0,0.0,0.0,0.0,0.0,0.0,0.0,0.0,0.0,0.0,0.0,0.0,0.0,0.0,0.0,0.0,0.0,0.0,0.0,0.0,0.0,0.0,0.0,0.0,0.0,0.0,0.0,0.0,0.0,0.0,0.0,0.0,0.0,0.0,0.0,0.0,0.0,0.0,0.0,0.0,0.0,0.0,0.0,0.0,0.0,0.0,0.0,0.0,2.0974,2.298,2.3738,2.3174,2.3563,2.3381,2.2547,2.1596,0.0,0.0,0.0,0.0,0.0,0.0,0.0,0.0,0.0,0.0,0.0,0.0,0.0,0.0,0.0,0.0,0.0,0.0,0.0,0.0,0.0,0.0,0.0,0.0,0.0,0.0,0.0,1.633,0.0,0.0,0.0,0.0,0.0,0.0,0.0,0.0,0.0,0.0,0.0,0.0,0.0,0.0,2.4085,2.4952,2.4047,2.341,0.0,0.0,2.2971,2.2646,2.3006,2.2788,0.0,0.0,0.0,0.0,0.0,0.0,0.0,0.0,0.0,0.0,0.0,0.0,0.0,0.0,0.0,0.0,0.0,0.0,0.0,0.0,0.0,0.0,0.0,0.0,0.0,0.0,0.0,0.0,0.0,0.0,0.0,0.0,0.0,0.0,0.0,0.0,0.0,0.0,0.0,0.0,0.0,0.0,0.0,0.0,0.0,0.0,0.0,0.0,0.0,0.0,0.0,0.0,0.0,0.0,0.0,2.0401,2.2116,2.291,2.2651,2.2694,2.2758,2.2869,2.2586,2.121,0.0,0.0,0.0,0.0,0.0,0.0,0.0,0.0,0.0,0.0,0.0,0.0,0.0,0.0,0.0,0.0,0.0,0.0,0.0,0.0,0.0,0.0,0.0,0.0,0.0,0.0,0.0,0.0,0.0,0.0,0.0,0.0,0.0,0.0,0.0,0.0,0.0,0.0,0.0,0.0,0.0,2.5564,2.4687,2.5301,2.5697,0.0,0.0,2.5098,2.5063,2.5074,2.4189,2.143,0.0,0.0,0.0,0.0,0.0,0.0,0.0,0.0,0.0,0.0,0.0,0.0,0.0,0.0,0.0,0.0,0.0,0.0,0.0,0.0,0.0,0.0,0.0,0.0,0.0,0.0,0.0,0.0,0.0,0.0,0.0,0.0,0.0,0.0,0.0,0.0,0.0,0.0,0.0,0.0,0.0,0.0,0.0,0.0,0.0,0.0,0.0,0.0,0.0,0.0,0.0,0.0,0.0,1.95,2.0724,2.217,2.2865,2.2812,2.2775,2.2834,2.2888,2.2834,2.1792,0.0,0.0,0.0,0.0,0.0,0.0,0.0,0.0,0.0,0.0,0.0,0.0,0.0,0.0,0.0,0.0,0.0,0.0,0.0,0.0,0.0,0.0,0.0,0.0,0.0,0.0,0.0,0.0,1.9678,2.0011,1.9853,0.0,0.0,0.0,0.0,0.0,0.0,0.0,0.0,0.0,0.0,2.5456,2.5059,2.5205,0.0,0.0,2.4898,2.4743,2.5229,2.44,2.3328,2.2218,2.1086,0.0,0.0,0.0,0.0,0.0,0.0,0.0,0.0,0.0,0.0,0.0,0.0,0.0,0.0,0.0,0.0,0.0,0.0,0.0,0.0,0.0,0.0,0.0,0.0,0.0,0.0,0.0,0.0,0.0,0.0,0.0,0.0,0.0,0.0,0.0,0.0,0.0,0.0,0.0,0.0,0.0,0.0,0.0,0.0,0.0,0.0,0.0,0.0,0.0,0.0,0.0,0.0,1.9744,2.1278,2.2548,2.32,2.32,2.3215,2.3113,2.2902,2.2888,2.2169,0.0,0.0,0.0,0.0,0.0,0.0,0.0,0.0,0.0,0.0,0.0,0.0,0.0,0.0,0.0,0.0,0.0,0.0,0.0,0.0,0.0,0.0,0.0,0.0,0.0,0.0,0.0,0.0,2.1155,2.1288,2.1006,0.0,0.0,0.0,0.0,0.0,0.0,0.0,0.0,0.0,0.0,2.5851,2.5348,2.5263,2.5258,2.5301,2.4826,2.4647,2.5194,2.4412,2.356,2.304,0.0,0.0,0.0,0.0,0.0,0.0,0.0,0.0,0.0,0.0,0.0,0.0,0.0,0.0,0.0,0.0,0.0,0.0,0.0,0.0,0.0,0.0,0.0,0.0,0.0,0.0,0.0,0.0,0.0,0.0,1.7429,0.0,0.0,0.0,0.0,0.0,0.0,0.0,0.0,0.0,0.0,0.0,0.0,0.0,0.0,0.0,0.0,0.0,0.0,0.0,0.0,0.0,0.0,2.0074,2.1946,2.3209,2.3847,2.3847,2.3885,2.3572,2.2917,2.2888,2.2301,2.1011,0.0,0.0,0.0,0.0,0.0,0.0,0.0,0.0,0.0,0.0,0.0,0.0,0.0,0.0,0.0,0.0,0.0,0.0,0.0,0.0,0.0,0.0,0.0,0.0,0.0,0.0,2.1355,2.1385,2.1412,0.0,0.0,0.0,0.0,0.0,0.0,0.0,0.0,0.0,0.0,2.6387,2.7126,2.5539,2.5769,2.5901,2.542,2.53,2.5288,2.5348,2.5673,2.5433,0.0,0.0,0.0,0.0,0.0,0.0,0.0,0.0,0.0,0.0,0.0,0.0,0.0,0.0,0.0,0.0,0.0,0.0,0.0,0.0,0.0,0.0,0.0,0.0,0.0,0.0,0.0,2.3394,2.2648,0.0,0.0,0.0,0.0,0.0,0.0,0.0,0.0,0.0,0.0,0.0,2.4814,2.5867,0.0,0.0,0.0,0.0,0.0,0.0,0.0,0.0,0.0,0.0,0.0,0.0,2.0692,2.2533,2.3455,2.39,2.39,2.39,2.3586,2.2917,2.2888,2.2316,2.1046,0.0,0.0,0.0,0.0,0.0,0.0,0.0,0.0,0.0,0.0,0.0,0.0,0.0,0.0,0.0,0.0,0.0,0.0,0.0,0.0,0.0,0.0,0.0,0.0,0.0,2.1912,0.0,0.0,0.0,0.0,0.0,0.0,0.0,0.0,0.0,0.0,0.0,2.6482,2.6117,2.7072,2.7335,2.5997,2.6298,2.6549,0.0,0.0,0.0,0.0,0.0,0.0,0.0,0.0,0.0,0.0,0.0,0.0,0.0,0.0,2.4202,2.1245,2.0323,1.9955,1.9824,0.0,0.0,0.0,0.0,0.0,0.0,0.0,0.0,0.0,0.0,0.0,0.0,0.0,0.0,2.5346,0.0,2.4061,0.0,0.0,0.0,0.0,0.0,0.0,0.0,0.0,2.7271,2.7912,2.7437,2.8438,2.8292,0.0,2.6925,2.5428,0.0,0.0,0.0,0.0,0.0,0.0,0.0,0.0,2.1414,2.3353,2.372,2.3992,2.4196,2.4007,2.3586,2.2917,2.2888,2.2519,2.1699,2.1452,2.0857,0.0,0.0,0.0,0.0,0.0,0.0,0.0,0.0,0.0,0.0,0.0,0.0,0.0,0.0,0.0,0.0,0.0,0.0,0.0,0.0,0.0,0.0,0.0,2.2903,0.0,0.0,0.0,0.0,0.0,0.0,0.0,0.0,0.0,2.6369,2.7419,2.8119,2.7978,2.8201,2.7976,2.6846,0.0,0.0,0.0,0.0,0.0,0.0,0.0,2.5552,2.5716,2.5151,2.4668,2.4653,2.5493,2.6194,2.6156,0.0,0.0,2.3305,2.2526,2.2354,2.2354,2.2863,2.3304,2.3387,2.3889,2.4118,0.0,0.0,0.0,0.0,0.0,0.0,0.0,0.0,2.6689,2.632,0.0,2.543,0.0,0.0,0.0,0.0,0.0,2.6238,0.0,0.0,2.9728,3.0472,3.0439,3.0456,3.0472,3.0468,2.9967,2.9038,2.7608,2.5127,0.0,0.0,0.0,0.0,0.0,0.0,2.2204,2.4364,2.4183,2.4287,2.483,2.4301,2.3661,2.2939,2.2925,2.291,2.2881,2.2338,2.1735,2.1052,1.989,0.0,0.0,0.0,0.0,0.0,0.0,0.0,0.0,0.0,0.0,0.0,0.0,0.0,0.0,0.0,0.0,0.0,0.0,0.0,0.0,2.3835,0.0,0.0,0.0,0.0,0.0,0.0,0.0,0.0,0.0,0.0,2.8797,2.9064,2.9565,3.0015,0.0,0.0,0.0,0.0,2.6959,2.6958,2.6946,2.6958,2.6958,2.7354,2.7486,2.703,0.0,0.0,2.6285,2.6709,2.7096,2.6607,2.7146,2.7496,2.7248,2.6382,2.5931,2.5917,2.5943,2.6133,2.6396,2.6728,2.7162,3.1648,0.0,0.0,0.0,0.0,2.8654,2.9231,3.0205,2.9944,2.9574,2.9058,2.8179,0.0,0.0,0.0,0.0,0.0,0.0,2.7961,2.9102,2.9549,2.9992,3.0489,3.0489,3.0489,3.0489,3.0363,3.0007,2.9454,2.8326,2.611,2.2959,0.0,0.0,0.0,0.0,2.3941,2.547,2.592,2.6204,2.6384,2.5715,2.4716,2.3297,2.3031,2.3023,2.3224,2.287,2.2455,2.2087,2.1497,0.0,0.0,0.0,0.0,0.0,0.0,0.0,0.0,0.0,0.0,0.0,0.0,0.0,0.0,0.0,0.0,0.0,0.0,0.0,2.4016,2.4204,2.4668,0.0,0.0,0.0,0.0,0.0,0.0,0.0,0.0,0.0,3.1622,3.1528,3.1117,0.0,0.0,2.9884,2.7997,2.8174,2.8411,2.811,2.8053,0.0,0.0,2.7873,2.7762,2.8017,2.8186,2.8155,2.7818,2.8108,2.8341,2.8302,2.8497,2.8613,2.8499,2.7761,2.7136,2.7112,2.7365,2.7593,2.7553,2.7562,2.7261,3.5207,3.3749,3.228,3.17,3.1716,3.1479,3.1784,3.2401,3.2215,3.1802,3.1237,3.0452,2.9435,2.8254,2.7793,0.0,0.0,0.0,2.889,2.9827,2.9827,3.0059,3.0489,3.0489,3.0489,3.0489,3.0422,3.0359,3.03,2.9914,2.8347,2.5735,0.0,0.0,2.4668,2.4856,2.5545,2.6695,2.6634,2.6731,2.6966,2.6069,2.5092,2.4073,2.3672,2.3516,2.3616,2.3523,2.3279,2.295,2.2583,2.2031,0.0,0.0,0.0,0.0,0.0,0.0,0.0,0.0,0.0,0.0,0.0,2.1249,2.0886,0.0,0.0,0.0,2.4154,2.5135,2.5866,2.5967,0.0,0.0,0.0,0.0,0.0,0.0,0.0,3.1551,3.2101,3.2551,3.292,3.2908,3.2555,3.1673,3.1402,3.0824,2.9504,0.0,2.9174,2.8912,2.8669,2.851,2.851,2.8246,2.815,2.8462,2.851,2.855,2.8618,2.8724,2.8882,2.9052,2.9157,2.9236,2.9248,2.877,2.8324,2.8173,2.8317,2.8472,2.8549,2.8325,2.7891,3.795,3.7363,3.496,3.4288,3.4727,3.4076,3.3724,3.3618,3.3582,3.3143,3.244,3.2196,3.1707,3.1023,3.0108,0.0,3.0296,3.0123,3.0185,3.0489,3.0489,3.0489,3.0489,3.0489,3.0489,3.0489,3.0316,3.0284,3.0385,3.0218,2.9805,2.912,2.8147,2.7508,2.7253,2.6804,2.7047,2.7942,2.6885,2.6574,2.7116,2.5909,2.5201,2.5079,2.4654,2.4301,2.4109,2.4224,2.4141,2.373,2.3324,2.3112,2.301,0.0,0.0,0.0,0.0,0.0,0.0,0.0,0.0,0.0,0.0,0.0,0.0,0.0,0.0,0.0,2.6054,0.0,2.8665,2.8497,0.0,0.0,0.0,2.9523,3.0761,3.1675,3.2198,3.219,0.0,0.0,3.3135,3.3516,3.3839,3.3839,3.2747,3.1905,3.1746,3.0506,2.9613,2.9496,2.8973,2.859,2.8618,2.8514,2.8474,2.851,2.851,2.855,2.8724,2.8764,2.8895,2.9,2.9236,2.9341,2.9341,2.9445,2.9546,2.9081,2.8976,2.8976,2.9238,2.9055,2.8712,3.814,3.7983,3.7355,3.6506,3.5533,3.534,3.5082,3.4781,3.4464,3.4041,3.3537,3.2649,3.2091,3.1829,3.1585,3.132,3.1023,3.0985,3.081,3.051,3.0489,3.0489,3.0489,3.0489,3.0489,3.0489,3.0447,3.0166,2.9678,2.9621,2.9501,2.932,2.9078,2.851,2.7696,2.8051,2.834,2.8581,2.8794,2.8722,2.8349,2.7605,2.6798,2.5926,2.5503,2.5155,2.4846,2.4639,2.4599,2.4719,2.4422,2.3984,2.346,2.1716,0.0,0.0,0.0,0.0,0.0,0.0,0.0,0.0,0.0,2.4051,2.2156,0.0,2.5963,0.0,2.6315,2.7505,2.9204,2.89,0.0,0.0,3.1298,3.157,3.3297,3.331,3.3328,3.3772,3.4158,3.4322,3.4047,3.4177,3.4264,3.423,3.3736,3.2804,3.1365,3.1513,3.1304,3.0266,2.9561,2.9184,2.9157,2.8776,2.851,2.851,2.851,2.851,2.855,2.8724,2.8791,2.887,2.891,2.891,2.8961,2.8855,2.8867,2.8882,2.9209,2.9468,2.9209,2.8633,2.8023,3.8209,3.8209,3.8209,3.7663,3.6863,3.688,3.654,3.6012,3.5773,3.5361,3.4738,3.3772,3.3479,3.3678,3.2904,3.2458,3.2308,3.208,3.1523,3.0749,3.0916,3.082,3.0489,3.0158,3.0009,2.9992,2.9715,2.935,2.8969,2.8936,2.8936,2.8969,2.9268,2.9098,2.8551,2.9118,2.9366,2.9243,2.9599,2.9615,2.9243,2.8624,2.7785,2.6769,2.6406,2.5891,2.5217,2.5188,2.5134,2.5017,2.4954,2.4887,2.4799,2.3575,2.2905,0.0,0.0,0.0,0.0,0.0,0.0,0.0,0.0,0.0,0.0,0.0,2.7193,2.7488,2.8569,2.9811,3.1208,3.1048,3.1542,3.318,3.3035,3.3191,3.4298,3.4095,3.4022,3.437,3.438,3.438,3.438,3.438,3.438,3.438,3.4196,3.3583,3.2268,3.1965,3.1576,3.0809,3.0165,2.9678,2.9457,2.8895,2.851,2.851,2.851,2.851,2.851,2.8578,2.8645,2.8657,2.8724,2.8803,2.8803,2.8882,2.8922,2.8973,2.9378,2.9546,2.9091,2.8514,2.8035,3.8372,3.8354,3.8245,3.8209,3.8209,3.8209,3.7756,3.6995,3.6995,3.6544,3.575,3.5044,3.515,3.5695,3.4148,3.3575,3.3723,3.3273,3.2454,3.1412,3.1608,3.1328,3.0601,2.9825,2.939,2.9291,2.8691,2.8359,2.8279,2.826,2.826,2.8293,2.892,2.9314,2.9389,2.9955,3.0108,2.9881,2.9859,2.9853,2.9837,2.9291,2.8509,2.7536,2.728,2.6618,2.548,2.5866,2.581,2.5261,2.5525,2.596,2.6523,2.5876,2.5596,0.0,2.5618,0.0,0.0,0.0,0.0,0.0,0.0,0.0,0.0,2.8531,2.8788,3.0046,3.156,3.2728,3.3518,3.3536,3.3732,3.4327,3.438,3.438,3.438,3.438,3.438,3.438,3.438,3.438,3.438,3.438,3.438,3.438,3.4312,3.3991,3.336,3.2318,3.1589,3.1418,3.0859,3.0203,2.9535,2.8973,2.8618,2.855,2.851,2.851,2.851,2.851,2.851,2.851,2.8645,2.8764,2.8764,2.904,2.916,2.889,2.9164,2.9279,2.8937,2.8764,2.859,3.9169,3.9097,3.8462,3.8209,3.8209,3.8209,3.7756,3.6995,3.6995,3.6544,3.5804,3.5641,3.5641,3.5768,3.5447,3.5032,3.4553,3.448,3.4003,3.327,3.2678,3.2009,3.1276,3.028,2.9473,2.8848,2.8538,2.8078,2.7516,2.7516,2.7497,2.7514,2.8227,2.8774,2.9173,0.0,0.0,0.0,3.0231,3.0108,3.0124,2.9994,2.927,2.7956,2.805,0.0,2.6157,2.6693,2.6974,2.6879,2.7473,0.0,0.0,0.0,0.0,0.0,0.0,0.0,0.0,0.0,0.0,0.0,3.0122,2.9579,3.0186,3.1769,3.288,3.314,3.314,3.3357,3.3987,3.3703,3.375,3.4327,3.4414,3.438,3.438,3.438,3.438,3.438,3.438,3.438,3.438,3.438,3.438,3.438,3.4113,3.3874,3.3736,3.3199,3.2761,3.2439,3.1566,3.062,2.9561,2.9302,2.9,2.8657,2.851,2.8498,2.851,2.8486,2.851,2.851,2.855,2.8578,2.8566,2.863,2.8527,2.8062,2.8055,2.8227,2.8706,2.9028,2.9067,3.9731,0.0,3.8952,3.8571,0.0,3.8209,3.7973,3.7611,3.7593,3.7375,3.6961,3.6562,3.6598,3.6942,3.6146,3.5773,3.574,3.5563,3.5006,3.4125,3.3571,3.2662,3.1451,3.0173,2.9148,2.8418,2.8293,2.7813,2.7,2.7336,2.7229,2.6766,2.7862,2.8516,2.8781,2.9918,3.0489,3.0489,3.0401,3.0342,3.0359,3.0342,2.979,2.8604,0.0,0.0,0.0,0.0,0.0,0.0,0.0,0.0,0.0,0.0,0.0,2.9571,2.9723,3.0119,3.0804,3.1199,3.1957,3.3268,3.3437,3.3017,3.1852,3.3635,3.4757,3.4531,3.4759,3.4906,3.4698,3.4679,3.4632,3.4423,3.4635,3.4702,3.4448,3.438,3.438,3.438,3.438,3.438,3.438,3.438,3.438,3.438,3.423,3.4094,3.4025,3.3444,3.2881,3.2503,3.175,3.0996,3.0393,2.9716,2.9328,2.8988,2.8479,2.8246,2.8474,2.8361,2.8292,2.8466,2.8578,2.8557,2.8174,2.8192,2.8074,2.7515,2.7472,2.7609,2.7861,2.8025,2.8128,4.0274,3.9586,3.946,3.8952,3.8209,3.8209,3.8209,3.8209,0.0,0.0,0.0,3.7502,3.7575,3.81,3.6816,3.6483,3.6891,3.6631,3.5952,3.4984,3.4422,3.3362,3.1792,3.0243,2.9076,2.8408,2.834,2.7896,2.713,2.7618,2.7409,2.6659,2.7765,2.8459,2.8638,2.9731,3.0357,3.0489,3.0489,3.0485,3.0447,3.0485,3.0059,2.9116,2.9299,2.9006,2.8188,2.8428,2.8563,2.8533,2.8648,2.9026,2.9704,3.0312,3.1034,3.194,3.3127,3.3839,3.3988,3.4568,3.4949,3.5081,3.6041,3.5724,3.371,3.5112,3.59,3.5477,3.6184,3.6367,3.5559,3.5705,3.5576,3.4769,3.4986,3.5019,3.4587,3.4448,3.438,3.438,3.438,3.438,3.438,3.438,3.438,3.438,3.438,3.438,3.4196,3.3528,3.2881,3.2516,3.1933,3.1416,3.1122,3.0321,2.958,2.9162,2.8444,2.8011,2.8186,2.8094,2.8048,2.8222,2.8445,2.8278,2.7835,2.7791,2.7673,2.7012,2.7102,2.7189,2.6856,2.6659,2.6756,4.1053,4.0311,3.9659,3.8934,3.8209,3.8209,3.8209,3.8209,3.8209,3.8209,3.8209,3.8082,3.81,3.8191,3.7955,3.7836,3.7737,3.7702,3.7381,0.0,3.5506,3.4269,3.3159,3.1429,3.0197,2.9505,2.9248,2.9058,2.892,2.8739,2.8257,2.7646,2.811,2.8707,2.9234,2.9466,2.986,3.0472,3.0489,3.0405,3.0253,3.0405,3.0038,2.9161,2.9312,2.9082,2.8403,2.8933,2.9546,3.0154,3.0761,3.1444,3.2144,3.2277,3.2674,3.3408,3.3673,3.4094,3.4684,3.4833,3.5164,3.5786,3.6337,3.6346,3.5862,3.6878,3.748,3.7174,3.6875,3.6662,3.6461,3.6149,3.5881,3.5672,3.5382,3.5169,3.507,3.4721,3.4481,3.4467,3.438,3.4399,3.4448,3.4414,3.438,3.438,3.438,3.4278,3.4025,3.377,3.3514,3.3164,3.2563,3.1993,3.1393,3.0831,2.9954,2.8771,2.8577,2.821,2.784,2.7729,2.7692,2.7654,2.7752,2.7666,2.7531,2.7557,2.7287,2.681,2.6663,2.6481,2.6175,2.5887,2.5901,4.1633,4.0528,4.0148,3.9297,3.8209,3.8209,3.8209,3.8209,3.8209,3.8209,3.8209,3.8209,3.8209,3.8209,3.8209,3.814,3.8055,3.8073,3.7846,3.736,3.5865,3.4588,3.3406,3.1812,3.0625,2.9963,3.0211,3.0058,2.9575,2.9746,2.9451,2.866,2.8992,2.9577,3.0206,3.0094,2.9959,2.991,3.029,3.0464,3.038,3.0447,3.0298,2.9865,2.9951,2.986,2.9566,2.9847,3.034,3.1068,3.1416,3.1929,3.2652,3.3083,3.3442,3.3773,3.4194,3.4535,3.4866,3.5263,3.5644,3.5992,3.6909,3.7354,3.7047,3.7576,3.7857,3.7727,3.7359,3.7014,3.6754,3.6723,3.6523,3.5944,3.5959,3.5896,3.5593,3.5382,3.5219,3.5187,3.4971,3.4854,3.4835,3.4568,3.438,3.438,3.438,3.4312,3.4133,3.3825,3.3407,3.2839,3.2238,3.1772,3.1417,3.089,3.0289,2.9626,2.9048,2.8566,2.8102,2.7918,2.7722,2.7557,2.7594,2.7471,2.7213,2.709,2.6844,2.6391,2.6208,2.6061,2.5924,2.5758,2.5753,4.1959,4.0492,4.0492,3.9604,3.8228,3.8209,3.8209,3.8209,3.8209,3.8209,3.8209,3.8209,3.8209,3.8209,3.8209,3.8209,3.8209,3.8209,3.8003,3.7524,3.6058,3.4797,3.3776,3.2279,3.1225,3.0752,3.1228,3.1076,3.0454,3.0803,3.0542,2.9657,2.971,3.0118,3.0842,3.0543,3.0165,2.9816,3.0249,3.034,3.0046,3.0046,3.0112,3.0241,3.0224,3.0323,3.0472,3.0489,3.0903,3.1763,3.1846,3.2266,3.3127,3.3723,3.4038,3.4104,3.4568,3.4899,3.4932,3.5578,3.6075,3.6257,3.7466,3.8157,3.8109,3.8103,3.8087,3.7988,3.7743,3.7419,3.7104,3.724,3.715,3.6368,3.6492,3.6476,3.6164,3.5976,3.5881,3.5849,3.5591,3.535,3.5299,3.5019,3.4769,3.4635,3.4481,3.437,3.4182,3.3659,3.299,3.2326,3.1712,3.1476,3.1382,3.0923,3.0463,3.0339,2.9576,2.8946,2.8564,2.8243,2.7937,2.7639,2.7634,2.7399,2.6861,2.668,2.6507,2.6173,2.6077,2.597,2.5923,2.591,2.5758,4.1959,4.0601,4.0492,3.9604,3.8263,3.8209,3.8209,3.8209,3.8209,3.8209,3.8209,3.8209,3.8209,3.8209,3.8209,3.8209,3.8209,3.8209,3.809,3.7702,3.621,3.532,3.4868,3.3276,3.2448,3.2308,3.2263,3.216,3.2003,3.1864,3.1283,3.0325,2.9673,2.9792,3.0368,3.019,3.025,3.0821,3.0621,2.9897,2.8674,2.8591,2.8887,2.9479,2.9512,2.981,3.0539,3.0489,3.1135,3.2431,3.2597,3.3226,3.4468,3.4774,3.4783,3.4783,3.4849,3.4899,3.4965,3.5595,3.6307,3.6986,3.7739,3.851,3.9003,3.8865,3.8611,3.8375,3.8075,3.7815,3.777,3.7596,3.7435,3.7255,3.6938,3.6677,3.6616,3.618,3.5881,3.5881,3.5928,3.5832,3.5817,3.5689,3.5544,3.5136,3.4681,3.4253,3.3787,3.3067,3.2425,3.1806,3.1503,3.1457,3.1368,3.0982,3.0454,2.9904,2.9666,2.9283,2.8836,2.8535,2.8283,2.7842,2.7582,2.7399,2.6882,2.6506,2.6565,2.6411,2.6258,2.6131,2.5957,2.5945,2.584,4.1959,4.051,4.0492,3.9623,3.8317,3.8209,3.8209,3.8209,3.8209,3.8209,3.8209,3.8209,3.8209,3.8209,3.8209,3.8209,3.8209,3.8209,3.8107,3.7809,3.6729,3.5855,3.5114,3.4065,3.3266,3.2789,3.2607,3.2506,3.2473,3.2301,3.1987,3.1585,3.1079,3.1007,3.1228,3.0986,3.08,3.0628,3.032,2.9644,2.8808,2.8868,2.9549,3.0522,3.0274,3.0621,3.1653,3.1802,3.2304,3.3243,3.3326,3.3829,3.4833,3.4899,3.4899,3.4899,3.4899,3.5098,3.5528,3.6241,3.6986,3.7715,3.8427,3.899,3.9265,3.9175,3.904,3.8892,3.8286,3.7828,3.7698,3.7569,3.751,3.748,3.727,3.715,3.7165,3.6952,3.6861,3.6831,3.6569,3.6383,3.6321,3.6071,3.5849,3.5501,3.4872,3.4209,3.3868,3.2776,3.1888,3.1555,3.1221,3.0988,3.0959,3.0816,3.0462,3.0282,3.019,2.9931,2.9359,2.9156,2.8921,2.8201,2.8117,2.7835,2.7268,2.7074,2.7007,2.6714,2.6465,2.6339,2.6258,2.6258,2.6188,4.225,4.0961,4.0419,3.9423,3.8227,3.8209,3.8209,3.8209,3.8209,3.8209,3.8209,3.8209,3.8209,3.8209,3.8209,3.8209,3.8209,3.8209,3.8106,3.7896,3.7156,3.6405,3.566,3.4857,3.4178,3.3609,3.3214,3.2868,3.2625,3.2456,3.2493,3.2617,3.244,3.2455,3.2628,3.2386,3.1979,3.1495,3.1125,3.07,3.0292,3.0168,3.0547,3.1205,3.0986,3.1421,3.2619,3.2685,3.3027,3.374,3.3812,3.4137,3.4833,3.4899,3.4899,3.4899,3.4899,3.523,3.5959,3.6688,3.7433,3.8162,3.8901,3.9315,3.9315,3.9315,3.9245,3.9094,3.8556,3.8075,3.7889,3.77,3.7612,3.7612,3.7553,3.751,3.748,3.751,3.748,3.7464,3.7119,3.6907,3.6846,3.6476,3.6149,3.604,3.5146,3.4196,3.3847,3.2676,3.1651,3.1309,3.0843,3.067,3.0612,3.0627,3.0612,3.0612,3.0552,3.0387,2.9976,2.9901,2.9639,2.8985,2.8889,2.8538,2.7901,2.7683,2.733,2.6748,2.6521,2.6533,2.6452,2.6487,2.643,4.3031,4.1823,4.0161,3.9024,3.8227,3.8209,3.8209,3.8209,3.8209,3.8209,3.8209,3.8209,3.8209,3.8209,3.8209,3.8209,3.8209,3.8209,3.8192,3.8103,3.7379,3.6979,3.6854,3.593,3.5398,3.5112,3.4375,3.3587,3.2747,3.2561,3.2757,3.3424,3.3423,3.3809,3.4263,3.4074,3.4027,3.3783,3.351,3.3471,3.3345,3.252,3.1633,3.1008,3.1201,3.1951,3.2685,3.2735,3.3061,3.3773,3.3862,3.417,3.48,3.4899,3.4899,3.4899,3.4932,3.5247,3.5992,3.6754,3.7483,3.8195,3.8917,3.9315,3.9315,3.9315,3.9191,3.8876,3.8805,3.8722,3.8639,3.8189,3.7886,3.7844,3.7655,3.7539,3.751,3.751,3.751,3.751,3.745,3.7375,3.7405,3.6998,3.6708,3.6461,3.563,3.4545,3.365,3.2719,3.175,3.1024,3.0686,3.0612,3.0612,3.0612,3.0612,3.0612,3.0612,3.0582,3.0568,3.0463,3.0085,2.9763,2.9639,2.9219,2.857,2.7953,2.7384,2.6939,2.6726,2.6658,2.6521,2.6487,2.6465,4.3166,4.22,4.0359,3.9404,3.9095,3.8492,3.8209,3.8209,3.8209,3.8209,3.8209,3.8209,3.8209,3.8209,3.8209,3.8209,3.8209,3.8209,3.8209,3.8172,3.7901,3.7484,3.6995,3.6604,3.6156,3.5672,3.522,3.4702,3.4216,3.4093,3.4129,3.4214,3.4266,3.4424,3.4617,3.4577,3.4521,3.4503,3.42,3.4064,3.4093,3.397,3.3726,3.3309,3.2639,3.2862,3.4094,3.4104,3.4237,3.4485,3.4502,3.4601,3.4866,3.4899,3.4899,3.4949,3.5346,3.5926,3.6671,3.74,3.8112,3.8808,3.9133,3.9315,3.9315,3.9299,3.9245,3.9164,3.9121,3.9121,3.8996,3.8556,3.8148,3.7915,3.7815,3.7685,3.7569,3.751,3.751,3.751,3.751,3.751,3.748,3.7331,3.7225,3.7055,3.5837,3.4738,3.4057,3.2809,3.1515,3.1132,3.0807,3.0612,3.0612,3.0612,3.0612,3.0612,3.0612,3.0612,3.0598,3.0598,3.0282,3.0221,3.016,2.9825,2.9156,2.8602,2.7934,2.7384,2.7129,2.6816,2.6602,2.6555,2.6521,4.336,4.2492,4.1167,4.0283,3.9772,3.9118,3.8624,3.8342,3.8289,3.8274,3.8209,3.8209,3.8209,3.8209,3.8209,3.8209,3.8209,3.8209,3.8209,3.8209,3.8209,3.7919,3.7466,3.7375,3.7104,3.6548,3.6092,3.566,3.5206,3.5119,3.5155,3.5241,3.5241,3.5364,3.5485,3.5537,3.5518,3.5406,3.5219,3.5105,3.5136,3.529,3.5418,3.5248,3.4315,3.4102,3.5038,3.5171,3.5102,3.493,3.5001,3.5041,3.4906,3.4899,3.4899,3.4982,3.5595,3.634,3.7052,3.7798,3.851,3.9216,3.9315,3.9315,3.9315,3.9315,3.9315,3.9315,3.9315,3.9315,3.9218,3.8903,3.8544,3.823,3.8087,3.7931,3.7655,3.7626,3.7612,3.7539,3.751,3.751,3.751,3.751,3.7354,3.718,3.5815,3.4922,3.4229,3.2984,3.1638,3.1495,3.1117,3.0925,3.0836,3.0777,3.0642,3.0612,3.0612,3.0612,3.0612,3.0612,3.0612,3.0612,3.0477,3.019,2.9763,2.9219,2.8634,2.7986,2.7504,2.7196,2.6905,2.6645,2.6611,4.364,4.2954,4.2582,4.1511,4.0288,4.0003,3.9421,3.8598,3.851,3.8417,3.8307,3.8242,3.8242,3.8225,3.8209,3.8209,3.8209,3.8209,3.8209,3.8209,3.8209,3.8209,3.81,3.8082,3.8064,3.792,3.7155,3.6332,3.569,3.5627,3.5828,3.6274,3.6364,3.6576,3.7226,3.7066,3.706,3.6872,3.6744,3.6829,3.6933,3.6545,3.6399,3.6395,3.5963,3.5635,3.547,3.5705,3.5554,3.5078,3.5241,3.5258,3.4977,3.4923,3.4916,3.5081,3.5644,3.6373,3.7119,3.788,3.8626,3.9166,3.9315,3.9315,3.9315,3.9315,3.9315,3.9315,3.9315,3.9315,3.9315,3.9245,3.9067,3.8832,3.8516,3.8262,3.8017,3.7886,3.7815,3.7553,3.751,3.751,3.751,3.751,3.7259,3.6582,3.5827,3.4946,3.4085,3.3058,3.2416,3.1977,3.1566,3.1263,3.1131,3.0955,3.0747,3.0612,3.0612,3.0612,3.0612,3.0612,3.0612,3.0612,3.0612,3.0342,3.0115,2.9594,2.9282,2.8698,2.8182,2.7736,2.7471,2.7263,2.6871,4.4214,4.39,4.31,4.2177,4.1159,4.0419,3.9582,3.8825,3.877,3.8743,3.8652,3.8496,3.8417,3.8368,3.8274,3.8209,3.8209,3.8209,3.8209,3.8209,3.8209,3.8209,3.8209,3.8209,3.8209,3.8174,3.7905,3.7533,3.7179,3.7074,3.7184,3.722,3.722,3.7309,3.7485,3.7503,3.741,3.7239,3.7201,3.7143,3.7009,3.6908,3.6849,3.6829,3.6713,3.6509,3.6191,3.5989,3.5798,3.5571,3.5666,3.5594,3.5287,3.5024,3.5148,3.5661,3.6357,3.7085,3.7814,3.851,3.9033,3.9265,3.9315,3.9315,3.9315,3.9315,3.9315,3.9315,3.9315,3.9315,3.9315,3.9315,3.9164,3.8832,3.8738,3.8572,3.8262,3.803,3.7786,3.7553,3.751,3.751,3.751,3.751,3.718,3.644,3.5789,3.5042,3.4191,3.3213,3.2617,3.2367,3.1977,3.1623,3.1466,3.1278,3.1043,3.0777,3.0672,3.0612,3.0612,3.0612,3.0612,3.0612,3.0612,3.0538,3.0312,3.0085,2.9763,2.9501,2.9062,2.8666,2.8279,2.7901,2.7504,4.4482,4.443,4.3774,4.2838,4.1801,4.1059,4.0108,3.9114,3.9021,3.8964,3.8881,3.871,3.8649,3.8621,3.8419,3.8322,3.8305,3.8241,3.8209,3.8209,3.8209,3.8209,3.8209,3.8209,3.8209,3.8209,3.8209,3.8141,3.8039,3.8021,3.7951,3.7846,3.7828,3.7757,3.7721,3.7703,3.7576,3.7334,3.7297,3.7201,3.7046,3.6989,3.6989,3.6989,3.6989,3.6891,3.6687,3.643,3.6165,3.5955,3.589,3.5798,3.5588,3.5677,3.5877,3.6269,3.7128,3.7894,3.8254,3.8825,3.9315,3.9315,3.9315,3.9315,3.9315,3.9315,3.9315,3.9315,3.9315,3.9315,3.9315,3.9315,3.9191,3.8996,3.8985,3.8794,3.846,3.8103,3.7786,3.7583,3.751,3.751,3.751,3.7494,3.7038,3.6248,3.5679,3.4952,3.4155,3.3332,3.2993,3.2738,3.2437,3.2132,3.1851,3.161,3.1365,3.1043,3.0747,3.0672,3.0612,3.0612,3.0612,3.0612,3.0612,3.0612,3.0447,3.0463,3.0267,3.0054,2.9763,2.9328,2.8871,2.8492,2.8136,4.4482,4.4482,4.4482,4.3473,4.2085,4.1903,4.086,3.9386,3.9224,3.9129,3.8993,3.8935,3.8906,3.8862,3.8652,3.8525,3.8494,3.8387,3.8274,3.8257,3.8241,3.8224,3.8209,3.8209,3.8209,3.8209,3.8209,3.8192,3.8175,3.8175,3.8209,3.8158,3.8141,3.8107,3.7934,3.7934,3.7721,3.7446,3.7353,3.7239,3.7029,3.6989,3.6989,3.6989,3.6989,3.697,3.693,3.6996,3.6719,3.6097,3.6084,3.6143,3.6168,3.6732,3.6967,3.6909,3.8082,3.8531,3.8602,3.9101,3.9458,3.9405,3.9405,3.9299,3.9299,3.9315,3.9315,3.9315,3.9315,3.9315,3.9315,3.9315,3.9272,3.9315,3.9245,3.9002,3.8504,3.816,3.7873,3.7642,3.7539,3.751,3.751,3.751,3.6846,3.5884,3.5426,3.4794,3.383,3.3277,3.3298,3.3065,3.2807,3.2547,3.2244,3.2076,3.1794,3.1423,3.1043,3.0807,3.0642,3.0612,3.0612,3.0612,3.0612,3.0612,3.0612,3.0598,3.0598,3.0417,3.0099,2.9777,2.9484,2.9205,2.8876,4.4482,4.4482,4.4482,4.3543,4.2098,4.1986,4.104,3.9595,3.9502,3.9432,3.9399,3.9215,3.9115,3.9087,3.8888,3.8785,3.8773,3.8713,3.859,3.8449,3.8415,3.8322,3.8242,3.8209,3.8209,3.8209,3.8209,3.8209,3.8209,3.8209,3.8209,3.8209,3.8192,3.8192,3.8124,3.8124,3.7986,3.7757,3.7558,3.7428,3.7239,3.7085,3.6989,3.6989,3.7007,3.7007,3.706,3.7532,3.7456,3.6821,3.7026,3.7141,3.7206,3.7698,3.8157,3.8502,3.8881,3.9394,3.973,3.9952,3.9986,3.9755,3.9746,3.9616,3.9325,3.9299,3.9299,3.9315,3.9315,3.9315,3.9315,3.9315,3.9315,3.9315,3.9315,3.9137,3.8738,3.846,3.8148,3.7844,3.7642,3.7553,3.7539,3.7431,3.6972,3.5837,3.5315,3.498,3.3878,3.3293,3.3293,3.3293,3.3091,3.2888,3.2683,3.2504,3.2228,3.1838,3.1408,3.0984,3.0777,3.0612,3.0612,3.0612,3.0612,3.0612,3.0612,3.0598,3.0612,3.0612,3.0477,3.016,3.0296,3.0115,2.9763,4.4482,4.4482,4.4482,4.375,4.2549,4.2173,4.1285,4.0209,3.9739,3.9608,3.9564,3.9445,3.9362,3.9335,3.9115,3.9017,3.9021,3.8954,3.8743,3.851,3.8382,3.8289,3.8225,3.8209,3.8209,3.8209,3.8209,3.8209,3.8209,3.8209,3.8209,3.8209,3.8209,3.8209,3.8192,3.8192,3.8089,3.7916,3.7775,3.7631,3.7428,3.7222,3.7143,3.7105,3.7083,3.7095,3.7479,3.8199,3.8251,3.7772,3.7962,3.8314,3.8363,3.889,3.9318,3.9571,3.9823,4.0165,4.0305,4.04,4.0319,4.0154,4.0121,4.002,3.9816,3.9651,3.9563,3.9563,3.9422,3.9342,3.9315,3.9315,3.9315,3.9315,3.9315,3.9148,3.8832,3.8639,3.8432,3.8132,3.786,3.7655,3.7655,3.7599,3.6956,3.6121,3.5552,3.4857,3.4004,3.3609,3.3293,3.3293,3.3293,3.3091,3.2996,3.2888,3.2614,3.2188,3.1823,3.1379,3.0984,3.0717,3.0628,3.0628,3.0612,3.0612,3.0612,3.0612,3.0612,3.0612,3.0612,3.0612,3.0612,3.0612,3.0312,4.4482,4.4482,4.4482,4.4045,4.32,4.2455,4.1661,4.0741,4.0078,3.9721,3.9627,3.9608,3.9583,3.9577,3.9335,3.9256,3.9242,3.9106,3.8877,3.8667,3.8467,3.834,3.8274,3.8225,3.8209,3.8209,3.8209,3.8209,3.8209,3.8209,3.8209,3.8209,3.8209,3.8209,3.8209,3.8227,3.8143,3.8167,3.8151,3.8205,3.8113,3.7962,3.7865,3.777,3.7594,3.7762,3.8304,3.8936,3.9094,3.8409,3.9059,3.935,3.9491,4.0165,4.0399,4.0271,4.0631,4.0868,4.0642,4.0659,4.0538,4.049,4.0466,4.0424,4.0294,4.0079,3.9935,3.9944,3.9625,3.952,3.9432,3.9379,3.9352,3.9325,3.9315,3.9164,3.8958,3.8832,3.8694,3.8476,3.8177,3.7988,3.7886,3.7679,3.7255,3.6483,3.5855,3.4984,3.4209,3.3656,3.3403,3.3293,3.3293,3.3293,3.3266,3.324,3.2915,3.2574,3.2244,3.1823,3.1234,3.0955,3.0747,3.0628,3.0612,3.0612,3.0612,3.0612,3.0612,3.0612,3.0612,3.0612,3.0612,3.0612,3.0447,4.4482,4.4482,4.4482,4.4045,4.3332,4.3069,4.2187,4.0854,4.0628,4.0234,3.9739,3.9646,3.9683,3.9646,3.9621,3.9527,3.9558,3.9444,3.9296,3.9059,3.8829,3.8621,3.8467,3.8343,3.8227,3.8227,3.8209,3.8209,3.8209,3.8209,3.8209,3.8209,3.8209,3.8227,3.8228,3.8319,3.8536,3.892,3.8941,3.9121,3.948,3.9365,3.9156,3.898,3.883,3.8869,3.9147,3.9814,4.0133,4.0063,4.0095,4.0235,4.0358,4.0902,4.1209,4.1195,4.1256,4.1408,4.1363,4.1255,4.1186,4.089,4.0849,4.0731,4.0424,4.0368,4.0311,4.0269,4.0195,4.0003,3.9807,3.9772,3.9668,3.9484,3.9352,3.9299,3.9191,3.8942,3.8805,3.8667,3.8488,3.8307,3.8278,3.8017,3.7508,3.6857,3.6079,3.5181,3.4489,3.3857,3.3514,3.3372,3.3293,3.3293,3.3293,3.3266,3.3118,3.2888,3.2629,3.2299,3.1709,3.1321,3.1175,3.0925,3.0612,3.0612,3.0612,3.0612,3.0612,3.0612,3.0612,3.0612,3.0612,3.0612,3.0612,4.4551,4.4482,4.4482,4.4238,4.3839,4.3444,4.2787,4.1999,4.1529,4.1135,4.0797,4.0722,4.0722,4.0685,4.0328,4.0159,4.0021,3.9607,3.9335,3.9156,3.8993,3.9036,3.9212,3.8942,3.8742,3.8334,3.8209,3.8209,3.8209,3.8245,3.8209,3.8209,3.8209,3.8464,3.8716,3.8752,3.9188,3.975,3.9824,3.9987,4.0275,4.0235,3.9951,3.9784,3.9832,3.9975,3.994,4.0625,4.0959,4.1029,4.099,4.099,4.1025,4.1358,4.1569,4.1604,4.1604,4.1604,4.1604,4.1582,4.1475,4.1295,4.1295,4.1163,4.096,4.0802,4.07,4.0635,4.0514,4.0311,4.0154,4.0129,3.9978,3.9867,3.9677,3.959,3.952,3.9255,3.904,3.8985,3.875,3.8628,3.8472,3.8303,3.8112,3.7605,3.6802,3.5959,3.5177,3.4525,3.3746,3.3482,3.3356,3.3293,3.3293,3.3266,3.324,3.3118,3.3011,3.2699,3.2272,3.1964,3.1724,3.1292,3.0807,3.0642,3.0612,3.0612,3.0612,3.0612,3.0612,3.0612,3.0612,3.0612,3.0612,4.4659,4.4542,4.4524,4.451,4.4388,4.3782,4.3388,4.3125,4.2511,4.2061,4.1967,4.1986,4.1742,4.1779,4.1267,4.1004,4.0759,4.028,3.9957,3.9917,3.9793,3.9977,4.0211,4.0018,3.9579,3.8673,3.8751,3.8698,3.8517,3.839,3.8408,3.8263,3.8209,3.8589,3.9187,3.9441,3.9786,4.0546,4.0673,4.0836,4.0999,4.0906,4.0661,4.0453,4.0562,4.0793,4.0787,4.1183,4.1552,4.1604,4.1604,4.1604,4.1604,4.1604,4.1604,4.1604,4.1604,4.1604,4.1604,4.1604,4.1582,4.1604,4.1582,4.1582,4.1475,4.1277,4.114,4.1007,4.0866,4.0635,4.0514,4.0514,4.0466,4.0343,4.0104,3.9986,3.9849,3.9573,3.9415,3.9245,3.9067,3.8931,3.8794,3.8639,3.8544,3.8322,3.7516,3.6662,3.5886,3.5101,3.4319,3.3631,3.3498,3.3346,3.3319,3.3293,3.324,3.324,3.3214,3.3011,3.2711,3.241,3.2048,3.1452,3.1043,3.0836,3.0672,3.0612,3.0612,3.0612,3.0612,3.0612,3.0612,3.0612,3.0612,4.4783,4.4653,4.4672,4.4605,4.4496,4.4332,4.3914,4.3332,4.3163,4.2675,4.2117,4.2023,4.2136,4.2023,4.1929,4.1798,4.1635,4.1282,4.1287,4.1319,4.122,4.1371,4.1318,4.1151,4.0806,4.049,4.0232,3.9875,3.9314,3.917,3.8934,3.8391,3.8354,3.877,3.9369,3.9496,4.0293,4.1325,4.1506,4.1759,4.214,4.2192,4.2039,4.1607,4.1548,4.1402,4.1402,4.1499,4.1604,4.1604,4.1604,4.1604,4.1604,4.1604,4.1604,4.1604,4.1604,4.1604,4.1604,4.1604,4.1604,4.1604,4.1604,4.1604,4.1582,4.1538,4.1431,4.1431,4.1386,4.1249,4.0954,4.0907,4.0731,4.0521,4.0368,4.0237,3.9995,3.9807,3.9625,3.9432,3.9282,3.9148,3.904,3.8931,3.8821,3.8585,3.8001,3.7101,3.6239,3.5497,3.4758,3.4146,3.3674,3.3503,3.3346,3.3319,3.3266,3.3266,3.3266,3.3266,3.2985,3.2738,3.2327,3.1794,3.135,3.1102,3.0925,3.0717,3.0642,3.0642,3.0642,3.0612,3.0612,3.0612,3.0612,4.4919,4.4815,4.4719,4.4653,4.4592,4.4528,4.4275,4.3951,4.3914,4.3707,4.3393,4.3281,4.3281,4.3187,4.2793,4.2455,4.2117,4.1986,4.1986,4.1986,4.1991,4.2246,4.2408,4.2244,4.2279,4.2206,4.2044,4.1143,4.0075,3.9985,3.9713,3.955,3.9387,3.9804,4.0419,4.0691,4.1216,4.2085,4.2339,4.2484,4.2865,4.2919,4.2728,4.247,4.2142,4.1931,4.174,4.1631,4.1587,4.1604,4.1604,4.1604,4.1604,4.1604,4.1604,4.1604,4.1604,4.1604,4.1604,4.1604,4.1604,4.1604,4.1604,4.1604,4.1604,4.1604,4.1604,4.1604,4.1604,4.1538,4.1318,4.1277,4.1192,4.1036,4.0849,4.0628,4.0427,4.0121,3.9841,3.9599,3.9388,3.9299,3.9245,3.9148,3.9094,3.8794,3.8417,3.7616,3.6672,3.6007,3.5334,3.4378,3.3822,3.3607,3.3424,3.3346,3.3346,3.3346,3.3293,3.3293,3.324,3.3011,3.2683,3.2244,3.1851,3.1552,3.1219,3.1043,3.0866,3.0672,3.0642,3.0612,3.0612,3.0612,3.0612,4.5068,4.4931,4.4821,4.4776,4.4725,4.4611,4.4537,4.4524,4.4477,4.4426,4.4482,4.4444,4.4407,4.4327,4.382,4.3163,4.2511,4.2567,4.2624,4.2661,4.268,4.2962,4.3282,4.3293,4.3172,4.3277,4.3047,4.2359,4.1053,4.0745,4.0637,4.0347,4.042,4.089,4.1433,4.1433,4.2212,4.2665,4.2919,4.2919,4.2919,4.2844,4.2749,4.2609,4.2391,4.2163,4.1892,4.1762,4.1648,4.1626,4.1604,4.1604,4.1604,4.1604,4.1604,4.1604,4.1604,4.1604,4.1604,4.1604,4.1604,4.1604,4.1604,4.1604,4.1604,4.1604,4.1604,4.1604,4.1604,4.1604,4.152,4.1582,4.1565,4.1498,4.1277,4.1047,4.0836,4.0549,4.0246,3.9944,3.9625,3.9432,3.9379,3.9272,3.9191,3.9175,3.8799,3.8311,3.741,3.6731,3.5941,3.467,3.3949,3.3736,3.3555,3.3398,3.3424,3.3477,3.3372,3.3293,3.3293,3.324,3.2931,3.2645,3.2535,3.2231,3.1781,3.1336,3.1102,3.091,3.0732,3.0612,3.0612,3.0612,3.0612,4.5192,4.508,4.5068,4.4979,4.4877,4.4738,4.4685,4.4672,4.4584,4.4482,4.451,4.4496,4.4496,4.4426,4.4388,4.4219,4.4125,4.3975,4.3881,4.3862,4.3919,4.3994,4.4219,4.3841,4.3654,4.3695,4.3267,4.2468,4.176,4.1578,4.1216,4.0836,4.0854,4.0945,4.1795,4.1886,4.2121,4.2755,4.2919,4.2919,4.2881,4.2747,4.267,4.2589,4.243,4.2207,4.2002,4.1895,4.1827,4.167,4.1626,4.1604,4.1604,4.1604,4.1604,4.1604,4.1604,4.1604,4.1604,4.1604,4.1604,4.1604,4.1604,4.1604,4.1604,4.1604,4.1604,4.1604,4.1604,4.1604,4.1604,4.1604,4.1604,4.1604,4.1498,4.1277,4.1071,4.086,4.0549,4.0328,4.0028,3.9687,3.9494,3.9405,3.9315,3.9272,3.9172,3.8656,3.7975,3.7162,3.617,3.4797,3.4176,3.3965,3.3736,3.3539,3.3503,3.3607,3.345,3.3309,3.3293,3.3293,3.3293,3.3065,3.2985,3.2769,3.2259,3.1809,3.1423,3.1131,3.0925,3.0747,3.0612,3.0612,3.0612,4.5256,4.5203,4.5136,4.508,4.501,4.4858,4.4827,4.4815,4.4745,4.4685,4.4619,4.4619,4.4584,4.4528,4.4482,4.4482,4.4482,4.4482,4.4482,4.4482,4.4482,4.4482,4.4435,4.4262,4.4109,4.3825,4.3525,4.3211,4.2668,4.2395,4.214,4.1886,4.1832,4.2031,4.2285,4.2375,4.2556,4.2829,4.2919,4.2919,4.2881,4.2824,4.2767,4.2767,4.2571,4.2412,4.229,4.2166,4.2103,4.1973,4.187,4.1784,4.174,4.1675,4.1604,4.1604,4.1604,4.1604,4.1604,4.1604,4.1604,4.1604,4.1604,4.1604,4.1604,4.1604,4.1604,4.1604,4.1604,4.1604,4.1604,4.1604,4.1604,4.1604,4.1604,4.152,4.13,4.1071,4.0836,4.0628,4.0434,4.0112,3.9799,3.9582,3.9468,3.9379,3.9252,3.8868,3.7996,3.696,3.5901,3.4743,3.4366,3.4217,3.3975,3.3771,3.3642,3.3642,3.345,3.3361,3.3293,3.3293,3.3293,3.3293,3.3187,3.2931,3.2617,3.2315,3.1951,3.1523,3.1131,3.0955,3.0807,3.0612,3.0612,4.5277,4.5297,4.5181,4.5148,4.5136,4.5003,4.4962,4.4943,4.4914,4.4833,4.4764,4.4712,4.4632,4.4551,4.451,4.4482,4.4482,4.4482,4.4482,4.4482,4.4482,4.4482,4.4454,4.4411,4.4244,4.4091,4.3761,4.3456,4.3248,4.3051,4.2904,4.2919,4.2666,4.2774,4.2846,4.2847,4.2865,4.2883,4.2919,4.2919,4.29,4.29,4.29,4.2862,4.2749,4.265,4.2589,4.247,4.2369,4.2103,4.1977,4.187,4.1784,4.167,4.1604,4.1604,4.1604,4.1604,4.1604,4.1604,4.1604,4.1604,4.1604,4.1604,4.1604,4.1604,4.1604,4.1604,4.1604,4.1604,4.1604,4.1604,4.1604,4.1604,4.1604,4.1604,4.156,4.134,4.1186,4.1071,4.0866,4.0635,4.0294,3.9885,3.9644,3.9494,3.9265,3.9013,3.8164,3.7102,3.6282,3.5317,3.4939,3.4725,3.4382,3.4142,3.3991,3.3745,3.3555,3.3424,3.3424,3.3346,3.3293,3.3293,3.3293,3.3187,3.2958,3.2699,3.2437,3.2048,3.1652,3.1278,3.1014,3.0807,3.0642,4.5277,4.5277,4.5286,4.5267,4.5256,4.5167,4.5091,4.5061,4.4974,4.4907,4.487,4.4757,4.4693,4.4659,4.4565,4.451,4.4482,4.4482,4.4482,4.4482,4.4482,4.4482,4.4454,4.4321,4.4185,4.4109,4.3889,4.3612,4.3355,4.3285,4.3105,4.2939,4.292,4.2919,4.2919,4.2919,4.2919,4.2919,4.2919,4.2919,4.2919,4.2919,4.2919,4.2919,4.2881,4.2805,4.2629,4.2571,4.2452,4.2107,4.2044,4.1913,4.1827,4.1714,4.167,4.1604,4.1604,4.1604,4.1604,4.1604,4.1604,4.1604,4.1604,4.1604,4.1604,4.1604,4.1604,4.1604,4.1604,4.1604,4.1604,4.1604,4.1604,4.1604,4.1604,4.1604,4.1604,4.1582,4.1453,4.1453,4.1277,4.103,4.0896,4.0538,4.0087,3.9901,3.9601,3.9349,3.8622,3.7665,3.7036,3.6282,3.5769,3.5383,3.4921,3.466,3.4437,3.4147,3.3899,3.372,3.3617,3.3529,3.3398,3.3293,3.3293,3.3293,3.3266,3.2985,3.2711,3.252,3.2216,3.1766,3.1321,3.1043,3.0836,4.5277,4.5277,4.5277,4.5277,4.5297,4.5235,4.5213,4.5213,4.517,4.5084,4.5003,4.4902,4.477,4.4712,4.4659,4.4565,4.4515,4.4482,4.4482,4.4482,4.4482,4.4482,4.444,4.4411,4.435,4.4277,4.4079,4.3921,4.3825,4.351,4.3285,4.3124,4.2995,4.2919,4.2919,4.2919,4.2919,4.2919,4.2919,4.2919,4.2919,4.2919,4.2919,4.2919,4.2919,4.2881,4.2805,4.2786,4.2671,4.2532,4.2391,4.2187,4.1977,4.1849,4.1719,4.1626,4.1626,4.1604,4.1604,4.1604,4.1604,4.1604,4.1604,4.1604,4.1604,4.1604,4.1604,4.1604,4.1604,4.1604,4.1604,4.1604,4.1604,4.1604,4.1604,4.1604,4.1604,4.1604,4.1604,4.152,4.1498,4.1368,4.1323,4.1232,4.0748,4.0336,4.0003,3.9596,3.8904,3.8314,3.77,3.7152,3.6636,3.6124,3.5654,3.5284,3.4905,3.4642,3.4363,3.4203,3.4089,3.371,3.3581,3.3424,3.3335,3.3361,3.3293,3.3145,3.2942,3.2711,3.2492,3.2201,3.1766,3.1321,3.1146,4.5277,4.5277,4.5277,4.5277,4.5277,4.5277,4.5277,4.5277,4.5277,4.5265,4.5148,4.5014,4.4907,4.4827,4.4725,4.4659,4.4565,4.4524,4.4496,4.4482,4.4482,4.4482,4.4482,4.4482,4.4454,4.4454,4.4335,4.4185,4.403,4.3693,4.3477,4.3285,4.3124,4.3032,4.2919,4.2919,4.2919,4.2919,4.2919,4.2919,4.2919,4.2919,4.2919,4.2919,4.2919,4.29,4.2881,4.2881,4.2824,4.2728,4.2611,4.249,4.2269,4.2044,4.1849,4.1736,4.1648,4.1604,4.1604,4.1604,4.1604,4.1604,4.1604,4.1604,4.1604,4.1604,4.1604,4.1604,4.1604,4.1604,4.1604,4.1604,4.1604,4.1604,4.1604,4.1604,4.1604,4.1604,4.1604,4.1582,4.1542,4.1542,4.152,4.1431,4.114,4.0676,4.0302,3.9944,3.9402,3.887,3.8434,3.7925,3.7432,3.6936,3.6448,3.6166,3.595,3.585,3.5495,3.495,3.469,3.4311,3.3909,3.372,3.3633,3.3492,3.3404,3.3367,3.315,3.2888,3.2718,3.2576,3.2201,3.1794,3.1566,4.5277,4.5277,4.5277,4.5277,4.5277,4.5277,4.5277,4.5277,4.5277,4.5297,4.5246,4.5148,4.5072,4.5003,4.4852,4.4738,4.4659,4.4584,4.4515,4.4496,4.4482,4.4482,4.4482,4.4482,4.4482,4.4482,4.4426,4.4306,4.4121,4.398,4.3742,4.3477,4.3284,4.3105,4.2938,4.2919,4.2919,4.2919,4.2919,4.2919,4.2919,4.2919,4.2919,4.2919,4.2919,4.2919,4.2919,4.2919,4.2843,4.2728,4.2707,4.257,4.2348,4.2103,4.1934,4.187,4.1692,4.1604,4.1604,4.1604,4.1604,4.1604,4.1604,4.1604,4.1604,4.1604,4.1604,4.1604,4.1604,4.1604,4.1604,4.1604,4.1604,4.1604,4.1604,4.1604,4.1604,4.1604,4.1604,4.1604,4.1604,4.1604,4.1604,4.152,4.1363,4.1007,4.0635,4.0201,3.975,3.9402,3.9014,3.8641,3.8162,3.7748,3.7317,3.7152,3.6976,3.6901,3.6569,3.5913,3.5547,3.5321,3.4871,3.4284,3.4269,3.4424,3.4005,3.3614,3.3736,3.3898,3.3263,3.2982,3.2604,3.2391,3.2262,4.5277,4.5277,4.5277,4.5277,4.5277,4.5277,4.5277,4.5277,4.5277,4.5277,4.5277,4.5235,4.517,4.5091,4.501,4.4877,4.4725,4.4672,4.4605,4.4496,4.4496,4.4482,4.4482,4.4482,4.4482,4.4482,4.4482,4.4454,4.4364,4.4229,4.406,4.3825,4.3424,4.316,4.2976,4.2919,4.2919,4.2919,4.2919,4.2919,4.2919,4.2919,4.2919,4.2919,4.2919,4.2919,4.2919,4.2919,4.2862,4.2786,4.2785,4.2689,4.2492,4.2269,4.2082,4.1934,4.1736,4.1604,4.1604,4.1604,4.1604,4.1604,4.1604,4.1604,4.1604,4.1604,4.1604,4.1604,4.1604,4.1604,4.1604,4.1604,4.1604,4.1604,4.1604,4.1604,4.1604,4.1604,4.1604,4.1604,4.1604,4.1604,4.1604,4.1604,4.1453,4.134,4.1007,4.0483,4.0028,3.9817,3.9528,3.9242,3.8825,3.846,3.8146,3.793,3.7632,3.7399,3.7133,3.6701,3.6425,3.628,3.5971,3.5493,3.5445,3.5394,3.5079,3.4861,3.5075,3.501,3.4616,3.4242,3.4025,3.3659,3.3221,4.5277,4.5277,4.5277,4.5277,4.5277,4.5277,4.5277,4.5277,4.5277,4.5277,4.5277,4.5277,4.5246,4.517,4.5103,4.5057,4.4821,4.4719,4.4685,4.4565,4.4528,4.4515,4.4482,4.4515,4.4482,4.4482,4.4482,4.4482,4.4454,4.4321,4.4185,4.3952,4.356,4.3267,4.3069,4.2995,4.2919,4.2919,4.2919,4.2919,4.2919,4.2919,4.2919,4.2919,4.2919,4.2919,4.2919,4.2919,4.2919,4.2919,4.2881,4.2825,4.267,4.2492,4.229,4.2061,4.178,4.1648,4.1604,4.1604,4.1604,4.1604,4.1604,4.1604,4.1604,4.1604,4.1604,4.1604,4.1604,4.1604,4.1604,4.1604,4.1604,4.1604,4.1604,4.1604,4.1604,4.1604,4.1604,4.1604,4.1604,4.1604,4.1604,4.1604,4.156,4.1453,4.1346,4.0836,4.0345,4.0121,3.991,3.9599,3.9319,3.895,3.8709,3.8642,3.8311,3.793,3.7696,3.7529,3.7371,3.7225,3.6964,3.6679,3.6388,3.6186,3.6259,3.626,3.6292,3.641,3.6437,3.6039,3.5589,3.4942,3.4298,4.5277,4.5277,4.5277,4.5277,4.5277,4.5277,4.5277,4.5277,4.5277,4.5277,4.5277,4.5277,4.5286,4.5256,4.517,4.5103,4.5026,4.4852,4.4764,4.4685,4.4592,4.4551,4.4528,4.4515,4.4515,4.4482,4.4482,4.4482,4.4501,4.444,4.4321,4.406,4.3627,4.3408,4.3249,4.3069,4.2957,4.2919,4.2919,4.2919,4.2919,4.2919,4.2919,4.2919,4.2919,4.2919,4.2919,4.2919,4.2919,4.2919,4.29,4.29,4.2843,4.2709,4.251,4.2225,4.1823,4.167,4.1604,4.1604,4.1604,4.1604,4.1604,4.1604,4.1604,4.1604,4.1604,4.1604,4.1604,4.1604,4.1604,4.1604,4.1604,4.1604,4.1604,4.1604,4.1604,4.1604,4.1604,4.1604,4.1604,4.1604,4.1604,4.1604,4.1604,4.1542,4.1475,4.134,4.086,4.0392,4.0137,3.9798,3.9563,3.9325,3.9183,3.905,3.8967,3.8553,3.8718,3.8599,3.8408,3.816,3.7939,3.7604,3.7124,3.7013,3.731,3.7416,3.7395,3.7528,3.7591,3.7267,3.6658,3.5955,3.5366,4.5277,4.5277,4.5277,4.5277,4.5277,4.5277,4.5277,4.5277,4.5277,4.5277,4.5277,4.5277,4.5277,4.5277,4.5246,4.5181,4.5114,4.5033,4.4919,4.4821,4.4712,4.4672,4.4605,4.457,4.451,4.4482,4.4482,4.4482,4.4482,4.4482,4.4482,4.4306,4.3825,4.3646,4.3442,4.3124,4.3013,4.2938,4.2938,4.2919,4.2919,4.2919,4.2919,4.2919,4.2919,4.2919,4.2919,4.2919,4.2919,4.2919,4.2919,4.2919,4.29,4.2709,4.2452,4.204,4.1762,4.1604,4.1604,4.1604,4.1604,4.1604,4.1604,4.1604,4.1604,4.1604,4.1604,4.1604,4.1604,4.1604,4.1604,4.1604,4.1604,4.1604,4.1604,4.1604,4.1604,4.1604,4.1604,4.1604,4.1604,4.1604,4.1604,4.1604,4.1604,4.1604,4.1582,4.1515,4.1232,4.0754,4.0375,4.002,3.9616,3.9342,3.9315,3.9199,3.9249,3.9249,3.9282,3.9265,3.9007,3.8808,3.8791,3.8583,3.813,3.8263,3.8593,3.8541,3.8248,3.8346,3.8394,3.8119,3.7717,3.6994,3.6418,4.5277,4.5277,4.5277,4.5277,4.5277,4.5277,4.5277,4.5277,4.5277,4.5277,4.5277,4.5277,4.5277,4.5277,4.5277,4.5246,4.5181,4.5114,4.5045,4.4974,4.4852,4.4764,4.4667,4.4619,4.4551,4.451,4.4482,4.4482,4.4482,4.4482,4.4482,4.444,4.4048,4.3923,4.3712,4.3372,4.3105,4.3014,4.2976,4.2938,4.2919,4.2919,4.2919,4.2919,4.2919,4.2919,4.2919,4.2919,4.2919,4.2919,4.2919,4.2919,4.2881,4.2709,4.249,4.2103,4.187,4.1697,4.1609,4.1604,4.1604,4.1604,4.1604,4.1604,4.1604,4.1604,4.1604,4.1604,4.1604,4.1604,4.1604,4.1604,4.1604,4.1604,4.1604,4.1604,4.1604,4.1604,4.1604,4.1604,4.1604,4.1604,4.1604,4.1604,4.1604,4.1604,4.1604,4.1582,4.1277,4.0802,4.0497,4.0212,3.9713,3.9315,3.9315,3.9315,3.9315,3.9315,3.9299,3.9299,3.9315,3.9265,3.91,3.9133,3.9156,3.9189,3.908,3.9146,3.9032,3.904,3.8958,3.8761,3.8443,3.8003,3.752,4.5277,4.5277,4.5277,4.5277,4.5277,4.5277,4.5277,4.5277,4.5277,4.5277,4.5277,4.5277,4.5277,4.5277,4.5277,4.5277,4.5235,4.5181,4.5148,4.5114,4.4986,4.487,4.4796,4.4693,4.4619,4.4537,4.4482,4.4482,4.4482,4.4482,4.4501,4.4487,4.4199,4.4014,4.3857,4.3494,4.3196,4.3069,4.2995,4.2919,4.2919,4.2919,4.2919,4.2919,4.2919,4.2919,4.2919,4.2919,4.2919,4.2919,4.2919,4.2919,4.2843,4.2727,4.249,4.2328,4.2082,4.1913,4.1805,4.178,4.174,4.1697,4.1648,4.167,4.1675,4.1626,4.1604,4.1604,4.1604,4.1604,4.1604,4.1604,4.1604,4.1604,4.1604,4.1604,4.1604,4.1604,4.1604,4.1604,4.1604,4.1604,4.1604,4.1604,4.1604,4.1604,4.1604,4.1604,4.1368,4.0919,4.0611,4.0368,3.9901,3.9484,3.9315,3.9315,3.9315,3.9315,3.9315,3.9315,3.9315,3.9315,3.9315,3.9315,3.9315,3.9315,3.9282,3.9299,3.9299,3.9245,3.9191,3.9245,3.905,3.8657,3.837,4.5277,4.5277,4.5277,4.5277,4.5277,4.5277,4.5277,4.5277,4.5277,4.5277,4.5277,4.5277,4.5277,4.5277,4.5277,4.5277,4.5267,4.5246,4.5265,4.5222,4.5114,4.5014,4.4943,4.4808,4.4712,4.4632,4.4565,4.4496,4.4482,4.4482,4.4482,4.4487,4.4244,4.4075,4.3905,4.3511,4.3285,4.316,4.2976,4.2919,4.2919,4.2919,4.2919,4.2919,4.2919,4.2919,4.2919,4.2919,4.2919,4.2919,4.2919,4.2919,4.29,4.2727,4.2589,4.2492,4.229,4.2166,4.21,4.2058,4.204,4.1998,4.1956,4.187,4.1784,4.1653,4.1604,4.1604,4.1604,4.1604,4.1604,4.1604,4.1604,4.1604,4.1604,4.1604,4.1604,4.1604,4.1604,4.1604,4.1604,4.1604,4.1604,4.1604,4.1604,4.1604,4.1604,4.1582,4.1475,4.1163,4.0802,4.0514,4.0121,3.9746,3.9511,3.9369,3.9405,3.9342,3.9315,3.9315,3.9315,3.9315,3.9315,3.9315,3.9315,3.9315,3.9315,3.9315,3.9315,3.9315,3.9315,3.9315,3.9315,3.9023,3.886,4.5277,4.5277,4.5277,4.5277,4.5277,4.5277,4.5277,4.5277,4.5277,4.5277,4.5277,4.5277,4.5277,4.5277,4.5277,4.5277,4.5277,4.5277,4.5286,4.5265,4.5224,4.514,4.5038,4.4931,4.4858,4.477,4.4659,4.4578,4.4496,4.4482,4.4482,4.4487,4.4306,4.417,4.3971,4.3695,4.339,4.3285,4.3032,4.2919,4.2919,4.2919,4.2919,4.2919,4.2919,4.2919,4.2919,4.2919,4.2919,4.2919,4.2919,4.2919,4.29,4.2824,4.2707,4.2591,4.2472,4.2389,4.2348,4.2328,4.2328,4.2249,4.2205,4.21,4.1892,4.1762,4.1675,4.1653,4.1604,4.1604,4.1604,4.1604,4.1604,4.1604,4.1604,4.1604,4.1604,4.1604,4.1604,4.1604,4.1604,4.1604,4.1604,4.1604,4.1604,4.1604,4.1604,4.1604,4.1498,4.1408,4.1053,4.0772,4.0427,4.0037,3.9746,3.9616,3.9537,3.9458,3.9342,3.9315,3.9315,3.9315,3.9315,3.9315,3.9315,3.9315,3.9315,3.9315,3.9315,3.9315,3.9315,3.9315,3.9315,3.9315,3.9164,4.5277,4.5277,4.5277,4.5277,4.5277,4.5277,4.5277,4.5277,4.5277,4.5277,4.5277,4.5277,4.5277,4.5277,4.5277,4.5277,4.5277,4.5277,4.5277,4.5277,4.5297,4.5224,4.5151,4.5072,4.4955,4.4833,4.4725,4.4605,4.4496,4.4482,4.4482,4.4482,4.4468,4.4458,4.4296,4.3986,4.3595,4.3338,4.3124,4.2938,4.2919,4.2919,4.2919,4.2919,4.2919,4.2919,4.2919,4.2919,4.2919,4.2919,4.2919,4.2919,4.2919,4.2881,4.2805,4.2709,4.267,4.2552,4.2472,4.247,4.2432,4.2391,4.2369,4.2246,4.2061,4.1934,4.1849,4.1719,4.167,4.1604,4.1604,4.1604,4.1604,4.1604,4.1604,4.1604,4.1604,4.1604,4.1604,4.1604,4.1604,4.1604,4.1604,4.1604,4.1604,4.1604,4.1604,4.1604,4.1582,4.1538,4.134,4.114,4.0913,4.05,4.0062,3.9849,3.9772,3.9563,3.9458,3.9369,3.9315,3.9315,3.9315,3.9315,3.9315,3.9315,3.9315,3.9315,3.9315,3.9315,3.9315,3.9315,3.9315,3.9315,3.9315,4.5277,4.5277,4.5277,4.5277,4.5277,4.5277,4.5277,4.5277,4.5277,4.5277,4.5277,4.5277,4.5277,4.5277,4.5277,4.5277,4.5277,4.5277,4.5277,4.5277,4.5277,4.5267,4.5235,4.5159,4.4943,4.4821,4.4738,4.4632,4.451,4.4482,4.4482,4.4482,4.4482,4.4306,4.3873,4.3662,4.3528,4.3267,4.3087,4.2919,4.2919,4.2919,4.2919,4.2919,4.2919,4.2919,4.2919,4.2919,4.2919,4.2919,4.2919,4.2919,4.2919,4.2919,4.2862,4.2824,4.2805,4.2767,4.2709,4.2689,4.2689,4.2671,4.2631,4.251,4.2351,4.2249,4.2103,4.1892,4.1784,4.167,4.1648,4.1604,4.1604,4.1604,4.1604,4.1604,4.1604,4.1604,4.1604,4.1604,4.1604,4.1604,4.1604,4.1604,4.1604,4.1604,4.1604,4.1604,4.1604,4.1582,4.156,4.1431,4.1277,4.0919,4.0441,4.0138,3.9961,3.9772,3.9563,3.9432,3.9352,3.9315,3.9315,3.9315,3.9315,3.9315,3.9315,3.9315,3.9315,3.9315,3.9315,3.9315,3.9315,3.9315,3.9315]}]]